[[{"header":{"parameterUnit":"m.s-1","parameterCategory":1,"la1":30.6,"la2":28.766,"lo1":-90.7593,"lo2":-88.6598,"dy":0.0162,"dx":0.0183,"nx":116,"ny":114,"refTime":"2023-02-24T06:00:00:Z","depth":0,"parameterNumber":2,"parameterNumberName":"U-component_of_WINDS"},"data":[0.0,0.0,0.0,0.0,0.0,0.0,0.0,0.0,0.0,0.0,0.0,0.0,0.0,0.0,0.0,0.0,0.0,0.0,0.0,0.0,0.0,0.0,0.0,0.0,0.0,0.0,0.0,0.0,0.0,0.0,0.0,0.0,0.0,0.0,0.0,0.0,0.0,0.0,0.0,0.0,0.0,0.0,0.0,0.0,0.0,0.0,0.0,0.0,0.0,0.0,0.0,0.0,0.0,0.0,0.0,0.0,0.0,0.0,0.0,0.0,0.0,0.0,0.0,0.0,0.0,0.0,0.0,0.0,0.0,0.0,0.0,0.0,0.0,0.0,0.0,0.0,0.0,0.0,0.0,0.0,0.0,0.0,0.0,0.0,0.0,0.0,0.0,0.0,0.0,0.0,0.0,0.0,0.0,0.0,0.0,0.0,0.0,0.0,0.0,0.0,0.0,0.0,0.0,0.0,0.0,0.0,0.0,0.0,0.0,0.0,0.0,0.0,0.0,0.0,0.0,0.0,0.0,0.0,0.0,0.0,0.0,0.0,0.0,0.0,0.0,0.0,0.0,0.0,0.0,0.0,0.0,0.0,0.0,0.0,0.0,0.0,0.0,0.0,0.0,0.0,0.0,0.0,0.0,0.0,0.0,0.0,0.0,0.0,0.0,0.0,0.0,0.0,0.0,0.0,0.0,0.0,0.0,0.0,0.0,0.0,0.0,0.0,0.0,0.0,0.0,0.0,0.0,0.0,0.0,0.0,0.0,0.0,0.0,0.0,0.0,0.0,0.0,0.0,0.0,0.0,0.0,0.0,0.0,0.0,0.0,0.0,0.0,0.0,0.0,0.0,0.0,0.0,0.0,0.0,0.0,0.0,0.0,0.0,0.0,0.0,0.0,0.0,0.0,0.0,0.0,0.0,0.0,0.0,0.0,0.0,0.0,0.0,0.0,0.0,0.0,0.0,0.0,0.0,0.0,0.0,0.0,0.0,0.0,0.0,0.0,0.0,0.0,0.0,0.0,0.0,0.0,0.0,0.0,0.0,0.0,0.0,0.0,0.0,0.0,0.0,0.0,0.0,0.0,0.0,0.0,0.0,0.0,0.0,0.0,0.0,0.0,0.0,0.0,0.0,0.0,0.0,0.0,0.0,0.0,0.0,0.0,0.0,0.0,0.0,0.0,0.0,0.0,0.0,0.0,0.0,0.0,0.0,0.0,0.0,0.0,0.0,0.0,0.0,0.0,0.0,0.0,0.0,0.0,0.0,0.0,0.0,0.0,0.0,0.0,0.0,0.0,0.0,0.0,0.0,0.0,0.0,0.0,0.0,0.0,0.0,0.0,0.0,0.0,0.0,0.0,0.0,0.0,0.0,0.0,0.0,0.0,0.0,0.0,0.0,0.0,0.0,0.0,0.0,0.0,0.0,0.0,0.0,0.0,0.0,0.0,0.0,0.0,0.0,0.0,0.0,0.0,0.0,0.0,0.0,0.0,0.0,0.0,0.0,0.0,0.0,0.0,0.0,0.0,0.0,0.0,0.0,0.0,0.0,0.0,0.0,0.0,0.0,0.0,0.0,0.0,0.0,0.0,0.0,0.0,0.0,0.0,0.0,0.0,0.0,0.0,0.0,0.0,0.0,0.0,0.0,0.0,0.0,0.0,0.0,0.0,0.0,0.0,0.0,0.0,0.0,0.0,0.0,0.0,0.0,0.0,0.0,0.0,0.0,0.0,0.0,0.0,0.0,0.0,0.0,0.0,0.0,0.0,0.0,0.0,0.0,0.0,0.0,0.0,0.0,0.0,0.0,0.0,0.0,0.0,0.0,0.0,0.0,0.0,0.0,0.0,0.0,0.0,0.0,0.0,0.0,0.0,0.0,0.0,0.0,0.0,0.0,0.0,0.0,0.0,0.0,0.0,0.0,0.0,0.0,0.0,0.0,0.0,0.0,0.0,0.0,0.0,0.0,0.0,0.0,0.0,0.0,0.0,0.0,0.0,0.0,0.0,0.0,0.0,0.0,0.0,0.0,0.0,0.0,0.0,0.0,0.0,0.0,0.0,0.0,0.0,0.0,0.0,0.0,0.0,0.0,0.0,0.0,0.0,0.0,0.0,0.0,0.0,0.0,0.0,0.0,0.0,0.0,0.0,0.0,0.0,0.0,0.0,0.0,0.0,0.0,0.0,0.0,0.0,0.0,0.0,0.0,0.0,0.0,0.0,0.0,0.0,0.0,0.0,0.0,0.0,0.0,0.0,0.0,0.0,0.0,0.0,0.0,0.0,0.0,0.0,0.0,0.0,0.0,0.0,0.0,0.0,0.0,0.0,0.0,0.0,0.0,0.0,0.0,0.0,0.0,0.0,0.0,0.0,0.0,0.0,0.0,0.0,0.0,0.0,0.0,0.0,0.0,0.0,0.0,0.0,0.0,0.0,0.0,0.0,0.0,0.0,0.0,0.0,0.0,0.0,0.0,0.0,0.0,0.0,0.0,0.0,0.0,0.0,0.0,0.0,0.0,0.0,0.0,0.0,0.0,0.0,0.0,0.0,0.0,0.0,0.0,0.0,0.0,0.0,0.0,0.0,0.0,0.0,0.0,0.0,0.0,0.0,0.0,0.0,0.0,0.0,0.0,0.0,0.0,0.0,0.0,0.0,0.0,0.0,0.0,0.0,0.0,0.0,0.0,0.0,0.0,0.0,0.0,0.0,0.0,0.0,0.0,0.0,0.0,0.0,0.0,0.0,0.0,0.0,0.0,0.0,0.0,0.0,0.0,0.0,0.0,0.0,0.0,0.0,0.0,0.0,0.0,0.0,0.0,0.0,0.0,0.0,0.0,0.0,0.0,0.0,0.0,0.0,0.0,0.0,0.0,0.0,0.0,0.0,0.0,0.0,0.0,0.0,0.0,0.0,0.0,0.0,0.0,0.0,0.0,0.0,0.0,0.0,0.0,0.0,0.0,0.0,0.0,0.0,0.0,0.0,0.0,0.0,0.0,0.0,0.0,0.0,0.0,0.0,0.0,0.0,0.0,0.0,0.0,0.0,0.0,0.0,0.0,0.0,0.0,0.0,0.0,0.0,0.0,0.0,0.0,0.0,0.0,0.0,0.0,0.0,0.0,0.0,0.0,0.0,0.0,0.0,0.0,0.0,0.0,0.0,0.0,0.0,0.0,0.0,0.0,0.0,0.0,0.0,0.0,0.0,0.0,0.0,0.0,0.0,0.0,0.0,0.0,0.0,0.0,0.0,0.0,0.0,0.0,0.0,0.0,0.0,0.0,0.0,0.0,0.0,0.0,0.0,0.0,0.0,0.0,0.0,0.0,0.0,0.0,0.0,0.0,0.0,0.0,0.0,0.0,0.0,0.0,0.0,0.0,0.0,0.0,0.0,0.0,0.0,0.0,0.0,0.0,0.0,0.0,0.0,0.0,0.0,0.0,0.0,0.0,0.0,0.0,0.0,0.0,0.0,0.0,0.0,0.0,0.0,0.0,0.0,0.0,0.0,0.0,0.0,0.0,0.0,0.0,0.0,0.0,0.0,0.0,0.0,0.0,0.0,0.0,0.0,0.0,0.0,0.0,0.0,0.0,0.0,0.0,0.0,0.0,0.0,0.0,0.0,0.0,0.0,0.0,0.0,0.0,0.0,0.0,0.0,0.0,0.0,0.0,0.0,0.0,0.0,0.0,0.0,0.0,0.0,0.0,0.0,0.0,0.0,0.0,0.0,0.0,0.0,0.0,0.0,0.0,0.0,0.0,0.0,0.0,0.0,0.0,0.0,0.0,0.0,0.0,0.0,0.0,0.0,0.0,0.0,0.0,0.0,0.0,0.0,0.0,0.0,0.0,0.0,0.0,0.0,0.0,0.0,0.0,0.0,0.0,0.0,0.0,0.0,0.0,0.0,0.0,0.0,0.0,0.0,0.0,0.0,0.0,0.0,0.0,0.0,0.0,0.0,0.0,0.0,0.0,0.0,0.0,0.0,0.0,0.0,0.0,0.0,0.0,0.0,0.0,0.0,0.0,0.0,0.0,0.0,0.0,0.0,0.0,0.0,0.0,0.0,0.0,0.0,0.0,0.0,0.0,0.0,0.0,0.0,0.0,0.0,0.0,0.0,0.0,0.0,0.0,0.0,0.0,0.0,0.0,0.0,0.0,0.0,0.0,0.0,0.0,0.0,0.0,0.0,0.0,0.0,0.0,0.0,0.0,0.0,0.0,0.0,0.0,0.0,0.0,0.0,0.0,0.0,0.0,0.0,0.0,0.0,0.0,0.0,0.0,0.0,0.0,0.0,0.0,0.0,0.0,0.0,0.0,0.0,0.0,0.0,0.0,0.0,0.0,0.0,0.0,0.0,0.0,0.0,0.0,0.0,0.0,0.0,0.0,0.0,0.0,0.0,0.0,0.0,0.0,0.0,0.0,0.0,0.0,0.0,0.0,0.0,0.0,0.0,0.0,0.0,0.0,0.0,0.0,0.0,0.0,0.0,0.0,0.0,0.0,0.0,0.0,0.0,0.0,0.0,0.0,0.0,0.0,0.0,0.0,0.0,0.0,0.0,0.0,0.0,0.0,0.0,0.0,0.0,0.0,0.0,0.0,0.0,0.0,0.0,0.0,0.0,0.0,0.0,0.0,0.0,0.0,0.0,0.0,0.0,0.0,0.0,0.0,0.0,0.0,0.0,0.0,0.0,0.0,0.0,0.0,0.0,0.0,0.0,0.0,0.0,0.0,0.0,0.0,0.0,0.0,0.0,0.0,0.0,0.0,0.0,0.0,0.0,0.0,0.0,0.0,0.0,0.0,0.0,0.0,0.0,0.0,0.0,0.0,0.0,0.0,0.0,0.0,0.0,0.0,0.0,0.0,0.0,0.0,0.0,0.0,0.0,0.0,0.0,0.0,0.0,0.0,0.0,0.0,0.0,0.0,0.0,0.0,0.0,0.0,0.0,0.0,0.0,0.0,0.0,0.0,0.0,0.0,0.0,0.0,0.0,0.0,0.0,0.0,0.0,0.0,0.0,0.0,0.0,0.0,0.0,0.0,0.0,0.0,0.0,0.0,0.0,0.0,0.0,0.0,0.0,0.0,0.0,0.0,0.0,0.0,0.0,0.0,0.0,0.0,0.0,0.0,0.0,0.0,0.0,0.0,0.0,0.0,0.0,0.0,0.0,0.0,0.0,0.0,0.0,0.0,0.0,0.0,0.0,0.0,0.0,0.0,0.0,0.0,0.0,0.0,0.0,0.0,0.0,0.0,0.0,0.0,0.0,0.0,0.0,0.0,0.0,0.0,0.0,0.0,0.0,0.0,0.0,0.0,0.0,0.0,0.0,0.0,0.0,0.0,0.0,0.0,0.0,0.0,0.0,0.0,0.0,0.0,0.0,0.0,0.0,0.0,0.0,0.0,0.0,0.0,0.0,0.0,0.0,0.0,0.0,0.0,0.0,0.0,0.0,0.0,0.0,0.0,0.0,0.0,0.0,0.0,0.0,0.0,0.0,0.0,0.0,0.0,0.0,0.0,0.0,0.0,0.0,0.0,0.0,0.0,0.0,0.0,0.0,0.0,0.0,0.0,0.0,0.0,0.0,0.0,0.0,0.0,0.0,0.0,0.0,0.0,0.0,0.0,0.0,0.0,0.0,0.0,0.0,0.0,0.0,0.0,0.0,0.0,0.0,0.0,0.0,0.0,0.0,0.0,0.0,0.0,0.0,0.0,0.0,0.0,0.0,0.0,0.0,0.0,0.0,0.0,0.0,0.0,0.0,0.0,0.0,0.0,0.0,0.0,0.0,0.0,0.0,0.0,0.0,0.0,0.0,0.0,0.0,0.0,0.0,0.0,0.0,0.0,0.0,0.0,0.0,0.0,0.0,0.0,0.0,0.0,0.0,0.0,0.0,0.0,0.0,0.0,0.0,0.0,0.0,0.0,0.0,0.0,0.0,0.0,0.0,0.0,0.0,0.0,0.0,0.0,0.0,0.0,0.0,0.0,0.0,0.0,0.0,0.0,0.0,0.0,0.0,0.0,0.0,0.0,0.0,0.0,0.0,0.0,0.0,0.0,0.0,0.0,0.0,0.0,0.0,0.0,0.0,0.0,0.0,0.0,0.0,0.0,0.0,0.0,-2.539,0.0,0.0,0.0,0.0,0.0,0.0,0.0,0.0,0.0,0.0,0.0,0.0,0.0,0.0,0.0,0.0,0.0,0.0,0.0,0.0,0.0,0.0,0.0,0.0,0.0,0.0,0.0,0.0,0.0,0.0,0.0,0.0,0.0,0.0,0.0,0.0,0.0,0.0,0.0,0.0,0.0,0.0,0.0,0.0,0.0,0.0,0.0,0.0,0.0,0.0,0.0,0.0,0.0,0.0,0.0,0.0,0.0,0.0,0.0,0.0,0.0,0.0,0.0,0.0,0.0,0.0,0.0,0.0,0.0,0.0,0.0,0.0,0.0,0.0,0.0,0.0,0.0,0.0,0.0,0.0,0.0,0.0,0.0,0.0,0.0,0.0,0.0,0.0,0.0,0.0,0.0,0.0,0.0,0.0,0.0,0.0,0.0,0.0,0.0,0.0,0.0,0.0,0.0,0.0,0.0,0.0,0.0,0.0,0.0,0.0,0.0,0.0,0.0,0.0,0.0,0.0,-2.545,0.0,0.0,0.0,0.0,0.0,0.0,0.0,0.0,0.0,0.0,0.0,0.0,0.0,0.0,0.0,0.0,0.0,0.0,0.0,0.0,0.0,0.0,0.0,0.0,0.0,0.0,0.0,0.0,0.0,0.0,0.0,0.0,0.0,0.0,0.0,0.0,0.0,0.0,0.0,0.0,0.0,0.0,0.0,0.0,0.0,0.0,0.0,0.0,0.0,0.0,0.0,0.0,0.0,0.0,0.0,0.0,0.0,0.0,0.0,0.0,0.0,0.0,0.0,0.0,0.0,0.0,0.0,0.0,0.0,0.0,0.0,0.0,0.0,0.0,0.0,0.0,0.0,0.0,0.0,0.0,0.0,0.0,0.0,0.0,0.0,0.0,0.0,0.0,0.0,0.0,0.0,0.0,0.0,0.0,0.0,0.0,0.0,0.0,0.0,0.0,0.0,0.0,0.0,0.0,0.0,0.0,0.0,0.0,-2.5747,-2.5747,-2.5755,-2.5755,-2.5719,-2.5609,-2.5496,-2.5463,-2.5525,0.0,0.0,0.0,0.0,0.0,0.0,0.0,0.0,0.0,0.0,0.0,0.0,0.0,0.0,0.0,0.0,0.0,0.0,0.0,0.0,0.0,0.0,0.0,0.0,0.0,0.0,0.0,0.0,0.0,0.0,0.0,0.0,0.0,0.0,0.0,0.0,0.0,0.0,0.0,-2.5163,-2.5278,-2.5668,-2.6275,-2.5741,0.0,0.0,0.0,0.0,0.0,0.0,0.0,0.0,0.0,0.0,0.0,0.0,0.0,0.0,0.0,0.0,0.0,0.0,0.0,0.0,0.0,0.0,0.0,0.0,0.0,0.0,0.0,0.0,0.0,0.0,0.0,0.0,0.0,0.0,0.0,0.0,0.0,0.0,0.0,0.0,0.0,0.0,0.0,-2.3214,-2.3261,0.0,0.0,0.0,0.0,0.0,0.0,0.0,0.0,0.0,0.0,0.0,0.0,0.0,-2.5633,-2.5683,-2.5633,-2.6003,-2.6795,-2.6741,-2.6742,-2.6795,-2.6795,-2.6386,-2.5683,-2.5619,0.0,-2.5662,-2.5663,0.0,0.0,0.0,0.0,0.0,0.0,0.0,0.0,0.0,0.0,0.0,0.0,0.0,0.0,0.0,0.0,0.0,0.0,0.0,0.0,0.0,0.0,0.0,0.0,0.0,0.0,0.0,0.0,0.0,0.0,0.0,0.0,0.0,0.0,0.0,0.0,-2.4756,-2.5345,-2.6038,-2.6524,-2.6967,-2.7318,-2.6985,-2.7017,-2.7235,-2.5984,0.0,0.0,0.0,0.0,0.0,0.0,0.0,0.0,0.0,0.0,0.0,0.0,0.0,0.0,0.0,0.0,0.0,0.0,0.0,0.0,0.0,0.0,0.0,0.0,0.0,0.0,0.0,0.0,0.0,0.0,0.0,0.0,0.0,0.0,0.0,0.0,0.0,0.0,0.0,-2.4409,-2.4294,-2.3839,-2.4544,-2.5098,0.0,0.0,0.0,0.0,0.0,0.0,0.0,0.0,0.0,-2.6363,-2.6382,-2.6639,-2.7168,-2.7127,-2.7322,-2.7734,-2.7693,-2.7694,-2.7734,-2.7734,-2.7519,-2.7168,-2.7127,-2.6854,-2.6387,-2.5824,-2.5606,-2.5635,0.0,0.0,0.0,0.0,0.0,-2.5491,0.0,0.0,0.0,0.0,0.0,0.0,0.0,0.0,0.0,0.0,0.0,0.0,0.0,0.0,0.0,-2.6381,0.0,0.0,0.0,0.0,0.0,0.0,0.0,0.0,0.0,0.0,0.0,0.0,-2.601,-2.6813,-2.7255,-2.789,-2.8338,-2.8544,-2.8544,-2.8212,-2.7554,-2.6195,-2.5824,0.0,0.0,0.0,0.0,0.0,0.0,0.0,0.0,0.0,0.0,0.0,0.0,0.0,0.0,0.0,0.0,0.0,0.0,0.0,0.0,0.0,0.0,0.0,0.0,0.0,0.0,0.0,0.0,0.0,0.0,0.0,0.0,0.0,0.0,0.0,0.0,0.0,0.0,-2.4684,-2.4708,-2.4062,-2.4784,-2.5349,0.0,0.0,0.0,0.0,0.0,0.0,-2.6275,-2.6295,-2.6615,-2.7305,-2.7324,-2.7637,-2.8281,-2.8301,-2.8418,-2.8633,-2.8867,-2.8965,-2.8965,-2.8965,-2.8848,-2.8613,-2.8398,-2.793,-2.7265,-2.6282,-2.5761,-2.5598,-2.5533,-2.5501,-2.5499,-2.5712,-2.5647,-2.5473,0.0,0.0,0.0,0.0,0.0,0.0,0.0,0.0,0.0,0.0,0.0,0.0,0.0,0.0,-2.8201,-2.886,-2.8329,-2.7933,0.0,0.0,0.0,0.0,0.0,0.0,0.0,0.0,0.0,-2.6477,-2.6563,-2.7409,-2.8973,-2.9011,-2.9486,-3.0269,-3.0269,-3.025,-3.0038,-2.7388,-2.6877,-2.7717,0.0,0.0,0.0,0.0,0.0,0.0,0.0,0.0,0.0,0.0,0.0,0.0,0.0,0.0,0.0,0.0,0.0,0.0,0.0,0.0,0.0,0.0,0.0,0.0,0.0,0.0,0.0,0.0,0.0,0.0,0.0,0.0,0.0,0.0,0.0,0.0,0.0,0.0,0.0,-2.3161,-2.3878,0.0,0.0,0.0,0.0,-2.6855,-2.6933,-2.7285,-2.8125,-2.8164,-2.8184,-2.8223,-2.8223,-2.8262,-2.8301,-2.8301,-2.8711,-2.9531,-3.0371,-3.0762,-3.0762,-3.0762,-3.0312,-2.9492,-2.8652,-2.8281,-2.8164,-2.7285,-2.6402,-2.5598,-2.5533,-2.5465,-2.5491,-2.6256,-2.602,-2.5423,0.0,0.0,0.0,0.0,0.0,0.0,0.0,0.0,0.0,0.0,0.0,0.0,0.0,-2.8871,-2.9741,-2.9927,-3.0198,-2.9663,-2.8034,0.0,0.0,0.0,0.0,0.0,0.0,0.0,-2.603,-2.5769,-2.689,-2.8011,-2.9107,-2.9107,-2.9563,-3.0404,-3.0404,-3.0404,-3.0263,-2.8205,-2.7239,-2.693,-2.5163,-2.4687,0.0,0.0,0.0,0.0,0.0,0.0,0.0,0.0,0.0,0.0,0.0,0.0,0.0,0.0,0.0,0.0,0.0,0.0,0.0,0.0,0.0,0.0,0.0,0.0,0.0,0.0,0.0,0.0,0.0,0.0,0.0,0.0,0.0,0.0,0.0,0.0,0.0,-2.5547,-2.6334,0.0,0.0,-2.712,-2.7638,-2.8546,-2.857,-2.8704,-2.9053,-2.9074,-2.9098,-2.9141,-2.9141,-2.9687,-3.0801,-3.0801,-3.123,-3.2051,-3.2363,-3.2519,-3.248,-3.1973,-3.1562,-3.1211,-3.0351,-2.9648,-2.9101,-2.8809,-2.8122,-2.7258,-2.7143,-2.7089,-2.7024,-2.6728,-2.6755,-2.6851,0.0,0.0,0.0,0.0,0.0,0.0,0.0,0.0,0.0,0.0,0.0,-2.7687,-2.8476,-3.0293,-3.1413,-3.132,-3.1303,-3.0433,-2.8434,0.0,0.0,0.0,0.0,0.0,0.0,-2.6357,-2.689,-2.6577,-2.8025,-2.9025,-2.9544,-2.9544,-2.9852,-3.0404,-3.0404,-3.0404,-3.0346,-2.9525,-2.8352,-2.6904,-2.544,-2.5409,-2.6114,0.0,0.0,0.0,0.0,0.0,0.0,0.0,0.0,0.0,0.0,0.0,0.0,0.0,0.0,0.0,0.0,0.0,0.0,0.0,0.0,0.0,0.0,0.0,0.0,0.0,0.0,0.0,0.0,0.0,0.0,0.0,0.0,0.0,0.0,0.0,-2.7538,-2.7785,-2.8608,-2.9159,-2.918,-2.9113,-2.9456,-3.0342,-3.0367,-3.0483,-3.0792,-3.0811,-3.0836,-3.0879,-3.0879,-3.1445,-3.2598,-3.2598,-3.2871,-3.3398,-3.3691,-3.3672,-3.3379,-3.2851,-3.2461,-3.2148,-3.1289,-3.0566,-3.0039,-3.0039,-2.9666,-2.9049,-2.8321,-2.802,-2.7958,-2.7581,-2.764,-2.7678,0.0,0.0,0.0,0.0,0.0,0.0,0.0,0.0,0.0,0.0,-2.7124,-2.8503,-2.9439,-3.1676,-3.3102,-3.3097,-3.1435,-3.0007,-2.9124,-2.6772,0.0,0.0,0.0,0.0,-2.6688,-2.7509,-2.8299,-2.9011,-2.9929,-3.0327,-3.0288,-3.0327,-3.0365,-3.0365,-3.0385,-3.0423,-3.05,-3.1346,-3.0294,-2.7956,-2.6834,-2.7017,-2.7752,0.0,0.0,0.0,0.0,0.0,0.0,0.0,0.0,0.0,0.0,0.0,0.0,0.0,0.0,0.0,0.0,0.0,0.0,0.0,0.0,0.0,0.0,0.0,0.0,0.0,0.0,0.0,0.0,0.0,0.0,0.0,0.0,0.0,-2.7031,-2.7812,-2.8691,-2.957,-3.0384,-3.0908,-3.0976,-3.0911,-3.1279,-3.2207,-3.2285,-3.2617,-3.3398,-3.3437,-3.3437,-3.3398,-3.3398,-3.3418,-3.3437,-3.3437,-3.3457,-3.3496,-3.4336,-3.4297,-3.3476,-3.3457,-3.3027,-3.2226,-3.1367,-3.0976,-3.0976,-3.0957,-3.0937,-3.0761,-2.8907,-2.8129,-2.8155,-2.8819,-2.8536,-2.7703,0.0,0.0,0.0,0.0,0.0,0.0,0.0,0.0,0.0,0.0,-2.7731,-2.9497,-3.0278,-3.2086,-3.3237,-3.3172,-2.9858,-2.79,-2.8274,0.0,0.0,0.0,0.0,0.0,-2.6612,-2.8046,-2.828,-2.7294,-2.8736,-2.8832,-2.7673,-2.889,-2.9467,-2.9486,-3.0115,-3.075,-3.1371,-3.1602,-3.1621,-3.1333,-2.9196,-2.8516,-2.8511,0.0,0.0,0.0,0.0,0.0,0.0,0.0,0.0,0.0,0.0,0.0,0.0,0.0,0.0,0.0,0.0,0.0,0.0,0.0,0.0,0.0,0.0,0.0,0.0,0.0,0.0,0.0,0.0,0.0,0.0,0.0,0.0,-2.7949,-2.7949,-2.9238,-3.0508,-3.1387,-3.2206,-3.2695,-3.2715,-3.2695,-3.3046,-3.3945,-3.4004,-3.4101,-3.4336,-3.4336,-3.4043,-3.3418,-3.3398,-3.3691,-3.4336,-3.4336,-3.4668,-3.5293,-3.5527,-3.5527,-3.5254,-3.4629,-3.4219,-3.3965,-3.3086,-3.2715,-3.2676,-3.207,-3.1836,-3.1719,-3.0465,-2.9942,-2.9768,-2.8682,-2.7325,-2.6154,0.0,0.0,0.0,0.0,0.0,0.0,0.0,0.0,0.0,0.0,-2.7927,-2.9561,-2.9674,-3.1534,-3.2313,-3.1203,-2.8787,-2.7219,-2.692,0.0,0.0,0.0,0.0,-2.6438,-2.7626,-2.8607,-2.8794,-2.8192,-2.9179,-2.9159,-2.8212,-2.9198,-2.964,-2.9679,-3.0558,-3.1231,-3.1756,-3.2449,-3.3026,-3.3314,-3.1839,-3.1243,-3.0954,-2.8404,-2.8221,-2.9149,-2.7933,-2.7884,-2.826,-2.7419,0.0,0.0,0.0,0.0,0.0,0.0,0.0,0.0,0.0,0.0,0.0,0.0,0.0,0.0,0.0,0.0,0.0,0.0,0.0,0.0,0.0,0.0,0.0,0.0,-2.998,-3.0684,-3.1426,-3.1777,-3.2266,-3.3144,-3.3984,-3.4492,-3.4492,-3.4492,-3.4707,-3.5215,-3.5234,-3.5234,-3.5234,-3.5234,-3.5019,-3.4512,-3.4492,-3.4902,-3.5781,-3.5781,-3.623,-3.709,-3.709,-3.6698,-3.5931,-3.5468,-3.4823,0.0,-3.3613,-3.3398,-3.3359,-3.2891,-3.25,0.0,0.0,0.0,0.0,0.0,-2.7904,-2.6582,0.0,0.0,0.0,0.0,0.0,0.0,0.0,0.0,0.0,0.0,0.0,-2.8946,-2.8105,-3.0144,-3.0635,-2.8276,-2.7791,-2.6954,0.0,0.0,0.0,-2.6787,-2.6776,-2.7486,-2.9069,-2.9204,-2.9583,-3.025,-3.0346,-3.0308,-3.0115,-3.0308,-3.0346,-3.0288,-3.1154,-3.166,-3.1929,-3.341,-3.4167,-3.4359,-3.4359,-3.4282,-3.3936,-3.1481,-3.1462,-3.2564,-3.0962,-2.9909,-2.9133,-2.8325,0.0,0.0,0.0,0.0,0.0,0.0,0.0,0.0,0.0,0.0,0.0,0.0,0.0,0.0,0.0,0.0,0.0,0.0,0.0,0.0,0.0,0.0,0.0,0.0,-3.2656,-3.4297,-3.6055,-3.4961,-3.4238,-3.4902,-3.5586,-3.5996,-3.5996,-3.6094,-3.6152,-3.6152,-3.623,-3.625,-3.6132,0.0,0.0,0.0,0.0,-3.6523,-3.7285,-3.7402,-3.7832,-3.8594,-3.8574,-3.7747,-3.6176,-3.6147,-3.5246,-3.3734,-3.3707,-3.3691,-3.3691,-3.3594,-3.3008,-3.2089,-3.1074,-3.0598,-3.0435,-3.0413,-2.9352,0.0,0.0,0.0,0.0,0.0,0.0,0.0,0.0,0.0,0.0,-2.4746,-2.6913,-2.7929,-2.6367,-2.789,-2.8534,-2.7342,-2.5306,-2.4174,0.0,0.0,-2.601,-2.7599,-2.7656,-2.8107,-2.9088,-2.9794,-2.989,-2.9357,-3.0058,-2.9712,-2.8409,-2.9769,-3.0019,-2.939,-3.025,-3.1404,-3.2699,-3.3006,-3.3968,-3.525,-3.525,-3.4834,-3.3994,-3.216,-3.166,-3.1795,-3.0769,-3.1136,-3.1981,-3.1175,-3.1213,-3.1347,-2.986,0.0,0.0,0.0,0.0,0.0,0.0,0.0,0.0,0.0,0.0,0.0,0.0,0.0,0.0,0.0,0.0,0.0,0.0,0.0,0.0,-3.3574,-3.4824,-3.6113,-3.7851,-3.7812,-3.7402,-3.6855,-3.6328,-3.5996,-3.5996,-3.6641,-3.7051,-3.7051,-3.7695,-3.7772,-3.701,-3.7028,0.0,-3.5935,-3.6657,-3.7129,-3.7305,-3.8008,-3.8437,-3.8594,0.0,0.0,-3.789,-3.7194,-3.6705,-3.6327,-3.5758,-3.5508,-3.5449,-3.4746,-3.3494,-3.1932,-3.0986,-3.0153,-2.9551,-3.0163,-2.9352,-2.803,0.0,0.0,0.0,0.0,0.0,0.0,0.0,0.0,0.0,0.0,-2.6562,-2.7148,-2.584,-2.6875,-2.7129,-2.5801,-2.4466,0.0,0.0,-2.5823,-2.6751,-2.8478,-2.851,-2.889,-2.9737,-3.0173,-3.0192,-2.9756,-3.0192,-2.9962,-2.9179,-3.0,-3.0404,-3.0429,-3.1275,-3.2352,-3.3583,-3.4026,-3.4692,-3.55,-3.55,-3.5231,-3.4757,-3.3923,-3.3596,-3.3538,-3.3115,-3.3127,-3.3231,-3.242,-3.2414,-3.2464,-3.0784,-2.9763,-2.8951,0.0,0.0,0.0,0.0,0.0,0.0,0.0,0.0,0.0,0.0,0.0,0.0,0.0,0.0,-2.8828,0.0,0.0,-3.3652,-3.623,-3.7383,-3.8418,-3.9726,-3.9531,-3.8769,-3.7461,-3.6914,-3.6641,-3.6641,-3.7031,-3.748,-3.793,-3.8359,-3.8376,-3.7835,-3.7905,-3.7691,-3.717,-3.723,-3.7672,-3.8594,-3.8531,-3.8961,-3.9902,-3.9767,-3.9457,-3.8976,-3.8096,-3.747,-3.7005,-3.6202,-3.5896,-3.5889,-3.4974,-3.3787,-3.2457,-3.1549,-3.0374,-2.9309,-3.0095,-2.9583,-2.8626,0.0,0.0,0.0,0.0,0.0,0.0,0.0,0.0,0.0,0.0,-2.6211,-2.6348,-2.5312,-2.5977,-2.5937,0.0,0.0,0.0,0.0,-2.7031,-2.7702,-2.938,-2.9394,-2.9756,-3.0635,-3.0654,-3.0731,-3.0885,-3.0885,-3.0808,-3.0654,-3.0654,-3.1019,-3.1737,-3.2372,-3.3237,-3.4244,-3.4949,-3.5346,-3.55,-3.55,-3.55,-3.5481,-3.5308,-3.5346,-3.5481,-3.5308,-3.4443,-3.333,-3.2828,-3.2553,-3.2213,-3.103,-3.065,-3.0331,-2.87,-2.7947,0.0,0.0,0.0,0.0,0.0,0.0,0.0,0.0,0.0,-2.7893,-2.8825,-2.9863,-3.1269,-3.3496,-3.4766,-3.6191,-3.8456,-3.9549,-4.0369,-4.1053,-4.0565,-3.9472,-3.7754,-3.7402,-3.7363,-3.7539,-3.7538,-3.789,-3.8789,-3.8962,-3.891,-3.8656,-3.8731,-3.8652,-3.8344,-3.7908,-3.8365,-3.9838,-3.9188,-3.9637,-4.1126,-4.1009,-4.0555,-3.9781,-3.8746,-3.7887,-3.7168,-3.6144,-3.5761,-3.5806,-3.5029,-3.4074,-3.303,-3.2295,-3.0965,-2.9505,-3.0161,-2.9967,-2.9448,0.0,0.0,0.0,0.0,0.0,0.0,0.0,0.0,0.0,0.0,0.0,0.0,0.0,0.0,0.0,0.0,0.0,0.0,-2.7939,-2.7922,-2.8593,-3.0285,-3.0295,-3.0654,-3.1545,-3.1545,-3.191,-3.2622,-3.2622,-3.2256,-3.1545,-3.1545,-3.1621,-3.1698,-3.1795,-3.2718,-3.4205,-3.4302,-3.4795,-3.55,-3.55,-3.55,-3.5423,-3.4641,-3.4834,-3.5404,-3.4622,-3.3308,-3.2039,-3.2654,-3.2385,-3.1885,-3.2423,-3.2109,-3.1218,-2.949,0.0,-2.6601,-2.5605,-2.5421,-2.5707,-2.6391,-2.6695,-2.7184,0.0,0.0,-3.0519,-3.1394,-3.2943,-3.4453,-3.5508,-3.7051,-3.8475,-3.9427,-4.0301,-4.0906,-4.1003,-4.0945,-4.0275,-3.8652,-3.7773,-3.7598,-3.8379,-3.8347,-3.8694,-3.9687,-4.0244,-4.0243,-3.9496,-3.948,-3.9066,-3.817,-3.8913,-3.9431,-3.9636,-4.0236,-4.0645,-4.0831,-4.0777,-4.0685,-4.0513,-3.8861,-3.8067,-3.7898,-3.6363,-3.571,-3.5713,-3.5547,-3.4546,-3.3083,-3.2866,-3.1742,-3.0273,-3.0371,-3.0346,-3.0269,0.0,0.0,0.0,0.0,0.0,0.0,0.0,0.0,0.0,0.0,0.0,0.0,0.0,0.0,0.0,0.0,0.0,0.0,-2.8139,-2.8174,-2.908,-3.1231,-3.0756,-3.1072,-3.2372,-3.1948,-3.2083,-3.2891,-3.2891,-3.2737,-3.2391,-3.2391,-3.266,-3.3141,-3.3141,-3.3833,-3.4968,-3.4968,-3.5173,-3.55,-3.55,-3.5192,-3.4641,-3.3776,-3.3064,-3.2558,-3.2699,-3.1968,0.0,0.0,-3.1564,-3.1679,-3.15,-3.1251,-3.0674,-2.8961,-2.8012,0.0,-2.6415,-2.654,0.0,0.0,-2.8627,-2.9904,-3.0639,-3.1902,-3.3173,-3.4074,-3.5303,-3.6601,-3.7919,-3.8327,-3.8882,0.0,-3.9831,-3.9602,-4.0103,-3.9787,-3.9249,-3.8561,-3.7772,-3.7637,-3.8516,-3.8481,-3.9021,-4.0547,-4.076,-4.0645,-4.0315,-4.0291,-4.0081,-3.9638,-3.9538,-3.9742,-4.0287,-4.0096,-4.0252,-4.0797,-4.0731,-4.0697,-4.0639,-3.8839,-3.7501,-3.6543,-3.5926,-3.5631,-3.5588,-3.5544,-3.4826,-3.3726,-3.3673,-3.291,-3.1795,-3.1327,-3.0846,-3.0462,0.0,0.0,0.0,0.0,0.0,0.0,0.0,0.0,0.0,0.0,0.0,0.0,0.0,0.0,0.0,0.0,0.0,0.0,0.0,-2.7878,-2.8743,-3.0784,-3.0409,-3.0796,-3.2214,-3.2101,-3.2429,-3.3256,-3.3506,-3.3487,-3.3256,-3.3006,-3.3372,-3.4186,-3.3987,-3.4506,-3.5541,-3.5546,-3.5564,-3.5525,-3.5264,-3.4654,-3.3754,-3.2371,-3.0972,-2.9858,-3.0671,-3.0138,0.0,0.0,-3.002,-3.0316,-3.0142,-3.0124,-2.9934,-2.8706,-2.8078,-2.7599,-2.6979,0.0,0.0,-2.8333,-3.0292,-3.2221,-3.2524,-3.4119,-3.5813,-3.6746,-3.7485,-3.8314,-3.9499,-3.8978,0.0,-3.9902,-3.9252,-3.8828,-3.9462,-3.9036,-3.8594,-3.8397,-3.769,-3.7471,-3.8095,-3.8282,-3.9138,-4.1011,-4.0883,-4.0738,-4.077,-4.0738,-4.0696,-4.0655,-4.0024,-4.002,-4.0699,-4.0045,-4.0045,-4.0718,-4.0672,-4.0636,-4.0591,-3.9054,-3.743,-3.5834,-3.5886,-3.5752,-3.55,-3.55,-3.4988,-3.4205,-3.4205,-3.3667,-3.2852,-3.2526,-3.1833,-3.1173,0.0,0.0,0.0,0.0,0.0,0.0,0.0,0.0,0.0,0.0,0.0,0.0,0.0,0.0,0.0,0.0,0.0,0.0,0.0,-2.698,-2.7351,-2.8268,-2.8903,-2.9663,-3.0544,-3.2072,-3.3295,-3.4167,-3.5007,-3.4988,-3.4148,-3.3295,-3.3372,-3.4173,-3.345,-3.4047,-3.5591,-3.5675,-3.5696,-3.5612,-3.4709,-3.3853,-3.2842,-3.0213,-2.8738,-2.8161,-2.892,0.0,0.0,0.0,-2.7577,-2.7234,-2.8838,-2.9324,0.0,-2.9282,-2.8112,0.0,0.0,0.0,-2.8271,-2.8989,-3.1131,-3.3272,-3.4138,-3.6324,-3.8452,-3.9392,-3.9618,-3.9637,-3.9694,-3.8931,-3.8303,-3.8272,-3.8886,-3.9384,-3.9403,-3.9389,-3.9107,-3.8397,-3.7543,-3.7027,0.0,-3.7801,-3.9043,-4.0877,-4.071,-4.0574,-4.0697,-4.0575,-4.0512,-4.0504,-4.0485,-4.0485,-4.0512,-4.0485,-4.0485,-4.0512,-4.0504,-4.0504,-4.0485,-3.9631,-3.8315,-3.6654,-3.6661,-3.6219,-3.55,-3.55,-3.4988,-3.4205,-3.4205,-3.3667,-3.3006,-3.3821,-3.3564,-3.2833,0.0,0.0,0.0,0.0,0.0,0.0,0.0,0.0,0.0,0.0,0.0,0.0,0.0,0.0,0.0,0.0,0.0,0.0,0.0,-2.6971,-2.7334,-2.8164,-2.8371,-2.8845,-2.9626,-3.0698,-3.1688,-3.2617,-3.3437,-3.375,-3.3522,-3.3231,-3.3251,-3.3527,-3.3278,-3.3802,-3.4832,-3.4279,-3.404,-3.3958,-3.3064,-3.1841,-3.042,-2.8974,-2.7549,-2.6378,0.0,0.0,0.0,0.0,0.0,0.0,-2.659,0.0,0.0,-2.7597,0.0,0.0,0.0,0.0,-3.1674,-3.2449,-3.4587,-3.6696,-3.7529,-3.8475,-3.908,-3.8831,-3.7921,-3.6973,-3.6317,-3.5931,-3.6033,-3.7038,-3.743,-3.8009,-3.9173,-3.8877,-3.826,-3.7453,-3.7657,0.0,0.0,0.0,0.0,-3.9991,-4.0331,-4.0559,-4.0692,-4.0581,-4.0496,-4.0496,-4.0496,-4.0496,-4.0496,-4.0496,-4.0496,-4.0496,-4.0496,-4.0227,-3.9688,-3.9419,-3.8661,-3.7526,-3.6942,-3.6538,-3.625,-3.5712,-3.5327,-3.5064,-3.5064,-3.4885,-3.4654,-3.4949,-3.4885,-3.4538,0.0,0.0,0.0,0.0,0.0,0.0,0.0,0.0,0.0,0.0,0.0,0.0,0.0,0.0,0.0,0.0,0.0,0.0,0.0,0.0,-2.6775,-2.7286,-2.7546,-2.7871,-2.833,-2.9447,-3.0289,-3.0877,-3.1717,-3.219,-3.2253,-3.1945,-3.1965,-3.2256,-3.1999,-3.2344,-3.3106,-3.2603,-3.2381,-3.2301,-3.1398,-3.018,-2.8778,-2.7607,-2.6488,0.0,0.0,0.0,0.0,0.0,0.0,0.0,0.0,0.0,0.0,0.0,0.0,0.0,0.0,-3.252,-3.4347,-3.5132,-3.6987,-3.8695,-3.8914,-3.9034,-3.8773,-3.7644,-3.6317,-3.5079,-3.4115,-3.3655,-3.3848,-3.5123,-3.5334,-3.6045,-3.8084,-3.7932,-3.7635,-3.7751,-3.802,0.0,0.0,0.0,0.0,-3.9917,-4.0301,-4.053,-4.063,-4.0545,-4.0496,-4.0496,-4.0496,-4.0496,-4.0496,-4.0496,-4.0496,-4.0496,-4.0496,-4.0227,-3.9727,-3.9727,-3.9265,-3.843,-3.7873,-3.745,-3.7123,-3.6615,-3.6385,-3.6365,-3.6058,-3.5923,-3.5885,-3.5615,-3.55,-3.5423,0.0,0.0,0.0,0.0,0.0,0.0,0.0,0.0,0.0,0.0,0.0,0.0,0.0,0.0,0.0,0.0,0.0,0.0,0.0,0.0,0.0,-2.5644,-2.6392,-2.6782,-2.6662,-2.83,-2.9135,-2.9076,-3.0016,-3.0481,-3.0464,-2.9632,-2.969,-3.0448,-2.9753,-2.9892,-3.065,-3.0739,-3.0762,-3.0683,-2.9752,-2.8844,-2.7887,-2.6167,0.0,0.0,0.0,0.0,0.0,0.0,0.0,0.0,0.0,0.0,0.0,0.0,0.0,-3.2461,-3.3359,-3.4813,-3.627,-3.6956,-3.8283,-3.9195,-3.8371,-3.8105,-3.7565,-3.5983,-3.4843,-3.3886,0.0,0.0,-3.1929,-3.2814,-3.3045,-3.3987,-3.6538,-3.6885,-3.7507,0.0,0.0,0.0,0.0,0.0,0.0,-4.0751,0.0,-4.0593,-4.0631,-4.0593,-4.0573,-4.0573,-4.0516,-4.0496,-4.0496,-4.0496,-4.0496,-4.0496,-4.0554,-4.0535,-4.0496,-4.0554,-4.0131,-3.9361,-3.9323,-3.8834,-3.8065,-3.8027,-3.8007,-3.7911,-3.7084,-3.6769,-3.6673,-3.5904,-3.5596,-3.5558,0.0,0.0,0.0,0.0,0.0,0.0,0.0,0.0,0.0,0.0,0.0,0.0,0.0,0.0,0.0,0.0,0.0,0.0,0.0,0.0,0.0,0.0,0.0,0.0,0.0,0.0,0.0,0.0,0.0,-2.8832,-2.8876,-2.8662,-2.8662,-2.8876,-2.8687,-2.908,-2.9841,-2.9218,-2.8965,-2.8887,0.0,-2.7127,-2.6287,0.0,0.0,0.0,0.0,0.0,0.0,0.0,0.0,0.0,0.0,0.0,-2.7832,0.0,0.0,-3.3555,-3.5723,-3.7489,-3.8753,-3.8905,-3.917,-3.9199,-3.8377,-3.6686,-3.5016,-3.4007,-3.2089,-3.0503,0.0,0.0,0.0,-3.3526,-3.493,0.0,-3.9161,-3.9534,0.0,0.0,0.0,-4.0835,-4.0835,-4.1623,0.0,0.0,-4.184,-4.1758,-4.2393,-4.1816,-4.147,-4.147,-4.0843,-4.0496,-4.0496,-4.0496,-4.0496,-4.0516,-4.1162,-4.1123,-4.0516,-4.1162,-4.1008,-4.0169,-3.9554,-3.9169,-3.8911,-3.8277,-3.8007,-3.7988,-3.7757,-3.768,-3.7642,-3.745,-3.6949,-3.6385,0.0,0.0,0.0,0.0,0.0,0.0,0.0,0.0,0.0,0.0,0.0,0.0,0.0,0.0,0.0,0.0,0.0,0.0,0.0,0.0,0.0,0.0,0.0,0.0,0.0,0.0,0.0,0.0,0.0,0.0,0.0,-2.7168,-2.7168,-2.7168,-2.7168,-2.7422,-2.7851,-2.7363,0.0,0.0,0.0,0.0,0.0,0.0,0.0,0.0,0.0,0.0,0.0,0.0,0.0,-2.6484,-2.7754,-2.8672,-2.9805,-3.2519,0.0,-3.6094,-3.7949,-3.9295,-4.0178,-4.0147,-3.9737,-3.8942,-3.7358,-3.5292,-3.3244,-3.1666,-3.0216,0.0,0.0,0.0,0.0,0.0,0.0,0.0,-3.8411,-3.9161,-3.9815,0.0,-4.1508,0.0,-4.2335,-4.2816,-4.3258,0.0,-4.2854,-4.2431,-4.2527,-4.2066,-4.1574,-4.1078,-4.0691,-4.0496,-4.0496,-4.0873,-4.1066,-4.1085,-4.195,-4.2104,-4.1643,-4.1758,-4.1527,-4.1027,0.0,-3.9823,-3.9785,-3.9304,-3.9104,-3.9065,-3.87,-3.8565,-3.8527,-3.8142,-3.77,-3.7276,0.0,0.0,0.0,0.0,0.0,0.0,0.0,0.0,0.0,0.0,0.0,0.0,0.0,0.0,0.0,0.0,0.0,0.0,0.0,0.0,0.0,0.0,0.0,0.0,0.0,0.0,0.0,0.0,0.0,0.0,0.0,0.0,0.0,0.0,0.0,0.0,0.0,0.0,0.0,0.0,0.0,0.0,0.0,0.0,0.0,0.0,0.0,0.0,0.0,0.0,-2.707,-2.748,-2.9219,-3.0898,-3.2578,-3.4492,-3.6641,-3.8672,-3.9766,-4.043,-4.0797,-4.0797,-3.9871,-3.8315,-3.5885,-3.3814,-3.1775,-2.9569,0.0,0.0,-2.9223,0.0,-2.9871,-3.1737,0.0,-3.3218,-3.6565,-3.77,-3.9123,-4.1673,-4.1962,-4.2354,-4.3335,-4.3431,-4.372,-4.4412,-4.3835,-4.3104,-4.2335,-4.2077,-4.1417,-4.0196,-4.0462,-4.058,-4.0496,-4.1258,-4.17,-4.1808,-4.2681,-4.3104,-4.3085,-4.2431,-4.2,-4.175,0.0,0.0,-4.0496,-4.0496,-4.0496,-4.0439,-3.9727,-3.9457,-3.9381,-3.8604,-3.8257,-3.8161,0.0,0.0,0.0,0.0,0.0,0.0,0.0,0.0,0.0,0.0,-2.6152,-2.5703,0.0,0.0,0.0,0.0,0.0,0.0,0.0,0.0,0.0,0.0,0.0,0.0,0.0,0.0,0.0,0.0,0.0,0.0,0.0,0.0,0.0,0.0,0.0,0.0,0.0,0.0,0.0,0.0,0.0,0.0,0.0,0.0,0.0,0.0,0.0,0.0,0.0,0.0,-2.748,-2.8379,-3.0117,-3.1387,-3.2812,-3.5937,-3.7168,-3.8027,-4.0351,-4.09,-4.0797,-4.0797,-3.8966,-3.668,-3.4834,-3.2012,0.0,0.0,0.0,-2.8525,-2.9923,-3.0173,0.0,-3.3372,0.0,0.0,0.0,0.0,-4.0008,0.0,0.0,0.0,0.0,0.0,0.0,0.0,0.0,-4.5094,-4.496,-4.3624,-4.2126,-4.0479,-4.091,-4.0958,-4.0496,-4.065,-4.1085,-4.1808,-4.2681,-4.3104,-4.3124,-4.3624,-4.3104,-4.1788,0.0,0.0,-4.0496,-4.0496,-4.0496,-4.0496,-4.0342,-4.0285,-4.0265,-4.0131,-3.965,-3.9073,0.0,0.0,0.0,0.0,0.0,0.0,0.0,-2.668,-2.6699,-2.7559,-2.7305,-2.6875,-2.6426,-2.5977,0.0,0.0,0.0,0.0,0.0,0.0,0.0,0.0,0.0,0.0,0.0,0.0,0.0,0.0,0.0,0.0,0.0,0.0,0.0,0.0,0.0,0.0,0.0,0.0,0.0,0.0,0.0,0.0,0.0,0.0,0.0,0.0,0.0,0.0,0.0,0.0,-2.7578,-2.8594,-3.0351,-3.2109,-3.4004,-3.6543,-3.8262,-3.9687,-4.1367,-4.1642,-4.1389,-4.0964,-3.8759,-3.6135,-3.4007,0.0,0.0,0.0,0.0,-2.8909,-3.0173,0.0,0.0,0.0,0.0,0.0,0.0,0.0,0.0,0.0,0.0,0.0,0.0,0.0,0.0,0.0,0.0,0.0,-4.4355,-4.2766,-4.1599,-4.0928,-4.1438,-4.131,-4.0508,-4.1824,-4.247,-4.2489,-4.3778,-4.4393,-4.4393,-4.4335,-4.3855,-4.3085,-4.2662,0.0,-4.1816,-4.1354,-4.1078,-4.0879,-4.0457,-4.0285,-4.0285,-4.0285,-4.0046,-3.9738,0.0,0.0,0.0,0.0,0.0,0.0,0.0,-2.7441,-2.7383,-2.8437,-2.8418,-2.8047,-2.7344,-2.6504,-2.5898,0.0,0.0,0.0,0.0,0.0,0.0,0.0,0.0,0.0,0.0,0.0,0.0,0.0,0.0,0.0,0.0,0.0,0.0,0.0,0.0,0.0,0.0,0.0,0.0,0.0,0.0,0.0,0.0,0.0,0.0,0.0,0.0,0.0,0.0,0.0,-2.7305,-2.8262,-2.9629,-3.1953,-3.4492,-3.623,-3.8594,-4.082,-4.1641,-4.1976,-4.186,-4.0871,-3.8512,-3.5827,-3.3449,-3.1468,0.0,0.0,0.0,0.0,0.0,0.0,0.0,0.0,0.0,0.0,0.0,0.0,0.0,0.0,0.0,0.0,0.0,0.0,0.0,0.0,0.0,0.0,-4.3316,-4.1868,-4.1191,-4.1434,-4.1877,-4.1646,-4.0685,-4.2906,-4.372,-4.3124,-4.4533,-4.5349,-4.5575,-4.4821,-4.4407,-4.4259,-4.3624,0.0,0.0,-4.2164,-4.1657,-4.1144,-4.0506,-4.0363,-4.0477,-4.0125,-4.0106,-4.027,0.0,0.0,0.0,0.0,0.0,0.0,0.0,-2.7051,-2.7598,-2.9258,-2.8789,-2.8262,-2.8184,-2.7402,-2.6562,0.0,0.0,0.0,0.0,0.0,0.0,0.0,0.0,0.0,0.0,0.0,0.0,0.0,0.0,0.0,0.0,0.0,0.0,0.0,0.0,0.0,0.0,0.0,0.0,0.0,0.0,0.0,0.0,0.0,0.0,0.0,0.0,0.0,0.0,0.0,0.0,-2.7148,-2.7305,-2.9687,-3.2754,-3.4453,0.0,0.0,-3.9883,-4.1095,-4.1723,-4.0128,-3.7655,-3.5135,-3.3314,0.0,0.0,0.0,-2.9107,-2.9377,0.0,0.0,0.0,0.0,0.0,0.0,0.0,0.0,0.0,0.0,0.0,0.0,0.0,0.0,0.0,0.0,0.0,0.0,0.0,-4.2609,-4.1964,-4.1945,-4.2039,-4.1828,-4.1235,-4.2551,-4.3162,-4.3104,-4.3694,-4.4537,-4.5586,-4.5197,-4.4757,-4.4297,0.0,0.0,0.0,-4.2171,-4.1803,-4.0837,-4.075,-4.1184,-4.1643,-4.017,-4.0113,-4.063,0.0,0.0,0.0,0.0,0.0,0.0,-2.7578,-2.7344,-2.7441,-2.8652,-2.8965,-2.8672,-2.7637,-2.7676,-2.7226,0.0,0.0,0.0,0.0,0.0,0.0,0.0,0.0,0.0,0.0,0.0,0.0,0.0,0.0,0.0,0.0,0.0,0.0,0.0,0.0,0.0,0.0,0.0,0.0,0.0,0.0,0.0,0.0,0.0,0.0,0.0,0.0,0.0,0.0,0.0,0.0,0.0,-2.6211,-2.7539,0.0,0.0,-3.5391,-3.8125,-3.9512,-4.0978,-4.1704,-4.0022,-3.7147,-3.4391,-3.3179,0.0,0.0,-2.9775,-2.989,-2.9981,-3.0346,0.0,0.0,0.0,0.0,0.0,0.0,0.0,0.0,0.0,0.0,0.0,0.0,0.0,0.0,0.0,0.0,0.0,0.0,-4.3154,-4.2511,-4.2478,-4.2988,-4.2739,-4.173,-4.3236,-4.374,-4.3235,-4.3938,-4.4531,-4.5,-4.5074,-4.4989,-4.4747,0.0,0.0,0.0,-4.1906,-4.1139,-4.0506,-3.9969,-3.9969,-4.0175,-3.9532,-3.9495,-3.9751,0.0,0.0,0.0,0.0,0.0,-2.6171,-2.7695,-2.7383,-2.7305,-2.8184,-2.8828,-2.875,-2.7519,-2.7695,-2.7422,-2.6191,0.0,0.0,0.0,0.0,0.0,0.0,0.0,0.0,0.0,0.0,0.0,0.0,0.0,0.0,0.0,0.0,0.0,0.0,0.0,0.0,0.0,0.0,0.0,0.0,0.0,0.0,0.0,0.0,0.0,0.0,0.0,0.0,0.0,0.0,0.0,0.0,0.0,0.0,0.0,0.0,-3.3652,-3.6797,-3.8006,-3.9815,-4.0941,-3.9233,-3.6288,-3.3641,0.0,0.0,-2.9357,-3.0212,-3.0404,-3.0404,-3.0404,0.0,0.0,0.0,0.0,0.0,0.0,0.0,0.0,0.0,0.0,0.0,0.0,0.0,0.0,0.0,0.0,0.0,0.0,-4.351,-4.3005,-4.3005,-4.3419,-4.3187,-4.2248,-4.3798,-4.4165,-4.3309,-4.406,-4.4487,-4.4593,-4.4732,-4.4842,-4.4916,0.0,0.0,0.0,-4.1681,-4.0774,-4.0187,-3.9579,-3.9472,-3.9639,-3.9156,-3.9119,-3.9328,0.0,0.0,0.0,0.0,0.0,0.0,-2.6875,-2.7012,-2.7305,-2.8184,-2.8301,-2.8301,-2.8281,-2.7519,-2.7012,-2.6992,0.0,0.0,0.0,0.0,0.0,0.0,0.0,0.0,0.0,0.0,-2.5308,-2.5308,-2.5308,0.0,0.0,0.0,0.0,0.0,0.0,0.0,0.0,0.0,0.0,0.0,0.0,0.0,0.0,0.0,0.0,0.0,0.0,0.0,0.0,0.0,0.0,0.0,0.0,0.0,0.0,0.0,-3.1367,-3.4726,-3.4664,-3.7086,-3.919,-3.7371,-3.49,-3.291,0.0,0.0,-2.9357,-3.0212,-3.0404,-3.0404,-3.0404,0.0,0.0,0.0,0.0,0.0,0.0,0.0,0.0,0.0,0.0,0.0,0.0,0.0,0.0,0.0,0.0,0.0,0.0,-4.3677,-4.3496,-4.3496,-4.3036,-4.2805,-4.2783,-4.3979,-4.4165,-4.3309,-4.3783,-4.4204,-4.458,-4.419,-4.4219,0.0,0.0,0.0,0.0,-4.16,-4.0941,-3.9898,-3.9898,-4.0377,-4.0891,-3.9294,-3.9203,-3.9787,0.0,0.0,0.0,0.0,0.0,0.0,0.0,-2.6072,-2.6211,-2.6484,-2.7031,-2.7382,-2.7355,-2.7099,-2.6923,-2.6923,0.0,0.0,0.0,0.0,0.0,0.0,0.0,0.0,0.0,0.0,-2.5308,-2.5308,-2.5308,-2.5308,-2.533,0.0,0.0,0.0,0.0,0.0,0.0,0.0,0.0,0.0,0.0,0.0,0.0,0.0,0.0,0.0,0.0,0.0,0.0,0.0,0.0,0.0,0.0,0.0,0.0,0.0,0.0,0.0,-3.1858,-3.3585,-3.4931,-3.3719,-3.1839,-3.0448,-3.1058,0.0,-2.8679,-3.0115,-3.0404,-3.0404,-3.0404,0.0,0.0,0.0,0.0,0.0,0.0,0.0,0.0,0.0,0.0,0.0,0.0,0.0,0.0,0.0,0.0,0.0,0.0,-4.2569,-4.2671,-4.2671,-4.308,-4.2758,-4.1657,-4.3109,-4.3428,-4.2619,-4.3305,-4.3432,-4.3039,-4.3698,0.0,0.0,0.0,0.0,0.0,-3.9941,-3.9399,-3.9074,-3.9074,-3.9239,-3.9405,-3.8891,-3.8854,-3.9038,0.0,0.0,0.0,0.0,0.0,0.0,0.0,-2.5601,-2.5634,-2.566,-2.6129,-2.6576,-2.6874,-2.6618,-2.6535,-2.6833,0.0,0.0,0.0,0.0,0.0,0.0,0.0,0.0,0.0,-2.5308,-2.5308,-2.5308,-2.5308,-2.5308,-2.5308,-2.5375,-2.5418,0.0,0.0,0.0,0.0,0.0,0.0,0.0,0.0,0.0,-2.5703,0.0,0.0,0.0,0.0,0.0,0.0,0.0,0.0,0.0,0.0,0.0,0.0,0.0,0.0,0.0,0.0,-3.0972,-3.2078,-3.1428,-2.9944,0.0,0.0,0.0,-2.8371,-3.0058,-3.0404,-3.0404,-3.0404,0.0,0.0,0.0,0.0,0.0,0.0,0.0,0.0,0.0,0.0,0.0,0.0,0.0,0.0,0.0,0.0,0.0,0.0,0.0,-4.1717,-4.1405,-4.247,-4.2415,-4.1113,-4.2396,-4.28,-4.2304,-4.28,-4.2782,-4.2304,-4.2712,0.0,0.0,0.0,0.0,0.0,-3.9108,-3.8707,-3.8707,-3.8707,-3.8707,-3.8707,-3.8707,-3.8707,-3.8707,0.0,0.0,0.0,0.0,0.0,0.0,0.0,0.0,-2.5511,-2.5575,-2.5599,-2.5893,-2.6709,-2.6065,-2.5896,-2.6646,0.0,0.0,0.0,0.0,0.0,0.0,0.0,0.0,-2.5308,-2.5308,-2.5308,-2.5308,-2.5365,-2.5385,-2.5404,-2.5517,-2.5549,-2.5533,-2.5554,-2.5576,-2.5602,-2.5662,-2.5703,-2.5703,-2.5703,-2.5703,0.0,0.0,0.0,0.0,0.0,0.0,0.0,0.0,0.0,0.0,0.0,0.0,0.0,0.0,0.0,0.0,0.0,0.0,0.0,0.0,0.0,0.0,0.0,0.0,0.0,0.0,0.0,0.0,0.0,0.0,0.0,0.0,0.0,0.0,0.0,0.0,0.0,0.0,0.0,0.0,0.0,0.0,0.0,0.0,0.0,0.0,0.0,0.0,-4.0726,-3.9827,-4.1313,-4.1754,-4.093,-4.1791,-4.2194,-4.2139,-4.2194,-4.2176,-4.2103,-4.1407,0.0,0.0,0.0,0.0,0.0,-3.9019,-3.8707,-3.8707,-3.8707,-3.8707,-3.8707,-3.8707,-3.8707,-3.8707,0.0,0.0,0.0,0.0,0.0,0.0,0.0,0.0,0.0,0.0,-2.5564,-2.5637,-2.5734,-2.562,-2.5586,0.0,0.0,0.0,0.0,0.0,0.0,0.0,0.0,0.0,-2.5308,-2.5308,-2.5308,-2.5308,-2.5962,-2.6288,-2.6313,-2.6997,-2.7122,-2.6742,-2.5783,-2.5432,-2.5531,-2.5602,-2.5644,-2.5703,-2.5703,-2.5703,0.0,0.0,0.0,0.0,-2.5703,-2.5703,0.0,0.0,0.0,0.0,0.0,0.0,0.0,0.0,-2.5588,0.0,0.0,0.0,0.0,0.0,0.0,0.0,0.0,0.0,0.0,0.0,0.0,0.0,0.0,0.0,0.0,0.0,0.0,0.0,0.0,0.0,0.0,0.0,0.0,0.0,0.0,0.0,0.0,0.0,0.0,0.0,0.0,0.0,-4.0435,-3.9038,-3.9955,-4.0084,-3.9276,-4.0655,-4.1075,-4.0469,-4.1093,-4.1056,-4.0469,-4.091,0.0,0.0,0.0,0.0,-3.8964,-3.8781,-3.8707,-3.8707,-3.8707,-3.8707,-3.8707,-3.8707,-3.8707,-3.8707,0.0,0.0,0.0,0.0,0.0,0.0,0.0,0.0,0.0,0.0,0.0,0.0,0.0,0.0,0.0,0.0,0.0,0.0,0.0,0.0,0.0,0.0,0.0,-2.5308,-2.5308,-2.5308,-2.5308,-2.5308,-2.5769,-2.6212,-2.6601,-2.6678,-2.6771,-2.688,-2.5851,-2.5437,-2.5508,-2.56,-2.5644,-2.5664,-2.5684,0.0,0.0,0.0,0.0,0.0,-2.5703,-2.5703,0.0,-2.5703,-2.5703,-2.5703,0.0,0.0,0.0,0.0,-2.5535,0.0,0.0,0.0,0.0,0.0,0.0,0.0,0.0,0.0,0.0,0.0,0.0,0.0,0.0,0.0,0.0,0.0,0.0,0.0,0.0,0.0,0.0,0.0,0.0,0.0,0.0,0.0,0.0,0.0,0.0,0.0,0.0,0.0,-3.9591,-3.8726,-3.9129,-3.9148,-3.8707,-3.9937,-4.0322,-3.9916,-4.0341,-4.0322,-3.99,-3.9974,0.0,0.0,0.0,0.0,-3.8707,-3.8707,-3.8707,-3.8707,-3.8707,-3.8707,-3.8707,-3.8707,-3.8707,-3.8707,0.0,0.0,0.0,0.0,0.0,0.0,0.0,0.0,0.0,0.0,0.0,0.0,0.0,0.0,0.0,0.0,0.0,0.0,0.0,0.0,0.0,0.0,0.0,-2.5308,-2.5308,-2.5269,-2.5259,-2.5259,-2.5482,-2.5987,-2.6743,-2.6123,-2.6114,-2.6587,-2.6091,-2.5725,-2.5485,-2.5595,-2.5618,-2.5582,-2.5664,0.0,0.0,0.0,0.0,0.0,0.0,0.0,0.0,-2.5683,-2.5683,-2.5703,-2.5683,0.0,0.0,0.0,0.0,0.0,0.0,0.0,0.0,0.0,0.0,0.0,0.0,0.0,0.0,0.0,0.0,0.0,0.0,0.0,0.0,0.0,0.0,0.0,0.0,0.0,0.0,0.0,0.0,0.0,0.0,0.0,0.0,0.0,0.0,0.0,0.0,0.0,0.0,-3.8707,-3.8707,-3.8707,-3.8707,-3.9386,-3.9717,-3.9717,-3.9717,-3.9717,-3.968,-3.9019,-3.8707,0.0,0.0,0.0,-3.8707,-3.8707,-3.8707,-3.8707,-3.8707,-3.8707,-3.8707,-3.8707,-3.8707,-3.8707,0.0,0.0,0.0,0.0,0.0,0.0,0.0,0.0,0.0,0.0,0.0,0.0,0.0,0.0,0.0,0.0,0.0,0.0,0.0,0.0,0.0,-2.5308,-2.5308,-2.5308,-2.5308,-2.5122,-2.504,-2.504,-2.6289,-2.7082,-2.7459,-2.8013,-2.7662,-2.6621,-2.7244,-2.6718,-2.533,-2.5346,-2.5429,-2.5532,0.0,0.0,0.0,0.0,0.0,0.0,0.0,0.0,0.0,-2.5628,-2.5659,-2.5683,-2.5634,0.0,0.0,0.0,0.0,0.0,-2.5317,-2.6497,0.0,0.0,0.0,0.0,0.0,0.0,0.0,0.0,0.0,0.0,0.0,0.0,0.0,0.0,0.0,0.0,0.0,0.0,0.0,0.0,0.0,0.0,0.0,0.0,0.0,0.0,0.0,0.0,0.0,0.0,0.0,-3.8726,-3.8707,-3.8707,-3.8707,-3.8817,-3.8891,-3.8891,-3.8891,-3.8891,-3.8891,-3.8762,-3.8707,0.0,0.0,-3.8707,-3.8707,-3.8707,-3.8707,-3.8707,-3.8707,-3.8707,-3.8707,-3.8707,-3.8707,-3.8707,0.0,0.0,0.0,0.0,0.0,0.0,0.0,0.0,0.0,0.0,0.0,0.0,0.0,0.0,0.0,0.0,0.0,0.0,0.0,0.0,-2.5308,-2.5308,-2.5203,-2.5198,-2.5303,-2.5037,-2.4936,-2.5004,-2.5608,-2.624,-2.6906,-2.7541,-2.7132,-2.5923,-2.6314,-2.6058,-2.5308,-2.5308,-2.5352,-2.5441,0.0,0.0,0.0,0.0,0.0,0.0,0.0,0.0,0.0,0.0,-2.5599,-2.5598,-2.5601,0.0,0.0,0.0,0.0,0.0,-2.5308,-2.6231,-2.7101,0.0,0.0,0.0,0.0,0.0,0.0,0.0,0.0,0.0,0.0,0.0,0.0,0.0,0.0,0.0,0.0,0.0,0.0,0.0,0.0,0.0,0.0,0.0,0.0,0.0,0.0,0.0,0.0,0.0,0.0,0.0,-3.8707,-3.8707,-3.8707,-3.8707,-3.8707,-3.8707,-3.8707,-3.8707,-3.8707,-3.8707,-3.8707,-3.8707,0.0,-3.8707,-3.8707,-3.8707,-3.8707,-3.8707,-3.8707,-3.8707,-3.8707,-3.8707,-3.8707,-3.8719,0.0,0.0,0.0,0.0,0.0,0.0,0.0,0.0,0.0,0.0,0.0,0.0,0.0,0.0,0.0,0.0,0.0,0.0,0.0,0.0,-2.5308,-2.5308,-2.5105,-2.5094,-2.5303,-2.4923,-2.4806,-2.4949,-2.4945,-2.5401,-2.6296,-2.688,-2.6476,-2.5306,-2.5572,-2.5543,-2.5308,-2.5308,-2.5326,-2.5376,0.0,0.0,0.0,0.0,0.0,0.0,0.0,0.0,0.0,0.0,0.0,0.0,0.0,0.0,0.0,0.0,-2.5348,-2.5308,-2.5308,-2.5942,-2.6544,0.0,0.0,0.0,0.0,0.0,0.0,0.0,0.0,0.0,0.0,0.0,0.0,0.0,0.0,0.0,0.0,0.0,0.0,0.0,0.0,0.0,0.0,0.0,0.0,0.0,0.0,0.0,0.0,0.0,0.0,0.0,-3.8707,-3.8707,-3.8707,-3.8505,-3.8505,-3.8707,-3.8707,-3.8707,-3.8707,-3.8707,-3.8707,-3.8707,-3.8707,-3.8707,-3.8707,-3.8707,-3.8707,-3.8707,-3.8707,-3.8707,-3.8707,-3.8707,-3.8707,-3.8735,0.0,0.0,0.0,0.0,0.0,0.0,0.0,0.0,0.0,0.0,0.0,0.0,0.0,0.0,0.0,0.0,0.0,0.0,0.0,0.0,-2.5308,-2.5308,-2.5105,-2.5094,-2.5303,-2.4792,-2.4615,-2.4799,-2.5188,-2.5643,-2.6232,-2.7141,-2.676,-2.5352,-2.6408,-2.6299,-2.5308,-2.5308,-2.5293,-2.5303,-2.5303,0.0,0.0,0.0,0.0,0.0,0.0,0.0,0.0,0.0,0.0,0.0,0.0,0.0,0.0,0.0,-2.5293,-2.5308,-2.5308,-2.5942,-2.6409,-2.5596,0.0,0.0,0.0,0.0,0.0,0.0,0.0,0.0,0.0,0.0,0.0,0.0,0.0,0.0,0.0,0.0,0.0,0.0,0.0,0.0,0.0,0.0,0.0,0.0,0.0,0.0,0.0,0.0,0.0,0.0,0.0,-3.8707,-3.8707,-3.797,-3.797,-3.8707,-3.8707,-3.8707,-3.8707,-3.8707,-3.8707,-3.8707,-3.8707,-3.8707,-3.8707,-3.8707,-3.8707,-3.8707,-3.8707,-3.8707,-3.8707,-3.8707,-3.8707,-3.8707,0.0,0.0,0.0,0.0,0.0,0.0,0.0,0.0,0.0,0.0,0.0,0.0,0.0,0.0,0.0,0.0,0.0,0.0,0.0,-2.5308,-2.5308,-2.5308,-2.5105,-2.5094,-2.5303,-2.4896,-2.4662,-2.4607,-2.4768,-2.4938,-2.5145,-2.5542,-2.5519,-2.514,-2.5682,-2.5702,-2.5308,-2.5308,-2.5308,-2.5308,-2.5308,-2.5308,0.0,0.0,0.0,0.0,0.0,0.0,0.0,0.0,0.0,0.0,0.0,0.0,0.0,0.0,0.0,-2.5308,-2.5308,-2.5942,-2.6524,-2.6192,0.0,0.0,0.0,0.0,0.0,0.0,0.0,0.0,0.0,0.0,0.0,0.0,0.0,0.0,0.0,0.0,0.0,0.0,0.0,0.0,0.0,0.0,0.0,0.0,0.0,0.0,0.0,0.0,0.0,0.0,0.0,-3.8193,-3.8707,-3.7915,-3.7658,-3.7936,-3.7441,-3.7202,-3.7202,-3.7202,-3.7477,-3.7936,-3.7936,-3.823,-3.8707,-3.8707,-3.8707,-3.8707,-3.8707,-3.8707,-3.8707,-3.8707,-3.8707,-3.8719,0.0,0.0,0.0,0.0,0.0,0.0,0.0,0.0,0.0,0.0,0.0,0.0,0.0,0.0,0.0,0.0,0.0,0.0,-2.5308,-2.5308,-2.5308,-2.5308,-2.5163,-2.5141,-2.5208,-2.5037,-2.4862,-2.4666,-2.4548,-2.4468,-2.441,-2.4516,-2.491,-2.5492,-2.529,-2.5245,-2.5308,-2.5308,-2.5308,-2.5308,-2.5308,-2.5635,0.0,0.0,0.0,0.0,0.0,0.0,0.0,0.0,0.0,0.0,0.0,0.0,0.0,0.0,0.0,-2.5308,-2.5308,-2.5731,-2.6192,0.0,0.0,0.0,0.0,0.0,0.0,0.0,0.0,0.0,0.0,0.0,0.0,0.0,0.0,0.0,0.0,0.0,0.0,0.0,0.0,0.0,0.0,0.0,0.0,0.0,0.0,0.0,0.0,0.0,0.0,0.0,0.0,-3.7401,-3.7936,-3.711,-3.6707,-3.6688,-3.5899,-3.5827,-3.6436,-3.6342,-3.665,-3.7247,-3.7151,-3.7437,-3.7955,-3.8212,-3.8469,-3.8707,-3.8707,-3.8707,-3.8707,-3.8707,-3.8707,-3.8719,0.0,0.0,0.0,0.0,0.0,0.0,0.0,0.0,0.0,0.0,0.0,0.0,0.0,0.0,0.0,0.0,0.0,0.0,-2.5308,-2.5308,-2.5308,-2.5308,-2.5308,-2.5208,-2.501,-2.5203,-2.5203,-2.5004,-2.4651,-2.4407,-2.419,-2.4402,-2.5236,-2.6529,-2.5473,-2.5106,-2.5308,-2.5308,-2.5308,-2.5308,-2.5308,-2.6346,-2.7813,0.0,0.0,0.0,0.0,0.0,0.0,0.0,0.0,0.0,0.0,0.0,0.0,0.0,-2.5303,-2.5303,-2.5303,-2.5303,0.0,0.0,0.0,0.0,0.0,0.0,0.0,0.0,0.0,0.0,0.0,0.0,0.0,0.0,0.0,0.0,0.0,0.0,0.0,0.0,0.0,0.0,0.0,0.0,0.0,0.0,0.0,0.0,0.0,0.0,0.0,0.0,0.0,0.0,-3.6303,-3.5445,-3.5004,-3.5004,-3.4192,-3.4821,-3.6663,-3.6399,-3.6427,-3.6669,-3.6404,-3.6285,-3.6358,-3.718,-3.7955,-3.8689,-3.8707,-3.8707,-3.8707,-3.8707,-3.8707,-3.8707,0.0,0.0,0.0,0.0,0.0,0.0,0.0,0.0,0.0,0.0,0.0,0.0,0.0,0.0,0.0,0.0,0.0,0.0,-2.5308,-2.5308,-2.5308,-2.5308,-2.5308,-2.5269,-2.5214,-2.5141,-2.5018,-2.4862,-2.462,-2.44,-2.419,-2.4254,-2.4598,-2.5103,-2.4787,-2.4892,-2.5308,-2.5308,-2.5308,-2.5308,-2.5308,-2.6096,-2.7154,0.0,0.0,0.0,0.0,0.0,0.0,0.0,0.0,0.0,0.0,0.0,0.0,-2.5308,-2.5203,-2.5094,-2.5094,0.0,0.0,0.0,0.0,0.0,0.0,0.0,0.0,0.0,0.0,0.0,0.0,0.0,0.0,0.0,0.0,0.0,0.0,0.0,0.0,0.0,0.0,0.0,0.0,0.0,0.0,0.0,0.0,0.0,0.0,0.0,0.0,0.0,0.0,0.0,-3.6285,-3.5445,-3.5004,-3.5004,-3.4192,-3.4099,-3.4666,-3.4759,-3.506,-3.5519,-3.5679,-3.595,-3.6358,-3.718,-3.7639,-3.7915,-3.8487,-3.8707,-3.8707,-3.8707,-3.8707,-3.8707,0.0,0.0,0.0,0.0,0.0,0.0,0.0,0.0,0.0,0.0,0.0,0.0,0.0,0.0,0.0,0.0,0.0,0.0,0.0,-2.5308,-2.5308,-2.5308,-2.5308,-2.5264,-2.5173,-2.5052,-2.4891,-2.4678,-2.4556,-2.4409,-2.419,-2.419,-2.4478,-2.4955,-2.4676,-2.5126,-2.607,-2.5531,-2.5308,-2.5308,-2.5308,-2.5981,-2.6923,0.0,0.0,0.0,0.0,0.0,0.0,0.0,0.0,0.0,0.0,0.0,0.0,-2.5208,-2.5094,-2.4992,-2.4949,0.0,0.0,0.0,0.0,0.0,0.0,0.0,0.0,0.0,0.0,0.0,0.0,0.0,0.0,0.0,0.0,0.0,0.0,0.0,0.0,0.0,0.0,0.0,0.0,0.0,0.0,0.0,0.0,0.0,0.0,0.0,0.0,0.0,0.0,0.0,-3.5293,-3.4798,-3.4509,-3.4509,-3.4027,-3.3807,-3.382,-3.3974,-3.4271,-3.4687,-3.4777,-3.5185,-3.5826,-3.6303,-3.689,-3.7547,-3.8028,-3.8414,-3.8707,-3.8707,-3.8707,-3.8707,0.0,0.0,0.0,0.0,0.0,0.0,0.0,0.0,0.0,0.0,0.0,0.0,0.0,0.0,0.0,0.0,0.0,0.0,0.0,0.0,-2.5308,-2.5308,-2.5274,-2.5198,-2.4991,-2.498,-2.4804,-2.4503,-2.4497,-2.4398,-2.419,-2.419,-2.4691,-2.5533,-2.486,-2.5582,-2.7199,-2.5834,-2.5264,-2.5308,-2.5308,-2.5981,-2.6942,-2.6885,0.0,0.0,0.0,0.0,0.0,0.0,0.0,0.0,0.0,0.0,-2.5248,-2.5046,-2.4986,-2.493,0.0,0.0,0.0,0.0,0.0,0.0,0.0,0.0,0.0,0.0,0.0,0.0,0.0,0.0,0.0,0.0,0.0,0.0,0.0,0.0,0.0,0.0,0.0,0.0,0.0,0.0,0.0,0.0,0.0,0.0,0.0,0.0,0.0,0.0,0.0,0.0,-3.3587,-3.3642,-3.3642,0.0,-3.366,-3.3642,-3.3587,-3.3682,-3.3863,-3.4083,-3.3891,-3.4211,-3.4912,-3.5059,-3.5973,-3.729,-3.7437,-3.7936,-3.8597,-3.8597,-3.8634,-3.8707,0.0,0.0,0.0,0.0,0.0,0.0,0.0,0.0,0.0,0.0,0.0,0.0,0.0,0.0,0.0,0.0,0.0,0.0,0.0,0.0,-2.5308,-2.5308,-2.5152,-2.504,-2.501,-2.4733,-2.4575,-2.4503,-2.4493,-2.4392,-2.419,-2.419,-2.4329,-2.4524,-2.4358,-2.5416,-2.7184,-2.5596,-2.5068,-2.5308,-2.5308,-2.5865,-2.6615,-2.5923,-2.6058,0.0,0.0,0.0,0.0,0.0,0.0,0.0,-2.5308,-2.5198,-2.5065,-2.5016,-2.4811,-2.4596,0.0,0.0,0.0,0.0,0.0,0.0,0.0,0.0,0.0,0.0,0.0,0.0,0.0,0.0,0.0,0.0,0.0,0.0,0.0,0.0,0.0,0.0,0.0,0.0,0.0,0.0,0.0,0.0,0.0,0.0,0.0,0.0,0.0,0.0,0.0,-3.2559,-3.1916,-3.254,-3.254,0.0,-3.2559,-3.254,-3.1929,-3.2797,-3.3199,-3.3294,-3.3639,-3.3899,-3.4156,-3.5477,-3.5844,-3.5665,-3.6997,-3.7603,-3.7768,-3.7768,-3.8157,-3.8707,0.0,0.0,0.0,0.0,0.0,0.0,0.0,0.0,0.0,0.0,0.0,0.0,0.0,0.0,0.0,0.0,0.0,0.0,0.0,0.0,-2.5157,-2.5157,-2.5065,-2.4968,-2.491,-2.4636,-2.4444,-2.4348,-2.4348,-2.4303,-2.419,-2.419,-2.419,-2.419,-2.419,-2.4801,-2.5767,-2.4883,-2.4737,-2.5118,-2.5118,-2.5461,-2.5923,-2.5481,-2.5846,-2.6486,-2.5615,0.0,0.0,0.0,0.0,0.0,0.0,0.0,-2.5451,-2.5366,-2.4936,-2.4478,0.0,0.0,0.0,0.0,0.0,0.0,0.0,0.0,0.0,0.0,0.0,0.0,0.0,0.0,0.0,0.0,0.0,0.0,0.0,0.0,0.0,0.0,0.0,0.0,0.0,0.0,0.0,0.0,0.0,0.0,0.0,0.0,0.0,0.0,-3.1806,-3.1825,-3.1397,-3.1825,-3.1806,-3.1415,-3.1825,-3.1604,-3.0883,-3.2201,-3.281,-3.2847,-3.3519,-3.3807,-3.3862,-3.4743,-3.5073,-3.5096,-3.5973,-3.656,-3.6978,-3.7364,-3.7768,-3.8175,0.0,0.0,0.0,0.0,0.0,0.0,0.0,0.0,0.0,0.0,0.0,0.0,0.0,0.0,0.0,0.0,0.0,0.0,0.0,0.0,0.0,-2.4968,-2.4968,-2.4904,-2.4753,-2.4543,-2.4366,-2.419,-2.419,-2.419,-2.419,-2.419,-2.419,-2.419,-2.419,-2.419,-2.419,-2.419,-2.4466,-2.4898,-2.4911,-2.5071,-2.5308,-2.5308,-2.5846,-2.6505,-2.5846,-2.6115,-2.6787,-2.6511,0.0,0.0,0.0,0.0,-2.5898,-2.5591,-2.5,-2.4419,0.0,0.0,0.0,0.0,0.0,0.0,0.0,0.0,0.0,0.0,0.0,0.0,0.0,0.0,0.0,0.0,0.0,0.0,0.0,0.0,0.0,0.0,0.0,0.0,0.0,0.0,0.0,0.0,0.0,0.0,0.0,0.0,-3.114,-3.0993,-3.1109,-3.114,-3.0993,-3.1109,-3.1109,-3.0993,-3.0993,-3.0705,-3.0246,-3.1574,-3.2252,-3.2436,-3.3238,-3.3678,-3.3807,-3.3954,-3.4307,-3.4821,-3.4949,-3.5518,-3.6376,-3.7052,-3.7474,-3.7804,0.0,0.0,0.0,0.0,0.0,0.0,0.0,0.0,0.0,0.0,0.0,0.0,0.0,0.0,0.0,0.0,0.0,0.0,0.0,0.0,0.0,-2.4828,-2.484,-2.4746,-2.4534,-2.4339,-2.4228,-2.419,-2.419,-2.419,0.0,0.0,-2.419,-2.419,-2.419,-2.419,-2.419,-2.419,-2.4466,-2.4898,-2.4955,-2.5105,-2.5308,-2.5308,-2.5846,-2.6621,-2.6731,-2.7173,-2.7695,-2.7421,-2.7336,0.0,0.0,0.0,0.0,0.0,-2.4467,0.0,0.0,0.0,0.0,0.0,0.0,0.0,0.0,0.0,0.0,0.0,0.0,0.0,0.0,0.0,0.0,0.0,0.0,0.0,0.0,0.0,0.0,0.0,0.0,0.0,0.0,0.0,0.0,0.0,0.0,0.0,0.0,-2.9989,-3.0044,-2.9335,-3.0008,-3.0026,-2.9335,-3.0008,-3.0008,-2.9317,-2.9317,-2.9629,-3.021,-3.043,-3.0907,-3.1617,-3.2412,-3.3151,-3.3844,-3.4546,-3.4491,-3.4027,-3.4729,-3.5518,-3.6303,-3.6413,-3.7331,-3.856,0.0,0.0,0.0,0.0,0.0,0.0,0.0,0.0,0.0,0.0,0.0,0.0,0.0,0.0,0.0,0.0,0.0,0.0,0.0,0.0,0.0,-2.4631,-2.4631,-2.4583,-2.4503,-2.4303,-2.419,-2.419,-2.419,0.0,0.0,-2.419,-2.419,0.0,0.0,-2.419,-2.419,-2.419,-2.4383,-2.4685,-2.483,-2.4987,-2.5204,-2.5802,-2.6563,-2.7332,-2.7467,-2.7892,-2.8364,-2.8089,-2.7935,0.0,0.0,0.0,0.0,0.0,0.0,0.0,0.0,0.0,0.0,0.0,0.0,0.0,0.0,0.0,0.0,0.0,0.0,0.0,0.0,0.0,0.0,0.0,0.0,0.0,0.0,0.0,0.0,0.0,0.0,0.0,0.0,0.0,0.0,0.0,0.0,0.0,-2.9042,-2.9335,-2.9372,-2.9005,-2.9335,-2.9354,-2.9005,-2.9354,-2.9354,-2.9005,-2.9005,-2.9189,-2.9537,-2.9537,-2.9971,-3.0797,-3.2051,-3.2803,-3.3201,-3.3995,-3.4119,-3.3844,-3.4192,-3.4559,-3.4945,-3.5422,-3.634,-3.7422,0.0,0.0,0.0,0.0,0.0,0.0,0.0,0.0,0.0,0.0,0.0,0.0,0.0,0.0,0.0,0.0,0.0,0.0,0.0,0.0,0.0,0.0,0.0,-2.4478,-2.4418,-2.4275,-2.419,-2.419,0.0,0.0,-2.4208,-2.4084,-2.4084,0.0,-2.419,-2.419,0.0,0.0,0.0,0.0,0.0,0.0,0.0,0.0,0.0,-2.7437,-2.7642,0.0,0.0,0.0,0.0,0.0,0.0,0.0,0.0,0.0,0.0,0.0,0.0,0.0,0.0,0.0,0.0,0.0,0.0,0.0,0.0,0.0,0.0,0.0,0.0,0.0,0.0,0.0,0.0,0.0,0.0,0.0,0.0,0.0,0.0,0.0,0.0,0.0,0.0,0.0,0.0,0.0,-2.8987,-2.9005,-2.9005,-2.9005,-2.9005,-2.9005,-2.9005,-2.9005,-2.9005,-2.9005,-2.9005,-2.9005,-2.9005,-2.9005,-2.9335,-2.9959,-3.1372,-3.2216,-3.2656,-3.3256,-3.3623,-3.3807,-3.3807,-3.3917,-3.4192,-3.4784,-3.5555,-3.6413,0.0,0.0,0.0,0.0,0.0,0.0,0.0,0.0,0.0,0.0,0.0,0.0,0.0,0.0,0.0,0.0,0.0,0.0,0.0,0.0,0.0,0.0,0.0,0.0,-2.4218,-2.4218,-2.419,0.0,0.0,0.0,-2.419,-2.3735,-2.3774,-2.419,-2.419,-2.419,-2.419,0.0,0.0,0.0,0.0,0.0,0.0,0.0,0.0,0.0,0.0,0.0,0.0,0.0,0.0,0.0,0.0,0.0,0.0,0.0,0.0,0.0,0.0,0.0,0.0,0.0,0.0,0.0,0.0,0.0,0.0,0.0,0.0,0.0,0.0,0.0,0.0,0.0,0.0,0.0,0.0,0.0,0.0,0.0,0.0,0.0,0.0,0.0,0.0,0.0,0.0,0.0,-2.8968,-2.9005,-2.9005,-2.9005,-2.9005,-2.9005,-2.9005,-2.9005,-2.9005,-2.9005,-2.9005,-2.9005,-2.9005,-2.9005,-2.9023,-2.9115,-2.9971,-3.1201,-3.2601,-3.2656,-3.3109,-3.3807,-3.3807,-3.4284,-3.4949,-3.4986,-3.5555,-3.6413,0.0,0.0,0.0,0.0,0.0,0.0,0.0,0.0,0.0,0.0,0.0,0.0,0.0,-2.4864,-2.4806,-2.4623,0.0,0.0,0.0,0.0,0.0,0.0,0.0,0.0,0.0,-2.419,0.0,0.0,0.0,-2.419,-2.4208,-2.4026,-2.4036,-2.419,-2.419,-2.419,-2.419,-2.419,0.0,0.0,0.0,0.0,0.0,0.0,0.0,0.0,0.0,0.0,0.0,0.0,0.0,0.0,0.0,0.0,0.0,0.0,0.0,0.0,0.0,0.0,0.0,0.0,0.0,0.0,0.0,0.0,0.0,0.0,0.0,0.0,0.0,0.0,0.0,0.0,0.0,0.0,0.0,0.0,0.0,0.0,0.0,0.0,0.0,0.0,0.0,0.0,0.0,0.0,-2.8191,-2.8227,-2.7989,-2.7482,-2.797,-2.8227,-2.8227,-2.873,-2.9005,-2.9005,-2.9005,-2.9005,-2.9005,-2.9005,-2.9005,-2.9042,-2.9861,-3.0815,-3.1916,-3.2944,-3.3532,-3.3807,-3.3807,-3.3972,-3.4215,-3.4215,-3.4747,-3.55,0.0,0.0,0.0,0.0,0.0,0.0,0.0,0.0,0.0,0.0,0.0,0.0,0.0,0.0,-2.4727,-2.4799,-2.4441,-2.43,-2.4585,0.0,0.0,0.0,0.0,0.0,0.0,0.0,0.0,0.0,0.0,0.0,0.0,-2.4151,-2.419,-2.419,-2.419,-2.419,0.0,0.0,0.0,-2.4209,0.0,0.0,-2.4883,0.0,0.0,0.0,0.0,0.0,0.0,0.0,0.0,0.0,0.0,0.0,0.0,0.0,0.0,0.0,0.0,0.0,0.0,0.0,0.0,0.0,0.0,0.0,0.0,0.0,0.0,0.0,0.0,0.0,0.0,0.0,0.0,0.0,0.0,0.0,0.0,0.0,0.0,0.0,0.0,0.0,0.0,0.0,0.0,0.0,-2.7732,-2.7798,-2.7548,-2.7016,-2.7512,-2.7798,-2.7798,-2.8601,-2.9005,-2.9005,-2.9005,-2.9005,-2.9005,-2.9005,-2.9005,-2.9042,-2.9861,-3.065,-3.1507,-3.2852,-3.3568,-3.3807,-3.3807,-3.3807,-3.3807,-3.3807,-3.4137,-3.4637,0.0,0.0,0.0,0.0,0.0,0.0,0.0,0.0,0.0,-2.476,0.0,0.0,0.0,0.0,0.0,-2.5349,-2.4695,-2.4566,-2.5319,-2.464,0.0,0.0,0.0,0.0,0.0,0.0,0.0,0.0,0.0,0.0,0.0,0.0,-2.418,-2.418,-2.4208,-2.419,-2.419,0.0,-2.419,-2.419,0.0,-2.4695,-2.5374,0.0,0.0,0.0,-2.6583,-2.7126,0.0,0.0,0.0,0.0,0.0,0.0,0.0,0.0,0.0,0.0,0.0,0.0,0.0,0.0,0.0,0.0,0.0,0.0,0.0,0.0,0.0,0.0,0.0,0.0,0.0,0.0,0.0,0.0,0.0,0.0,0.0,0.0,0.0,0.0,0.0,0.0,0.0,0.0,0.0,-2.6072,-2.7677,-2.7725,-2.7695,-2.7725,-2.7761,-2.775,-2.775,-2.8583,-2.9005,-2.9005,-2.9005,-2.9005,-2.9005,-2.9005,-2.9005,-2.906,-2.9879,-3.0687,-3.147,-3.2284,-3.306,-3.3807,-3.3807,-3.3807,-3.3807,-3.3807,-3.3807,-3.3917,0.0,0.0,0.0,0.0,0.0,0.0,0.0,0.0,-2.4303,0.0,0.0,0.0,-2.5465,-2.5805,-2.5849,-2.5439,-2.5191,-2.4915,-2.4566,-2.4318,-2.419,-2.419,-2.3976,-2.3837,0.0,0.0,0.0,0.0,0.0,0.0,-2.3346,0.0,0.0,0.0,-2.4094,-2.419,-2.419,-2.419,0.0,0.0,-2.4824,-2.486,0.0,0.0,0.0,0.0,0.0,-2.7126,0.0,0.0,-2.8675,-2.8565,0.0,0.0,0.0,0.0,0.0,0.0,-2.6346,0.0,0.0,0.0,0.0,0.0,0.0,0.0,0.0,0.0,0.0,0.0,0.0,0.0,0.0,0.0,0.0,0.0,0.0,0.0,0.0,0.0,0.0,0.0,0.0,0.0,0.0,0.0,-2.5309,-2.5236,-2.6851,-2.5823,-2.5466,-2.6054,-2.6631,-2.6924,-2.6924,-2.8308,-2.9005,-2.9005,-2.9005,-2.9005,-2.9005,-2.9005,-2.9005,-2.9078,-3.0467,-3.1195,-3.147,-3.2284,-3.306,-3.3807,-3.3807,-3.3807,-3.3807,-3.3807,-3.3807,-3.3917,0.0,0.0,0.0,0.0,0.0,0.0,0.0,0.0,0.0,0.0,0.0,0.0,-2.587,-2.6612,-2.6906,-2.6439,-2.609,-2.5841,-2.5713,-2.5081,-2.4646,-2.4506,-2.3987,-2.3772,-2.3949,0.0,0.0,0.0,0.0,0.0,0.0,0.0,0.0,0.0,0.0,0.0,0.0,0.0,0.0,0.0,-2.4685,0.0,0.0,-2.4991,-2.5407,0.0,0.0,0.0,-2.8069,-2.8196,-2.8589,0.0,0.0,0.0,0.0,0.0,0.0,0.0,0.0,0.0,0.0,0.0,0.0,0.0,0.0,-2.4456,0.0,0.0,0.0,0.0,0.0,0.0,0.0,0.0,0.0,0.0,0.0,0.0,0.0,0.0,0.0,0.0,0.0,0.0,0.0,0.0,-2.5419,-2.5117,-2.6043,-2.5209,-2.4915,-2.5393,-2.6172,-2.6602,-2.6602,-2.8198,-2.9005,-2.9005,-2.9005,-2.9005,-2.9005,-2.9005,-2.9189,-2.9537,-3.0485,-3.1274,-3.1935,-3.2399,-3.306,-3.3807,-3.3807,-3.3807,-3.3807,-3.3807,-3.4009,-3.4362,0.0,0.0,0.0,0.0,0.0,0.0,0.0,0.0,0.0,0.0,-2.5724,-2.598,-2.6778,-2.7493,-2.7897,-2.7816,-2.7145,-2.6998,-2.7622,-2.6329,-2.539,-2.5095,-2.4331,-2.4079,-2.4431,-2.4373,0.0,0.0,0.0,0.0,0.0,0.0,0.0,0.0,0.0,0.0,0.0,0.0,0.0,-2.5387,-2.4371,-2.4739,0.0,0.0,-2.5409,0.0,-2.5879,-2.6831,-2.8281,-2.7578,-2.8046,0.0,0.0,0.0,0.0,0.0,-2.8491,0.0,0.0,0.0,0.0,0.0,0.0,0.0,-2.4814,-2.4952,-2.5191,0.0,0.0,0.0,0.0,0.0,0.0,0.0,0.0,0.0,0.0,0.0,0.0,0.0,0.0,0.0,0.0,0.0,-2.565,-2.6528,-2.6017,-2.554,-2.5283,-2.5338,-2.5356,-2.5264,-2.6135,-2.6602,-2.6602,-2.8198,-2.9005,-2.9005,-2.9005,-2.9005,-2.9005,-2.9005,-2.9379,-3.0003,-3.0253,-3.1121,-3.242,-3.2643,-3.3146,-3.3807,-3.3807,-3.3807,-3.3807,-3.3807,-3.4252,-3.4876,0.0,0.0,0.0,0.0,0.0,0.0,0.0,0.0,0.0,-2.6399,-2.6956,-2.764,-2.8436,-2.8675,-2.8521,-2.7871,-2.7669,-2.7365,-2.6869,-2.6539,-2.6353,-2.6271,-2.5554,-2.5199,-2.5265,-2.4749,-2.4452,0.0,0.0,0.0,0.0,0.0,0.0,0.0,0.0,0.0,0.0,0.0,0.0,-2.5937,-2.5717,0.0,-2.469,-2.5113,-2.5472,-2.5826,-2.6281,-2.7304,-2.8371,0.0,-2.8332,-2.8491,0.0,0.0,0.0,0.0,0.0,0.0,0.0,0.0,0.0,0.0,0.0,0.0,-2.6355,-2.576,-2.5356,0.0,0.0,0.0,0.0,0.0,0.0,0.0,0.0,0.0,0.0,0.0,0.0,0.0,0.0,0.0,0.0,0.0,-2.5034,-2.6492,-2.7053,-2.6476,-2.4548,-2.5044,-2.5099,-2.4447,-2.5841,-2.6602,-2.6602,-2.8198,-2.9005,-2.9005,-2.9005,-2.9005,-2.9005,-2.9005,-2.89,-2.8842,-3.0466,-3.119,-3.1352,-3.2912,-3.366,-3.3807,-3.3807,-3.3807,-3.3807,-3.3807,-3.3899,-3.4137,0.0,0.0,0.0,0.0,0.0,0.0,0.0,0.0,0.0,-2.7145,-2.7897,-2.8546,-2.8968,-2.9005,-2.884,-2.8429,-2.8411,-2.8227,-2.7813,-2.742,-2.7049,-2.6712,-2.5931,-2.553,-2.5539,-2.5219,-2.505,0.0,0.0,0.0,0.0,0.0,0.0,0.0,0.0,0.0,0.0,0.0,-2.68,-2.6078,-2.5877,0.0,-2.4725,-2.4913,-2.5224,-2.5594,-2.6009,-2.6883,-2.789,-2.8071,-2.8393,0.0,0.0,-2.9111,-2.9557,0.0,-2.9442,-2.95,0.0,0.0,0.0,-2.7989,0.0,0.0,0.0,-2.645,-2.6306,0.0,0.0,0.0,0.0,0.0,0.0,0.0,0.0,0.0,0.0,0.0,0.0,0.0,0.0,0.0,0.0,0.0,-2.5136,-2.5933,-2.7119,-2.6917,-2.4915,-2.5172,-2.5393,-2.5401,-2.5976,-2.6596,-2.72,-2.8195,-2.8797,-2.9005,-2.9005,-2.9005,-2.8994,-2.8785,-2.9031,-2.9638,-3.0459,-3.1139,-3.1765,-3.2751,-3.3148,-3.3163,-3.3404,-3.3508,-3.3508,-3.3508,-3.3894,-3.4454,0.0,0.0,0.0,0.0,0.0,0.0,0.0,0.0,0.0,-2.7952,-2.8455,-2.8767,-2.8767,-2.8638,0.0,0.0,-2.8429,-2.8479,0.0,0.0,-2.7441,-2.6832,-2.6264,-2.5883,-2.5718,-2.5776,-2.5812,-2.5812,0.0,0.0,0.0,0.0,0.0,0.0,0.0,0.0,0.0,0.0,0.0,-2.6098,0.0,-2.5586,-2.5175,-2.4985,-2.5203,-2.5625,-2.5858,-2.6522,-2.7382,-2.7839,0.0,-2.8916,-2.9057,-2.9763,0.0,0.0,0.0,0.0,0.0,0.0,0.0,0.0,0.0,-2.8355,0.0,0.0,0.0,-2.55,0.0,0.0,0.0,0.0,0.0,0.0,0.0,0.0,0.0,0.0,0.0,0.0,0.0,0.0,0.0,0.0,-2.5338,-2.5172,-2.666,-2.6935,-2.5485,-2.554,-2.5944,-2.6583,-2.6359,-2.6728,-2.7787,-2.8203,-2.859,-2.9005,-2.9005,-2.9005,-2.8994,-2.8577,-2.9148,-3.0435,-3.0267,-3.0947,-3.2172,-3.2397,-3.2451,-3.2417,-3.2872,-3.3105,-3.3199,-3.3199,-3.3869,-3.4766,-2.419,-2.419,0.0,0.0,0.0,0.0,0.0,0.0,0.0,-2.8858,-2.8319,-2.7934,0.0,0.0,0.0,0.0,0.0,0.0,-2.701,0.0,0.0,-2.6819,-2.7327,-2.7165,-2.615,-2.6413,-2.6573,-2.6573,0.0,0.0,0.0,0.0,0.0,0.0,-2.6236,0.0,0.0,0.0,-2.6641,0.0,-2.6846,-2.6477,0.0,-2.6234,-2.6099,-2.5725,-2.6738,-2.7186,-2.7407,0.0,-2.841,-2.8583,0.0,-2.9536,0.0,0.0,0.0,0.0,0.0,0.0,0.0,0.0,-2.7952,0.0,0.0,0.0,-2.6748,-2.6534,0.0,0.0,0.0,0.0,0.0,0.0,0.0,0.0,0.0,0.0,0.0,0.0,0.0,0.0,0.0,0.0,0.0,-2.4392,-2.5823,-2.6355,-2.5448,-2.608,-2.6521,-2.6602,-2.6896,-2.7302,-2.7805,-2.8203,-2.859,-2.9005,-2.9005,-2.9005,-2.8994,-2.8577,-2.869,-2.9237,-2.9897,-3.047,-3.0994,-3.2051,-3.2247,-3.1933,-3.2401,-3.2825,-3.3199,-3.3199,-3.352,-3.3935,-2.419,-2.419,0.0,0.0,0.0,0.0,0.0,0.0,0.0,-2.9005,-2.8712,0.0,0.0,0.0,0.0,0.0,0.0,-2.68,0.0,0.0,0.0,-2.7084,-2.7387,-2.7224,-2.651,-2.6622,-2.6691,-2.6691,-2.6691,0.0,0.0,0.0,0.0,0.0,-2.6362,0.0,-2.634,0.0,0.0,0.0,0.0,0.0,0.0,-2.6742,-2.6505,-2.6285,-2.6788,-2.7229,-2.7639,0.0,-2.8647,0.0,0.0,0.0,0.0,0.0,0.0,0.0,0.0,0.0,0.0,0.0,0.0,0.0,0.0,0.0,-2.7197,0.0,0.0,0.0,0.0,0.0,0.0,0.0,0.0,0.0,0.0,0.0,0.0,0.0,0.0,0.0,0.0,0.0,0.0,0.0,0.0,-2.6447,-2.6117,-2.597,-2.6319,-2.7273,-2.6776,-2.7145,-2.8473,-2.8427,-2.859,-2.9005,-2.9005,-2.9005,-2.8982,-2.8373,-2.8667,-2.9629,-2.9551,-3.0056,-3.1025,-3.1538,-3.1638,-3.1435,-3.1193,-3.1638,-3.2416,-3.2697,-3.3075,-3.3494,0.0,0.0,0.0,0.0,0.0,0.0,0.0,0.0,0.0,0.0,0.0,0.0,-2.8522,-2.831,0.0,0.0,0.0,-2.6614,0.0,0.0,-2.6912,0.0,0.0,0.0,0.0,0.0,0.0,0.0,0.0,0.0,0.0,0.0,0.0,0.0,0.0,-2.6134,-2.5749,0.0,0.0,-2.7326,-2.7607,-2.7636,-2.7435,-2.6894,-2.6691,-2.6691,-2.6691,-2.7046,-2.7553,-2.7994,-2.8873,0.0,-3.0277,0.0,0.0,0.0,0.0,0.0,-3.0312,0.0,0.0,0.0,0.0,0.0,0.0,0.0,0.0,0.0,0.0,0.0,0.0,0.0,0.0,0.0,0.0,0.0,0.0,0.0,0.0,0.0,0.0,0.0,0.0,0.0,0.0,0.0,-2.5562,0.0,-2.6264,-2.5925,-2.6366,-2.7761,-2.7048,-2.7417,-2.8987,-2.859,-2.859,-2.9005,-2.9005,-2.894,-2.8815,-2.8188,-2.8641,-2.99,-2.9264,-2.9839,-3.119,-3.119,-3.119,-3.114,-3.0615,-3.0912,-3.168,-3.2053,-3.263,-3.3258,-2.5209,-2.4732,0.0,0.0,0.0,0.0,0.0,0.0,0.0,0.0,0.0,0.0,0.0,0.0,0.0,0.0,0.0,-2.5237,-2.5622,0.0,-2.6802,0.0,0.0,-2.8234,0.0,0.0,0.0,0.0,0.0,0.0,0.0,0.0,0.0,0.0,0.0,-2.5782,-2.5966,-2.5749,-2.5799,-2.61,-2.6555,-2.6725,-2.6725,0.0,-2.6691,-2.6691,-2.6691,0.0,0.0,-2.8468,-2.8993,0.0,0.0,0.0,0.0,0.0,0.0,0.0,0.0,0.0,0.0,-2.9182,0.0,0.0,0.0,0.0,-2.6741,0.0,0.0,0.0,0.0,0.0,0.0,0.0,0.0,0.0,0.0,0.0,0.0,0.0,0.0,0.0,0.0,0.0,0.0,-2.375,-2.4089,0.0,-2.5393,-2.6153,-2.6943,-2.778,-2.8149,-2.8535,-2.8994,-2.859,-2.859,-2.9005,-2.9005,-2.8803,-2.8407,-2.8061,-2.8491,-2.9488,-2.9157,-2.9839,-3.119,-3.119,-3.119,-3.119,-3.1173,-3.1193,-3.1244,-3.1372,-3.2179,-3.3258,0.0,0.0,0.0,0.0,0.0,0.0,0.0,-2.9787,0.0,0.0,0.0,0.0,0.0,0.0,-2.6565,0.0,0.0,-2.5217,-2.5574,-2.6416,0.0,0.0,0.0,-2.8508,0.0,0.0,0.0,0.0,0.0,0.0,0.0,0.0,0.0,0.0,0.0,-2.6653,0.0,0.0,0.0,0.0,0.0,-2.7243,-2.6945,0.0,0.0,-2.6691,-2.6691,-2.7368,0.0,-2.8824,-2.9653,-3.055,-3.1038,-3.119,-3.119,-3.119,-3.119,0.0,0.0,0.0,-3.0649,-2.9905,0.0,0.0,0.0,0.0,0.0,0.0,0.0,0.0,0.0,0.0,0.0,0.0,0.0,0.0,0.0,0.0,0.0,0.0,0.0,0.0,0.0,0.0,0.0,-2.4461,-2.4801,-2.5117,0.0,-2.6153,-2.6484,-2.6219,-2.7375,-2.807,-2.8209,-2.8607,-2.8737,-2.8602,-2.8602,-2.8425,-2.8061,-2.7678,-2.8228,-2.9471,-2.9139,-2.9839,-3.1157,-3.0666,-3.0768,-3.1089,-3.0127,-3.0347,-3.1254,-3.1548,-3.1916,-3.2383,-2.6031,0.0,0.0,0.0,0.0,0.0,0.0,0.0,0.0,0.0,-2.9746,0.0,-2.7763,0.0,-2.6953,0.0,-2.5792,-2.5874,-2.6336,-2.6826,0.0,-2.7097,-2.8333,0.0,0.0,0.0,0.0,0.0,0.0,-2.7418,0.0,0.0,0.0,0.0,0.0,0.0,0.0,0.0,-2.7232,0.0,0.0,-2.7378,0.0,0.0,-2.7097,-2.7097,0.0,-2.7723,-2.8653,-2.9213,-3.0006,-3.0852,-3.1106,-3.119,-3.119,-3.119,-3.119,-3.119,-3.119,-3.119,0.0,0.0,-3.0275,0.0,-2.9499,0.0,0.0,0.0,0.0,0.0,0.0,0.0,0.0,0.0,0.0,0.0,0.0,0.0,0.0,0.0,0.0,0.0,0.0,0.0,-2.3952,-2.5028,-2.5284,-2.5521,0.0,0.0,-2.6796,-2.6274,-2.753,-2.8227,-2.8227,-2.8607,-2.8658,-2.8407,-2.829,-2.8176,-2.807,-2.7548,-2.8194,-2.9693,-2.9203,-2.9839,-3.114,-3.0412,-3.0531,-3.1072,-2.9854,-3.0125,-3.1215,-3.1367,-3.1689,-3.2127,0.0,0.0,0.0,0.0,-2.9147,0.0,0.0,0.0,-3.0106,0.0,-2.8948,-2.7906,-2.642,-2.6851,-2.6819,-2.5742,-2.6251,0.0,-2.7705,-2.779,0.0,0.0,-2.8552,-2.8299,-2.6776,0.0,0.0,0.0,0.0,0.0,0.0,0.0,0.0,0.0,-2.7841,0.0,-2.6374,-2.6965,-2.6428,-2.5335,-2.6349,-2.7181,-2.7822,-2.7858,0.0,-2.7908,-2.7874,-2.7874,-2.8145,-2.9599,-3.0125,-3.0294,-3.097,-3.119,-3.119,-3.119,-3.119,-3.119,-3.119,-3.119,-3.119,-3.119,0.0,0.0,0.0,0.0,-2.9094,0.0,0.0,0.0,0.0,0.0,0.0,0.0,0.0,0.0,0.0,0.0,0.0,0.0,0.0,0.0,0.0,-2.3289,-2.3849,-2.5331,-2.5461,0.0,0.0,0.0,0.0,-2.7732,-2.8565,-2.8987,-2.895,-2.8572,-2.8394,-2.8381,-2.8034,-2.8037,-2.8279,-2.7585,-2.8253,-2.9956,-2.9264,-2.9788,-3.1089,-3.0362,-3.048,-3.1072,-3.0378,-3.0548,-3.1147,-3.085,-3.1445,-3.2434,-2.6877,-2.7747,-2.8571,0.0,-2.9282,-3.003,0.0,0.0,0.0,0.0,-2.9609,-2.8707,-2.7185,-2.6695,-2.6475,-2.642,-2.6099,0.0,0.0,0.0,0.0,-2.7012,-2.8282,-2.8518,-2.7536,-2.9042,0.0,-2.8417,0.0,0.0,-2.7503,0.0,0.0,0.0,0.0,0.0,-2.6984,-2.8052,-2.7444,-2.5901,-2.7057,-2.7746,0.0,0.0,-2.9025,-2.943,-2.889,-2.9042,-2.9565,-2.9973,-3.0463,-3.0954,-3.114,-3.119,-3.119,-3.119,-3.119,-3.119,-3.119,-3.119,-3.119,-3.119,-3.1055,-3.092,0.0,0.0,0.0,0.0,0.0,0.0,0.0,0.0,0.0,0.0,0.0,0.0,0.0,0.0,0.0,0.0,0.0,0.0,0.0,-2.3271,-2.399,-2.4622,-2.5961,0.0,0.0,0.0,0.0,-2.6961,-2.8271,-2.8712,-2.8117,-2.8312,-2.8259,-2.802,-2.7634,-2.7345,-2.713,-2.6926,-2.742,-2.8382,-2.8179,-2.8956,-3.0328,-2.9583,-2.9719,-3.0362,-3.0176,-3.0548,-3.1193,-3.1091,-3.1276,-3.1581,-2.7481,0.0,0.0,-2.9449,0.0,0.0,-3.0731,0.0,0.0,-3.0062,-2.9415,0.0,-2.7185,-2.6675,-2.6374,-2.6217,-2.6133,0.0,0.0,0.0,0.0,-2.7182,-2.7689,-2.7774,-2.7317,-2.8483,0.0,-2.8484,0.0,0.0,-2.7807,0.0,0.0,0.0,0.0,-2.8934,0.0,-2.8148,-2.7694,-2.7009,-2.7562,0.0,0.0,-2.9372,-2.9939,-3.0531,-3.0127,-3.0023,-3.014,-3.048,-3.0852,-3.119,-3.119,-3.119,-3.119,-3.119,-3.119,-3.119,-3.119,-3.119,-3.119,-3.119,-3.119,-3.119,-3.119,-3.119,-3.1072,0.0,0.0,0.0,0.0,0.0,0.0,0.0,0.0,0.0,0.0,0.0,0.0,0.0,0.0,0.0,-2.2482,-2.3553,-2.4683,-2.5401,0.0,0.0,0.0,0.0,0.0,-2.7666,-2.8877,-2.9133,-2.8338,-2.859,-2.8441,-2.7897,-2.7301,-2.7093,-2.7182,-2.6843,-2.7283,-2.8332,-2.8332,-2.9008,-3.0074,-2.9651,-2.9922,-3.0581,-3.0581,-3.0835,-3.119,-3.119,-3.119,-3.1263,0.0,0.0,0.0,0.0,0.0,0.0,0.0,-3.0741,0.0,-2.952,0.0,-2.7855,-2.6809,-2.6691,-2.6437,-2.5812,0.0,-2.691,-2.7621,-2.7012,-2.691,-2.7621,-2.7046,-2.6691,-2.6691,-2.7418,0.0,0.0,0.0,0.0,0.0,0.0,0.0,0.0,0.0,0.0,0.0,-2.7923,-2.7727,0.0,-2.817,-2.8889,-3.0106,-3.0226,-3.0649,-3.119,-3.119,-3.0784,-3.0345,-3.097,-3.119,-3.119,-3.119,-3.119,-3.119,-3.119,-3.119,-3.119,-3.119,-3.119,-3.119,-3.119,-3.119,-3.119,-3.119,-3.119,-3.119,-3.119,-3.0683,0.0,0.0,0.0,0.0,0.0,0.0,0.0,0.0,0.0,0.0,0.0,0.0,0.0,0.0,0.0,0.0,0.0,0.0,0.0,0.0,0.0,0.0,0.0,-2.9684,0.0,-2.9152,0.0,-2.8649,-2.8039,-2.7135,-2.7046,-2.7638,-2.7097,-2.7588,-2.8857,-2.8959,-2.9414,-3.0108,-3.0108,-3.0531,-3.119,-3.1089,-3.1106,-3.119,-3.119,-3.1258,-3.141,0.0,0.0,0.0,0.0,0.0,-3.0889,-3.0232,-3.0262,-2.9846,-2.8322,-2.7753,-2.7302,-2.6758,-2.6691,-2.664,-2.6522,-2.6282,0.0,0.0,0.0,0.0,-2.6877,-2.6759,-2.6691,-2.6691,-2.7418,-2.8146,0.0,0.0,0.0,0.0,0.0,0.0,0.0,0.0,0.0,-2.989,-2.9033,0.0,-2.8917,-2.9462,-2.9871,-3.0176,-3.0784,-3.1089,-3.119,-3.119,-3.1106,-3.1021,-3.1157,-3.119,-3.119,-3.119,-3.119,-3.119,-3.119,-3.119,-3.119,-3.119,-3.119,-3.119,-3.119,-3.119,-3.119,-3.119,-3.119,-3.119,-3.119,-3.1089,-3.0818,-3.0226,0.0,0.0,0.0,0.0,0.0,0.0,0.0,0.0,0.0,0.0,0.0,0.0,0.0,0.0,0.0,0.0,0.0,0.0,0.0,0.0,0.0,0.0,0.0,0.0,0.0,0.0,-2.8879,-2.7407,-2.6759,-2.6911,-2.7384,-2.7756,-2.8043,-2.8704,-2.9414,-3.0108,-3.0108,-3.0531,-3.114,-3.0531,-3.0666,-3.119,-3.119,-3.1599,-3.2039,0.0,0.0,0.0,0.0,0.0,0.0,0.0,-2.9796,0.0,-2.8521,-2.7913,-2.7503,-2.7283,-2.6928,-2.6607,-2.6349,-2.6138,-2.5979,-2.5926,-2.5709,-2.5817,-2.6314,-2.6699,0.0,-2.6691,-2.7418,-2.8179,-2.8993,0.0,0.0,0.0,0.0,0.0,0.0,0.0,-3.0666,0.0,0.0,0.0,-3.0125,-3.0108,-3.0138,-3.0252,-3.0586,-3.0539,-3.0293,-3.0617,-3.074,-3.0777,-3.1095,-3.119,-3.119,-3.119,-3.119,-3.119,-3.119,-3.119,-3.119,-3.119,-3.119,-3.119,-3.119,-3.119,-3.119,-3.119,-3.119,-3.119,-3.119,-3.119,-3.097,-3.0243,-2.9499,0.0,0.0,0.0,0.0,0.0,0.0,0.0,0.0,0.0,0.0,0.0,0.0,0.0,0.0,0.0,-2.7175,-2.8098,0.0,0.0,0.0,0.0,0.0,0.0,0.0,0.0,-2.8712,-2.7346,-2.6894,-2.7266,-2.7638,-2.7807,-2.7874,-2.9059,-2.977,-3.0123,-3.0514,-3.0886,-3.1157,-3.0818,-3.0886,-3.1241,-3.1633,-3.2005,-3.231,0.0,-3.1275,0.0,0.0,-3.1529,0.0,-3.0666,-2.9803,-2.9128,-2.8807,-2.8061,-2.757,-2.757,-2.7046,-2.6505,-2.6049,-2.5888,-2.5652,-2.524,-2.5346,-2.5656,-2.6208,-2.7046,-2.7399,-2.7199,-2.7774,-2.845,0.0,0.0,0.0,0.0,0.0,0.0,0.0,0.0,0.0,0.0,0.0,-3.0666,-3.114,-3.0429,-3.0199,-3.0293,-3.0166,-2.9805,-2.9451,-2.9935,-3.0187,-3.0372,-3.0858,-3.1095,-3.119,-3.119,-3.119,-3.119,-3.119,-3.119,-3.119,-3.119,-3.119,-3.119,-3.119,-3.119,-3.119,-3.119,-3.119,-3.119,-3.119,-3.119,-3.097,-3.0243,-2.9753,0.0,0.0,0.0,0.0,0.0,0.0,0.0,0.0,0.0,0.0,0.0,0.0,0.0,0.0,0.0,-2.7018,-2.7718,-2.7955,0.0,0.0,0.0,-2.9429,-2.8655,0.0,-2.8759,0.0,-2.7418,-2.7249,-2.7807,-2.7976,-2.8145,-2.8365,-2.9753,-3.0345,-3.0378,-3.0954,-3.119,-3.119,-3.119,-3.119,-3.1275,-3.2039,-3.2395,-3.2649,0.0,0.0,0.0,0.0,0.0,0.0,0.0,-3.0903,-2.9516,-2.8094,-2.7266,-2.6793,-2.6793,-2.6742,-2.6505,-2.6049,-2.5559,-2.5259,-2.5202,-2.583,-2.6435,-2.6965,-2.8178,-2.8821,-2.879,-2.8857,-2.9245,0.0,0.0,0.0,0.0,0.0,0.0,0.0,0.0,0.0,0.0,-3.1123,-3.114,-3.1151,-3.0534,-3.0285,-3.023,-2.9695,-2.9451,-2.9406,-2.9451,-2.9827,-3.0293,-3.0372,-3.074,-3.119,-3.119,-3.119,-3.119,-3.119,-3.119,-3.119,-3.119,-3.119,-3.119,-3.119,-3.119,-3.119,-3.119,-3.119,-3.119,-3.119,-3.119,-3.097,-3.0243,-3.0581,-3.0567,0.0,0.0,0.0,0.0,0.0,0.0,0.0,0.0,0.0,0.0,0.0,0.0,0.0,0.0,-2.5519,-2.7263,-2.7099,-2.7402,-2.8358,0.0,-2.8861,-2.948,-2.8815,0.0,-2.8479,-2.7947,-2.7739,-2.7824,-2.8552,-2.9245,-2.9939,-3.0734,-3.1089,-3.1106,-3.1157,-3.119,-3.119,-3.119,-3.119,-3.1275,-3.2039,-3.2713,-3.3406,0.0,0.0,0.0,0.0,0.0,0.0,0.0,-3.048,-2.9548,-2.801,-2.7536,-2.7199,-2.6742,-2.6691,-2.6367,-2.5596,-2.5316,-2.5104,-2.4862,-2.5462,-2.6247,-2.7167,-2.8477,-2.9116,-2.901,-2.9431,-2.9803,0.0,0.0,0.0,0.0,0.0,0.0,0.0,0.0,-3.119,-3.119,-3.119,-3.119,-3.1171,-3.0955,-3.0414,-2.9739,-2.9496,-2.895,-2.8424,-2.9134,-2.9563,-2.987,-3.0597,-3.0995,-3.119,-3.119,-3.119,-3.119,-3.119,-3.119,-3.119,-3.119,-3.119,-3.119,-3.119,-3.119,-3.119,-3.119,-3.119,-3.119,-3.119,-3.119,-3.1106,-3.0818,-3.0632,-3.0497,0.0,0.0,0.0,0.0,0.0,0.0,0.0,0.0,0.0,0.0,0.0,0.0,0.0,0.0,0.0,-2.6921,-2.7265,-2.7662,-2.8088,0.0,-2.8245,-2.858,-2.8472,-2.8525,-2.8801,-2.8608,-2.8755,-2.9193,-2.9516,-3.0057,-3.0784,-3.1072,-3.119,-3.119,-3.119,-3.119,-3.119,-3.119,-3.1461,-3.1955,-3.2679,-3.3423,-3.4167,-3.4006,0.0,-3.2953,0.0,-3.2175,-3.1343,-3.0835,-3.0565,-2.9888,-2.8348,-2.8145,-2.7791,-2.681,-2.6691,-2.6364,-2.5548,-2.5502,-2.5406,-2.5174,-2.5923,-2.6815,-2.7833,-2.914,0.0,-2.9634,-3.0159,-3.0429,-3.0429,-2.9816,0.0,0.0,0.0,0.0,0.0,-3.0918,-3.119,-3.119,-3.119,-3.119,-3.119,-3.1015,-3.0314,-2.9384,-2.9203,-2.8496,-2.7735,-2.8779,-2.9248,-2.9563,-3.058,-3.1055,-3.119,-3.119,-3.119,-3.1171,-3.0995,-3.0955,-3.0955,-3.0955,-3.0955,-3.0975,-3.1151,-3.119,-3.119,-3.119,-3.119,-3.119,-3.119,-3.119,-3.119,-3.119,-3.0768,-3.0456,-3.0589,0.0,0.0,0.0,0.0,0.0,0.0,0.0,0.0,0.0,0.0,0.0,0.0,0.0,0.0,-2.6708,-2.7157,0.0,0.0,0.0,0.0,0.0,-2.8412,-2.8596,-2.8653,-2.9111,-2.96,-3.0125,-3.0328,-3.0717,-3.119,-3.119,-3.119,-3.119,-3.119,-3.119,-3.1207,-3.1427,-3.1853,-3.2412,-3.3372,-3.4049,-3.4607,-3.5436,-3.4979,-3.4455,-3.4455,-3.3275,-3.2276,-3.2276,-3.1667,-3.0649,-2.9179,-2.8993,-2.84,-2.6877,-2.6691,-2.6563,-2.621,-2.6174,-2.6255,-2.6461,-2.7654,-2.8634,0.0,0.0,-3.1173,-3.1157,-3.1173,-3.119,-3.119,0.0,0.0,-3.0293,0.0,-3.0293,-3.033,-3.0918,-3.119,-3.119,-3.119,-3.119,-3.1151,-3.0539,-2.9951,-2.9339,-2.8748,-2.814,-2.7685,-2.8286,-2.8896,-2.9496,-3.0102,-3.0699,-3.119,-3.119,-3.119,-3.1075,-3.0477,-3.0314,-3.0314,-3.0314,-3.0314,-3.0456,-3.1055,-3.119,-3.119,-3.119,-3.119,-3.119,-3.119,-3.119,-3.119,-3.119,-3.119,-3.0763,-2.9439,0.0,0.0,0.0,0.0,0.0,0.0,0.0,0.0,0.0,0.0,0.0,0.0,0.0,0.0,0.0,0.0,0.0,-2.8362,-2.7702,0.0,-2.8397,-2.8783,-2.8604,-2.7841,-2.9362,-3.0091,-3.0125,-3.0852,-3.119,-3.119,-3.119,-3.119,-3.119,-3.119,-3.119,-3.1258,-3.2005,-3.2293,-3.2479,-3.3952,-3.4489,-3.4607,-3.4818,-3.4252,-3.3592,-3.3089,-3.2209,-3.121,-3.0211,-3.0277,-2.9719,-2.7706,-2.7875,-2.7807,-2.681,-2.6691,-2.6563,0.0,-2.619,-2.6477,0.0,-2.7945,-2.8882,-2.993,-3.0744,-3.119,-3.119,-3.119,-3.0995,-3.0597,0.0,0.0,0.0,-2.9496,-2.9908,-3.033,-3.0918,-3.119,-3.119,-3.119,-3.119,-3.119,-3.0995,-3.0293,-2.9384,-2.918,-2.8472,-2.7796,-2.932,-2.9995,-3.038,-3.1893,-3.1934,-3.1332,-3.1332,-3.0979,-3.0638,-3.0858,-3.033,-2.9783,-3.0187,-3.0,-2.983,-3.0494,-3.0613,-3.0713,-3.117,-3.123,-3.1075,-3.0679,-3.0918,-3.119,-3.119,-3.0858,-3.0452,-3.0017,0.0,0.0,0.0,0.0,0.0,0.0,0.0,0.0,0.0,-2.6691,0.0,0.0,0.0,0.0,0.0,0.0,0.0,0.0,-2.743,0.0,-2.8398,-2.88,-2.8874,-2.8636,-3.0125,-3.0852,-3.0852,-3.1089,-3.119,-3.119,-3.119,-3.119,-3.119,-3.119,-3.119,-3.1258,-3.2005,-3.2615,-3.3169,-3.4134,-3.481,-3.5278,-3.4146,-3.3746,-3.3169,-3.2429,-3.1701,-3.0886,-2.9974,-3.0209,-2.9803,-2.7825,-2.8213,-2.8263,-2.7232,-2.7177,0.0,-2.6602,-2.6812,-2.7344,-2.8158,-2.858,-2.9318,-3.0584,-3.0995,-3.119,-3.119,0.0,0.0,-3.0293,-2.9695,-2.9316,-2.918,-2.9563,-3.0059,-3.0658,-3.1035,-3.119,-3.119,-3.119,-3.119,-3.1171,-3.0938,-3.0272,-2.9384,-2.9157,-2.8448,-2.7811,-2.9522,-3.029,-3.0728,-3.2159,-3.2265,-3.1731,-3.1491,-3.0755,-3.0012,-3.0146,-2.9651,-2.9134,-2.9518,-2.9361,-2.9222,-2.9858,-3.0184,-3.0582,-3.15,-3.1654,-3.1439,-3.0832,-3.08,-3.0797,-3.0576,-3.0208,-2.9908,-2.9651,0.0,-2.8342,0.0,0.0,0.0,0.0,0.0,0.0,0.0,-2.7114,0.0,0.0,0.0,0.0,0.0,0.0,0.0,-2.8133,-2.7232,0.0,-2.815,-2.8728,-2.8993,-2.9027,-3.0499,-3.119,-3.119,-3.119,-3.119,-3.119,-3.119,-3.119,-3.119,-3.119,-3.136,-3.1701,-3.2425,-3.3152,-3.3897,-3.4641,-3.5194,-3.56,-3.3381,-3.335,0.0,0.0,-3.1667,0.0,-3.1055,-3.1089,-3.0581,-2.9111,-2.9516,-2.9413,-2.8027,-2.8006,-2.7874,-2.7311,0.0,0.0,0.0,-2.9406,-2.9935,-3.1151,-3.1151,-3.1151,-3.1151,-3.0539,-3.023,-3.023,-2.9673,-2.9717,-3.0293,-3.0293,-3.0621,-3.119,-3.119,-3.119,-3.119,-3.119,-3.119,-3.1151,-3.0539,-2.9935,-2.9339,-2.8732,-2.814,-2.7775,-2.91,-3.0004,-3.0669,-3.1342,-3.1941,-3.2305,-3.163,-3.0546,-2.9398,-2.8861,-2.8589,-2.8455,-2.8549,-2.8494,-2.8598,-2.9261,-2.994,-3.0758,-3.1936,-3.2181,-3.1993,-3.1391,-3.0723,-3.0081,-2.9496,-2.9361,-2.9157,-2.8583,-2.7899,-2.7049,-2.589,0.0,0.0,0.0,0.0,0.0,0.0,-2.7789,-2.7309,0.0,0.0,0.0,0.0,0.0,-2.7063,-2.779,-2.708,-2.708,-2.7874,-2.8619,-2.9044,-2.9162,-3.055,-3.1224,-3.1275,-3.1275,-3.1275,-3.1275,-3.1275,-3.1241,-3.119,-3.119,-3.1613,-3.2378,-3.3119,-3.3846,-3.459,-3.5329,-3.56,-3.56,0.0,0.0,-3.2327,-3.1579,-3.1309,-3.0818,-2.9687,-2.9989,-2.982,-2.828,-2.8229,-2.8432,-2.8687,-2.8358,-2.809,-2.8025,-2.7771,-2.8119,-2.9313,-2.9406,-2.9935,-3.1151,-3.0777,-3.0518,-3.0518,-2.9913,-2.9607,-2.9607,-2.9473,-2.9717,-3.0293,-3.0293,-3.0621,-3.119,-3.119,-3.119,-3.119,-3.119,-3.119,-3.1151,-3.0539,-2.9935,-2.9339,-2.8732,-2.814,-2.7851,-2.9683,-3.0761,-3.1534,-3.2695,-3.2834,-3.2449,-3.1766,-3.0632,-2.9731,-3.049,-2.9341,-2.804,-2.8999,-2.8547,-2.8077,-2.926,-3.0351,-3.0994,-3.0349,-3.0527,-3.0677,-3.0069,-2.9788,-2.9563,-2.9429,-2.9019,-2.8677,-2.8511,-2.7551,-2.6834,-2.6949,0.0,0.0,0.0,-2.8036,-2.8429,-2.8685,-2.7856,-2.7361,0.0,0.0,0.0,0.0,0.0,-2.7143,-2.7772,-2.708,-2.7351,-2.8687,-2.8908,-2.9568,-3.0685,-3.1021,-3.1478,-3.2039,-3.2039,-3.2039,-3.2039,-3.2039,-3.1718,-3.119,-3.119,-3.1613,-3.2378,-3.3119,-3.3846,-3.459,-3.5329,-3.56,-3.56,-3.1089,-3.145,-3.1737,-3.1269,-3.119,-3.0818,-2.9668,-2.9837,-2.9548,-2.801,-2.8415,-2.8907,-2.8993,-2.8824,-2.8731,-2.8798,-2.8262,-2.8202,-2.8934,-2.8989,-2.9406,-3.0351,-3.0043,-2.9892,-2.9892,-2.9293,-2.8989,-2.8989,-2.8989,-2.9451,-3.0293,-3.0293,-3.0477,-3.0797,-3.1092,-3.1055,-3.0818,-3.1075,-3.119,-3.1131,-3.0251,-2.9695,-2.9341,-2.8771,-2.8329,-2.8295,-2.9955,-3.1001,-3.171,-3.2413,-3.2426,-3.2065,-3.1682,-3.0643,-2.9847,-3.1089,-2.9846,-2.8216,-2.8895,-2.8349,-2.7839,-2.8861,-3.0099,-3.0866,-3.0163,-3.0471,-3.0641,-2.9713,-2.9249,-2.8904,-2.8622,-2.8319,-2.8,-2.7679,-2.6799,-2.6242,-2.6533,-2.6496,0.0,-2.7721,-2.8338,-2.8706,-2.8682,-2.8049,-2.7555,-2.7336,0.0,0.0,-2.6677,-2.7176,-2.7398,-2.73,-2.7249,-2.7465,-2.8035,-2.8739,-2.9794,-3.119,-3.0918,-3.1145,-3.183,-3.1533,-3.155,-3.1867,-3.2171,-3.2073,-3.1735,-3.207,-3.2628,-3.3359,-3.3744,-3.4353,-3.5064,-3.5447,-3.56,-3.56,-3.041,-3.0694,-3.1054,-3.0925,-3.0886,-3.0656,-2.9869,-2.9871,-2.9428,-2.8038,-2.8981,-2.9602,-2.9106,-2.9079,-2.9137,-2.9255,-2.8709,-2.8391,-2.8487,-2.8487,-2.8756,-2.9361,-2.9316,-2.9248,-2.9248,-2.8756,-2.8487,-2.8487,-2.8583,-2.9157,-3.0166,-3.0166,-3.0166,-3.0187,-3.0797,-3.0777,-3.0335,-3.0938,-3.1151,-3.0975,-2.9848,-2.9339,-2.9213,-2.8769,-2.8607,-2.8771,-3.0043,-3.0961,-3.1581,-3.1513,-3.1539,-3.1597,-3.1528,-3.0702,-2.9968,-3.1152,-3.018,-2.8742,-2.8742,-2.8248,-2.7899,-2.8457,-2.954,-3.0449,-3.0449,-3.0786,-3.0756,-2.9676,-2.8854,-2.8213,-2.7685,-2.76,-2.7405,-2.6851,-2.6183,-2.5794,-2.5899,0.0,-2.6808,-2.7558,-2.8702,-2.9188,-2.8645,-2.8436,-2.7904,-2.6941,-2.6998,0.0,0.0,-2.747,-2.7616,-2.6805,-2.7463,-2.7651,-2.7249,-2.8655,-2.9995,-3.1204,-3.0684,-3.08,-3.1455,-3.0893,-3.1008,-3.1649,-3.2223,-3.2482,-3.2513,-3.3136,-3.3829,-3.4489,-3.4401,-3.4813,-3.5447,-3.5339,-3.5293,-3.5316,-2.9772,-2.9681,-2.9674,-2.9543,-2.9509,-2.9201,-2.8293,-2.8738,-2.8895,-2.8155,-2.8262,-2.8648,-2.9265,-2.8356,-2.7969,-2.8591,-2.8091,-2.7959,-2.8463,-2.8487,-2.8756,-2.9361,-2.8919,-2.8654,-2.8654,-2.8559,-2.8487,-2.8487,-2.8996,-2.9361,-2.954,-2.954,-2.954,-2.9563,-3.0166,-3.0393,-3.0335,-3.0938,-3.0915,-3.0393,-2.9673,-2.9088,-2.8636,-2.8606,-2.8607,-2.8771,-3.0043,-3.0961,-3.1581,-3.1513,-3.1539,-3.1597,-3.1528,-3.0972,-3.0507,-3.1271,-3.0537,-2.943,-2.943,-2.8951,-2.8472,-2.8577,-2.9192,-2.9753,-2.9753,-2.938,-2.8994,-2.8815,-2.8217,-2.771,-2.7625,-2.76,-2.757,-2.7465,-2.6896,-2.6632,-2.721,0.0,-2.7009,-2.8192,-2.8979,-2.9559,-2.9959,-2.9006,-2.8536,-2.8905,-2.7527,-2.6861,-2.7242,-2.7409,-2.7391,-2.713,-2.7728,-2.8306,-2.884,-2.97,-3.0512,-3.128,-3.1194,-3.157,-3.2312,-3.2199,-3.2514,-3.3169,-3.3261,-3.3284,-3.3237,-3.3355,-3.3829,-3.4445,-3.3877,-3.4107,-3.4688,-3.4112,-3.3912,-3.3987,-2.9033,-2.8943,-2.8867,-2.8779,-2.9005,-2.8711,-2.7224,-2.8141,-2.8548,-2.7257,-2.802,-2.8715,-2.881,-2.8309,-2.8123,-2.8456,-2.7959,-2.771,-2.7993,-2.8033,-2.814,-2.8424,-2.8149,-2.8033,-2.8033,-2.8033,-2.8033,-2.8033,-2.828,-2.8614,-2.8919,-2.8919,-2.8919,-2.8943,-2.954,-2.9629,-2.9361,-2.9957,-3.0081,-2.9793,-2.9546,-2.9295,-2.9079,-2.946,-2.9624,-2.9759,-3.0688,-3.1259,-3.1541,-3.1506,-3.1287,-3.1055,-3.1401,-3.1032,-3.0642,-3.1301,-3.0612,-2.9457,-2.8723,-2.8304,-2.8154,-2.8502,-2.9086,-2.9517,-2.9131,-2.9086,-2.8921,-2.8214,-2.7824,-2.76,-2.76,-2.76,-2.748,-2.7121,-2.6806,0.0,0.0,-2.6806,-2.7055,-2.8338,-2.8748,-2.9157,-2.9761,-2.8984,-2.8573,-2.8888,-2.7826,-2.7259,-2.7473,-2.781,-2.7961,-2.7886,-2.7775,-2.8228,-2.9302,-2.9682,-3.0172,-3.083,-3.0854,-3.1234,-3.1893,-3.1558,-3.1983,-3.2975,-3.3334,-3.37,-3.4015,-3.4416,-3.4793,-3.5031,-3.4333,-3.4519,-3.5062,-3.4391,-3.4372,-3.4787,-2.8541,-2.8255,-2.8038,-2.7955,-2.8136,-2.7875,-2.6475,-2.7449,-2.7899,-2.6638,-2.7825,-2.8613,-2.8183,-2.8233,-2.8286,-2.8286,-2.7885,-2.76,-2.76,-2.76,-2.76,-2.76,-2.76,-2.76,-2.76,-2.76,-2.76,-2.76,-2.76,-2.7835,-2.8286,-2.8286,-2.8286,-2.8319,-2.8904,-2.8927,-2.855,-2.9309,-2.9555,-2.9435,-2.9659,-2.9657,-2.9577,-3.025,-3.0507,-3.0597,-3.1256,-3.1511,-3.1511,-3.1511,-3.1047,-3.0627,-3.1286,-3.0928,-3.0417,-3.1077,-3.0477,-2.9322,-2.7959,-2.7824,-2.8199,-2.8697,-2.9205,-2.9472,-2.8951,-2.9101,-2.9037,-2.7839,-2.76,-2.76,-2.76,-2.76,-2.7435,-2.6926,0.0,0.0,0.0,-2.6811,-2.7188,-2.8161,-2.8535,-2.8896,-2.9361,-2.9111,-2.8919,-2.8919,-2.8222,-2.781,-2.781,-2.8116,-2.8286,-2.8286,-2.7882,-2.8217,-2.9418,-2.9474,-2.9895,-3.0632,-3.0672,-3.0957,-3.1401,-3.0937,-3.1379,-3.2561,-3.3071,-3.3769,-3.4577,-3.5127,-3.5463,-3.5522,-3.4863,-3.4895,-3.5247,-3.4582,-3.4671,-3.5228,-2.8584,-2.759,-2.6702,-2.6578,-2.606,-2.5785,-2.6145,-2.6318,-2.6634,-2.7231,-2.7434,-2.7558,-2.7634,-2.7655,-2.7675,-2.7675,-2.7625,-2.76,-2.76,-2.76,-2.76,-2.76,-2.76,-2.76,-2.76,-2.76,-2.76,-2.76,-2.76,-2.7625,-2.7675,-2.7675,-2.7675,-2.7685,-2.831,-2.8535,-2.8581,-2.9808,-3.0006,-2.9543,-3.0175,-3.0081,-2.966,-3.028,-3.0507,-3.0597,-3.1256,-3.1511,-3.1511,-3.1511,-3.1047,-3.0627,-3.1286,-3.0672,-2.9774,-3.0402,-3.0103,-2.9322,-2.7959,-2.8513,-2.9472,-2.9517,-2.9577,-2.9592,-2.9547,-2.9071,-2.8472,-2.775,-2.76,-2.76,-2.76,-2.76,-2.7585,-2.7525,0.0,0.0,-2.7525,-2.7525,-2.7565,-2.766,-2.8646,-2.9361,-2.9406,-2.9886,-3.0166,-3.0166,-2.9088,-2.8415,-2.8415,-2.7959,-2.7675,-2.7675,-2.8167,-2.8759,-2.949,-2.9503,-3.0113,-3.132,-3.133,-3.1396,-3.1478,-3.1462,-3.1858,-3.259,-3.2644,-3.3389,-3.4605,-3.4655,-3.5053,-3.5539,-3.4872,-3.4596,-3.4492,-3.3834,-3.3622,-3.3744,-2.744,-2.6946,-2.6315,-2.544,-2.5363,-2.5352,-2.5222,-2.6146,-2.6904,-2.6892,-2.7578,-2.797,-2.7645,-2.76,-2.76,-2.76,-2.76,-2.76,-2.76,-2.76,-2.76,-2.76,-2.8004,-2.8203,-2.8203,-2.8203,-2.8203,-2.8203,-2.7809,-2.7809,-2.8203,-2.8203,-2.8427,-2.8843,-2.9089,-2.9193,-2.9208,-2.9694,-2.9776,-2.9618,-3.0243,-3.0353,-3.0223,-3.0853,-3.1122,-3.1152,-3.1406,-3.1511,-3.1511,-3.1511,-3.1331,-3.1152,-3.1421,-3.1167,-3.0746,-3.0552,-3.0342,-2.9968,-2.9082,-2.8918,-2.8966,-2.8966,-2.8966,-2.8966,-2.8966,-2.8786,-2.8412,-2.7735,-2.7944,-2.8094,-2.7675,-2.7944,-2.8068,-2.766,0.0,-2.775,-2.8143,-2.8203,-2.8518,-2.9307,-2.9791,-3.0212,-3.0563,-3.0447,-3.0341,-3.0305,-2.918,-2.8487,-2.8487,-2.7919,-2.76,-2.76,-2.7835,-2.8253,-2.895,-2.936,-2.9985,-3.0864,-3.1261,-3.1483,-3.1511,-3.1511,-3.1894,-3.2586,-3.2586,-3.3103,-3.402,-3.4431,-3.5017,-3.5604,-3.4832,-3.5071,-3.5713,-3.4546,-3.4367,-3.4853,-2.7246,-2.6702,-2.606,-2.5311,-2.5179,-2.5096,-2.4942,-2.6142,-2.7031,-2.6919,-2.7655,-2.8067,-2.765,-2.76,-2.76,-2.76,-2.76,-2.76,-2.76,-2.76,-2.76,-2.76,-2.8233,-2.8607,-2.8607,-2.8607,-2.8607,-2.8607,-2.7944,-2.7944,-2.8607,-2.8607,-2.8951,-2.9606,-2.9606,-2.9606,-2.9621,-2.9789,-2.9864,-2.9924,-3.0567,-3.0821,-3.0853,-3.1316,-3.1511,-3.1511,-3.1511,-3.1511,-3.1511,-3.1511,-3.1511,-3.1511,-3.1511,-3.1227,-3.0821,-3.0357,-3.0073,-2.9819,-2.9385,-2.8951,-2.8652,-2.8861,-2.8906,-2.8861,-2.8652,-2.8757,-2.8712,-2.8064,-2.8442,-2.8757,-2.8319,-2.8618,-2.8757,-2.8304,-2.8229,-2.8393,-2.8846,-2.8906,-2.9241,-3.0112,-3.0377,-3.0638,-3.0985,-3.1024,-3.0998,-3.0937,-3.0003,-2.9175,-2.8575,-2.7956,-2.7705,-2.7914,-2.7914,-2.8334,-2.919,-2.9445,-2.9998,-3.0808,-3.1271,-3.1511,-3.1511,-3.1511,-3.1768,-3.2259,-3.2474,-3.2936,-3.3625,-3.4295,-3.4978,-3.5551,-3.4789,-3.5245,-3.6187,-3.4955,-3.4906,-3.5554,-2.8367,-2.6914,-2.5794,-2.6368,-2.5446,-2.4829,-2.551,-2.6168,-2.6851,-2.751,-2.76,-2.76,-2.76,-2.76,-2.76,-2.76,-2.76,-2.76,-2.76,-2.76,-2.76,-2.76,-2.8233,-2.8607,-2.8607,-2.8607,-2.8607,-2.8607,-2.7944,-2.7959,-2.8607,-2.8607,-2.8966,-2.9621,-2.9621,-2.9621,-2.9666,-3.0253,-3.0507,-3.0567,-3.1227,-3.1511,-3.1511,-3.1511,-3.1511,-3.1511,-3.1511,-3.1511,-3.1511,-3.1511,-3.1511,-3.1511,-3.1511,-3.0642,-2.9621,-2.9621,-2.9131,-2.8607,-2.8607,-2.8607,-2.8771,-2.94,-2.9592,-2.9427,-2.8742,-2.9101,-2.9412,-2.8742,-2.9131,-2.9621,-2.9606,-2.9606,-2.9621,-2.9606,-2.9606,-2.9606,-2.9621,-2.9621,-2.9621,-2.9621,-3.0147,-3.0479,-3.0425,-3.1609,-3.2365,-3.23,-3.1798,-3.0649,-2.87,-2.7974,-2.7929,-2.8577,-2.8607,-2.922,-3.0492,-2.9894,-3.0238,-3.1511,-3.1511,-3.1511,-3.1511,-3.1511,-3.1511,-3.154,-3.2198,-3.2879,-3.3537,-3.4233,-3.49,-3.5427,-3.4761,-3.4927,-3.5415,-3.4758,-3.4906,-3.5504,-2.7231,-2.6326,-2.5511,-2.5221,-2.486,-2.4829,-2.551,-2.6168,-2.6851,-2.751,-2.76,-2.76,-2.76,-2.76,-2.76,-2.76,-2.76,-2.76,-2.76,-2.76,-2.7809,-2.8263,-2.8921,-2.949,-2.9924,-2.9939,-2.9939,-2.9939,-2.9295,-2.931,-2.9939,-2.9939,-3.0298,-3.0913,-3.0913,-3.0913,-3.0928,-3.1122,-3.1197,-3.1212,-3.1421,-3.1511,-3.1511,-3.1511,-3.1511,-3.1511,-3.1511,-3.1511,-3.1511,-3.1511,-3.1511,-3.1511,-3.1511,-3.0913,-3.0313,-3.0806,-3.0477,-2.9939,-2.9939,-2.9624,-2.9101,-2.8378,-2.8199,-2.8274,-2.8532,-2.8742,-2.8966,-2.9235,-2.9789,-3.0103,-2.9696,-2.9939,-3.0088,-2.9681,-2.9606,-2.9756,-3.0163,-3.0223,-3.0417,-3.0896,-3.1095,-3.118,-3.1104,-3.1454,-3.1697,-3.1677,-3.1133,-3.0145,-2.8689,-2.8846,-2.8888,-2.8607,-2.9056,-2.9684,-3.0492,-3.0313,-3.0672,-3.1511,-3.1511,-3.1511,-3.1511,-3.1511,-3.1511,-3.154,-3.2198,-3.2616,-3.2882,-3.4016,-3.4912,-3.5549,-3.5307,-3.5641,-3.6136,-3.4949,-3.4906,-3.5429,-2.7379,-2.6395,-2.5625,-2.5735,-2.5326,-2.5217,-2.5899,-2.6557,-2.7151,-2.754,-2.76,-2.76,-2.76,-2.76,-2.76,-2.76,-2.7839,-2.7884,-2.7615,-2.7854,-2.8304,-2.8966,-2.937,-2.9864,-3.0492,-3.0507,-3.0507,-3.0507,-2.9906,-2.9894,-3.0507,-3.0507,-3.0866,-3.1511,-3.1511,-3.1511,-3.1511,-3.1511,-3.1511,-3.1511,-3.1511,-3.1511,-3.1511,-3.1511,-3.1511,-3.1511,-3.1511,-3.1511,-3.1511,-3.1511,-3.1511,-3.1511,-3.1511,-3.1032,-3.0582,-3.0972,-3.0449,-2.9804,-3.0073,-2.9669,-2.9056,-2.8528,-2.8199,-2.8184,-2.8831,-2.9175,-2.946,-2.9864,-3.0462,-3.0763,-3.0417,-3.0657,-3.0791,-3.0417,-3.0357,-3.0492,-3.0823,-3.0883,-3.1032,-3.1451,-3.1511,-3.1453,-3.142,-3.1685,-3.1856,-3.1864,-3.1306,-3.0477,-2.9397,-2.9505,-2.9505,-2.9355,-2.9744,-3.0253,-3.0883,-3.1165,-3.1481,-3.1884,-3.163,-3.178,-3.2273,-3.2019,-3.2034,-3.2318,-3.3006,-3.329,-3.3365,-3.4442,-3.4997,-3.5126,-3.4811,-3.5148,-3.5645,-3.4526,-3.4696,-3.5444,-2.8295,-2.6905,-2.5982,-2.7211,-2.6404,-2.5839,-2.6497,-2.718,-2.76,-2.76,-2.76,-2.76,-2.76,-2.76,-2.76,-2.76,-2.8203,-2.8368,-2.7809,-2.8338,-2.8981,-2.9666,-2.9696,-2.9968,-3.0582,-3.0597,-3.0597,-3.0597,-3.0028,-3.0043,-3.0597,-3.0597,-3.0926,-3.1511,-3.1511,-3.1511,-3.1511,-3.1511,-3.1511,-3.1511,-3.1511,-3.1511,-3.1511,-3.1511,-3.1511,-3.1511,-3.1511,-3.1511,-3.1511,-3.1511,-3.1511,-3.1511,-3.1511,-3.1077,-3.0597,-3.0597,-2.9774,-2.8981,-2.9547,-2.922,-2.8921,-2.9594,-2.931,-2.8996,-2.9535,-3.0103,-3.0537,-3.0657,-3.1152,-3.1615,-3.1675,-3.163,-3.1585,-3.1585,-3.154,-3.1511,-3.1511,-3.1511,-3.1511,-3.1511,-3.1511,-3.1483,-3.1405,-3.2064,-3.2504,-3.2504,-3.1948,-3.1267,-3.0535,-3.0028,-2.9983,-3.0492,-3.0567,-3.0898,-3.1585,-3.2183,-3.2512,-3.2497,-3.1929,-3.2303,-3.3469,-3.2871,-3.2931,-3.3529,-3.4219,-3.4503,-3.4563,-3.522,-3.51,-3.4459,-3.3888,-3.4008,-3.4444,-3.3799,-3.4397,-3.5504,-2.776,-2.6609,-2.5856,-2.6645,-2.6129,-2.5839,-2.6497,-2.718,-2.76,-2.76,-2.76,-2.76,-2.76,-2.76,-2.76,-2.76,-2.8203,-2.8757,-2.9142,-2.9307,-2.9654,-3.0283,-3.0298,-3.0612,-3.1271,-3.1271,-3.1271,-3.1271,-3.1152,-3.1152,-3.1271,-3.1271,-3.1361,-3.1511,-3.1511,-3.1511,-3.1511,-3.1511,-3.1511,-3.1511,-3.1511,-3.1511,-3.1511,-3.1511,-3.1511,-3.1511,-3.1511,-3.1511,-3.1511,-3.1511,-3.1511,-3.1511,-3.1511,-3.1406,-3.1271,-3.1271,-3.1092,-3.0778,-3.0417,-3.0193,-3.0253,-3.0913,-3.0972,-3.0763,-3.0387,-3.0417,-3.0806,-3.1869,-3.2168,-3.2452,-3.2976,-3.2647,-3.2273,-3.2273,-3.1839,-3.1511,-3.1511,-3.1511,-3.1511,-3.1511,-3.1511,-3.1493,-3.1471,-3.1635,-3.1739,-3.1739,-3.1603,-3.1202,-3.0537,-3.0853,-3.0898,-3.0507,-3.1002,-3.16,-3.2273,-3.2437,-3.2512,-3.2512,-3.2886,-3.3215,-3.3499,-3.335,-3.3365,-3.3529,-3.4219,-3.4503,-3.4563,-3.522,-3.51,-3.4548,-3.4921,-3.4816,-3.4488,-3.4354,-3.4786,-3.5504,-2.7195,-2.6303,-2.5809,-2.6482,-2.6048,-2.5929,-2.6941,-2.7375,-2.76,-2.76,-2.76,-2.76,-2.76,-2.7899,-2.8214,-2.8528,-2.9131,-2.952,-2.9606,-2.9864,-3.0163,-3.0492,-3.0507,-3.0821,-3.1496,-3.1511,-3.1511,-3.1511,-3.1511,-3.1511,-3.1511,-3.1511,-3.1511,-3.1511,-3.1511,-3.1511,-3.1511,-3.1511,-3.1511,-3.1511,-3.1511,-3.1511,-3.1511,-3.1511,-3.1511,-3.1511,-3.1511,-3.1511,-3.1511,-3.1511,-3.1511,-3.1511,-3.1511,-3.1511,-3.1511,-3.1511,-3.1271,-3.1002,-3.0972,-3.0972,-3.1137,-3.1809,-3.2213,-3.2377,-3.2003,-3.1928,-3.2123,-3.2841,-3.2976,-3.308,-3.344,-3.3215,-3.2886,-3.2557,-3.2452,-3.2333,-3.2019,-3.1974,-3.1974,-3.1974,-3.169,-3.1511,-3.1511,-3.1511,-3.1511,-3.1511,-3.1511,-3.1346,-3.0987,-3.1316,-3.1346,-3.0972,-3.1615,-3.2138,-3.2512,-3.314,-3.344,-3.344,-3.3484,-3.3829,-3.4442,-3.4113,-3.4143,-3.4472,-3.4816,-3.4966,-3.4966,-3.4996,-3.4833,-3.4518,-3.4532,-3.4517,-3.4503,-3.4503,-3.4906,-3.5504,-2.6881,-2.6228,-2.5989,-2.6632,-2.6213,-2.6183,-2.7405,-2.76,-2.76,-2.76,-2.76,-2.76,-2.76,-2.8188,-2.8906,-2.9696,-3.0208,-3.0342,-2.9939,-3.0387,-3.0672,-3.0672,-3.0672,-3.0913,-3.1496,-3.1511,-3.1511,-3.1511,-3.1511,-3.1511,-3.1511,-3.1511,-3.1511,-3.1511,-3.1511,-3.1511,-3.1511,-3.1511,-3.1511,-3.1511,-3.1511,-3.1511,-3.1511,-3.1511,-3.1511,-3.1511,-3.1511,-3.1511,-3.1511,-3.1511,-3.1511,-3.1511,-3.1511,-3.1511,-3.1511,-3.1511,-3.1182,-3.0971,-3.1511,-3.175,-3.1989,-3.2677,-3.326,-3.3694,-3.3814,-3.3664,-3.3529,-3.3649,-3.3664,-3.3709,-3.3814,-3.3739,-3.3484,-3.2946,-3.3215,-3.3305,-3.2766,-3.2557,-3.2512,-3.2512,-3.1914,-3.1511,-3.1511,-3.1511,-3.1555,-3.166,-3.157,-3.1555,-3.166,-3.157,-3.1555,-3.1675,-3.2198,-3.2617,-3.2841,-3.3933,-3.4563,-3.4668,-3.4098,-3.4427,-3.5489,-3.4906,-3.4966,-3.5504,-3.5504,-3.5504,-3.5459,-3.4891,-3.4608,-3.4474,-3.4008,-3.4098,-3.4518,-3.4638,-3.5011,-3.5504,-2.748,-2.6926,-2.6686,-2.7345,-2.6926,-2.6707,-2.748,-2.76,-2.76,-2.76,-2.76,-2.76,-2.76,-2.8188,-2.9086,-3.0268,-3.0447,-3.0717,-3.1212,-3.1316,-3.1361,-3.1361,-3.1361,-3.1406,-3.1511,-3.1511,-3.1511,-3.1511,-3.1511,-3.1511,-3.1511,-3.1511,-3.1511,-3.1511,-3.1511,-3.1511,-3.1511,-3.1511,-3.1511,-3.1511,-3.1511,-3.1511,-3.1511,-3.1511,-3.1511,-3.1511,-3.1511,-3.1511,-3.1511,-3.1511,-3.1511,-3.1511,-3.1511,-3.1511,-3.1511,-3.1511,-3.1839,-3.2258,-3.2333,-3.2796,-3.338,-3.4038,-3.4309,-3.4533,-3.51,-3.4337,-3.3649,-3.4264,-3.4369,-3.4548,-3.5115,-3.4741,-3.4354,-3.4218,-3.3814,-3.3469,-3.338,-3.2871,-3.2512,-3.2512,-3.1914,-3.1511,-3.1511,-3.1511,-3.1735,-3.2303,-3.1824,-3.175,-3.2318,-3.1809,-3.1765,-3.2333,-3.2437,-3.3066,-3.4234,-3.4414,-3.4771,-3.537,-3.5265,-3.5325,-3.5504,-3.5415,-3.5415,-3.5504,-3.5504,-3.5504,-3.5489,-3.54,-3.5011,-3.4563,-3.504,-3.4921,-3.4578,-3.5145,-3.5429,-3.5504,-2.7121,-2.6806,-2.6701,-2.7001,-2.6806,-2.6836,-2.7495,-2.76,-2.76,-2.76,-2.76,-2.76,-2.76,-2.8543,-2.9669,-3.0943,-3.1047,-3.0995,-3.0852,-3.1248,-3.1307,-3.0837,-3.1248,-3.1511,-3.1511,-3.1058,-3.1058,-3.1511,-3.1511,-3.1278,-3.0837,-3.1278,-3.1511,-3.1511,-3.1511,-3.1511,-3.1511,-3.1511,-3.1511,-3.1511,-3.1511,-3.1511,-3.1511,-3.1511,-3.1511,-3.1511,-3.1511,-3.1511,-3.1511,-3.1511,-3.1511,-3.1511,-3.1511,-3.1511,-3.157,-3.1944,-3.2258,-3.2572,-3.2961,-3.3544,-3.4144,-3.4444,-3.4788,-3.513,-3.5429,-3.504,-3.4696,-3.4996,-3.5055,-3.5145,-3.5444,-3.525,-3.4921,-3.4563,-3.4562,-3.4352,-3.3604,-3.3245,-3.2781,-3.2019,-3.1675,-3.1511,-3.1511,-3.1839,-3.2019,-3.1944,-3.2348,-3.2407,-3.1959,-3.2363,-3.2587,-3.2512,-3.323,-3.3888,-3.4503,-3.4861,-3.5205,-3.5504,-3.5504,-3.5504,-3.5504,-3.5504,-3.5504,-3.5504,-3.5504,-3.5504,-3.5474,-3.51,-3.4981,-3.504,-3.4966,-3.4981,-3.5085,-3.5385,-3.5504,-3.5504]},{"header":{"parameterUnit":"m.s-1","parameterCategory":1,"la1":30.6,"la2":28.766,"lo1":-90.7593,"lo2":-88.6598,"dy":0.0162,"dx":0.0183,"nx":116,"ny":114,"refTime":"2023-02-24T06:00:00:Z","depth":0,"parameterNumber":3,"parameterNumberName":"V-component_of_WINDS"},"data":[0.0,0.0,0.0,0.0,0.0,0.0,0.0,0.0,0.0,0.0,0.0,0.0,0.0,0.0,0.0,0.0,0.0,0.0,0.0,0.0,0.0,0.0,0.0,0.0,0.0,0.0,0.0,0.0,0.0,0.0,0.0,0.0,0.0,0.0,0.0,0.0,0.0,0.0,0.0,0.0,0.0,0.0,0.0,0.0,0.0,0.0,0.0,0.0,0.0,0.0,0.0,0.0,0.0,0.0,0.0,0.0,0.0,0.0,0.0,0.0,0.0,0.0,0.0,0.0,0.0,0.0,0.0,0.0,0.0,0.0,0.0,0.0,0.0,0.0,0.0,0.0,0.0,0.0,0.0,0.0,0.0,0.0,0.0,0.0,0.0,0.0,0.0,0.0,0.0,0.0,0.0,0.0,0.0,0.0,0.0,0.0,0.0,0.0,0.0,0.0,0.0,0.0,0.0,0.0,0.0,0.0,0.0,0.0,0.0,0.0,0.0,0.0,0.0,0.0,0.0,0.0,0.0,0.0,0.0,0.0,0.0,0.0,0.0,0.0,0.0,0.0,0.0,0.0,0.0,0.0,0.0,0.0,0.0,0.0,0.0,0.0,0.0,0.0,0.0,0.0,0.0,0.0,0.0,0.0,0.0,0.0,0.0,0.0,0.0,0.0,0.0,0.0,0.0,0.0,0.0,0.0,0.0,0.0,0.0,0.0,0.0,0.0,0.0,0.0,0.0,0.0,0.0,0.0,0.0,0.0,0.0,0.0,0.0,0.0,0.0,0.0,0.0,0.0,0.0,0.0,0.0,0.0,0.0,0.0,0.0,0.0,0.0,0.0,0.0,0.0,0.0,0.0,0.0,0.0,0.0,0.0,0.0,0.0,0.0,0.0,0.0,0.0,0.0,0.0,0.0,0.0,0.0,0.0,0.0,0.0,0.0,0.0,0.0,0.0,0.0,0.0,0.0,0.0,0.0,0.0,0.0,0.0,0.0,0.0,0.0,0.0,0.0,0.0,0.0,0.0,0.0,0.0,0.0,0.0,0.0,0.0,0.0,0.0,0.0,0.0,0.0,0.0,0.0,0.0,0.0,0.0,0.0,0.0,0.0,0.0,0.0,0.0,0.0,0.0,0.0,0.0,0.0,0.0,0.0,0.0,0.0,0.0,0.0,0.0,0.0,0.0,0.0,0.0,0.0,0.0,0.0,0.0,0.0,0.0,0.0,0.0,0.0,0.0,0.0,0.0,0.0,0.0,0.0,0.0,0.0,0.0,0.0,0.0,0.0,0.0,0.0,0.0,0.0,0.0,0.0,0.0,0.0,0.0,0.0,0.0,0.0,0.0,0.0,0.0,0.0,0.0,0.0,0.0,0.0,0.0,0.0,0.0,0.0,0.0,0.0,0.0,0.0,0.0,0.0,0.0,0.0,0.0,0.0,0.0,0.0,0.0,0.0,0.0,0.0,0.0,0.0,0.0,0.0,0.0,0.0,0.0,0.0,0.0,0.0,0.0,0.0,0.0,0.0,0.0,0.0,0.0,0.0,0.0,0.0,0.0,0.0,0.0,0.0,0.0,0.0,0.0,0.0,0.0,0.0,0.0,0.0,0.0,0.0,0.0,0.0,0.0,0.0,0.0,0.0,0.0,0.0,0.0,0.0,0.0,0.0,0.0,0.0,0.0,0.0,0.0,0.0,0.0,0.0,0.0,0.0,0.0,0.0,0.0,0.0,0.0,0.0,0.0,0.0,0.0,0.0,0.0,0.0,0.0,0.0,0.0,0.0,0.0,0.0,0.0,0.0,0.0,0.0,0.0,0.0,0.0,0.0,0.0,0.0,0.0,0.0,0.0,0.0,0.0,0.0,0.0,0.0,0.0,0.0,0.0,0.0,0.0,0.0,0.0,0.0,0.0,0.0,0.0,0.0,0.0,0.0,0.0,0.0,0.0,0.0,0.0,0.0,0.0,0.0,0.0,0.0,0.0,0.0,0.0,0.0,0.0,0.0,0.0,0.0,0.0,0.0,0.0,0.0,0.0,0.0,0.0,0.0,0.0,0.0,0.0,0.0,0.0,0.0,0.0,0.0,0.0,0.0,0.0,0.0,0.0,0.0,0.0,0.0,0.0,0.0,0.0,0.0,0.0,0.0,0.0,0.0,0.0,0.0,0.0,0.0,0.0,0.0,0.0,0.0,0.0,0.0,0.0,0.0,0.0,0.0,0.0,0.0,0.0,0.0,0.0,0.0,0.0,0.0,0.0,0.0,0.0,0.0,0.0,0.0,0.0,0.0,0.0,0.0,0.0,0.0,0.0,0.0,0.0,0.0,0.0,0.0,0.0,0.0,0.0,0.0,0.0,0.0,0.0,0.0,0.0,0.0,0.0,0.0,0.0,0.0,0.0,0.0,0.0,0.0,0.0,0.0,0.0,0.0,0.0,0.0,0.0,0.0,0.0,0.0,0.0,0.0,0.0,0.0,0.0,0.0,0.0,0.0,0.0,0.0,0.0,0.0,0.0,0.0,0.0,0.0,0.0,0.0,0.0,0.0,0.0,0.0,0.0,0.0,0.0,0.0,0.0,0.0,0.0,0.0,0.0,0.0,0.0,0.0,0.0,0.0,0.0,0.0,0.0,0.0,0.0,0.0,0.0,0.0,0.0,0.0,0.0,0.0,0.0,0.0,0.0,0.0,0.0,0.0,0.0,0.0,0.0,0.0,0.0,0.0,0.0,0.0,0.0,0.0,0.0,0.0,0.0,0.0,0.0,0.0,0.0,0.0,0.0,0.0,0.0,0.0,0.0,0.0,0.0,0.0,0.0,0.0,0.0,0.0,0.0,0.0,0.0,0.0,0.0,0.0,0.0,0.0,0.0,0.0,0.0,0.0,0.0,0.0,0.0,0.0,0.0,0.0,0.0,0.0,0.0,0.0,0.0,0.0,0.0,0.0,0.0,0.0,0.0,0.0,0.0,0.0,0.0,0.0,0.0,0.0,0.0,0.0,0.0,0.0,0.0,0.0,0.0,0.0,0.0,0.0,0.0,0.0,0.0,0.0,0.0,0.0,0.0,0.0,0.0,0.0,0.0,0.0,0.0,0.0,0.0,0.0,0.0,0.0,0.0,0.0,0.0,0.0,0.0,0.0,0.0,0.0,0.0,0.0,0.0,0.0,0.0,0.0,0.0,0.0,0.0,0.0,0.0,0.0,0.0,0.0,0.0,0.0,0.0,0.0,0.0,0.0,0.0,0.0,0.0,0.0,0.0,0.0,0.0,0.0,0.0,0.0,0.0,0.0,0.0,0.0,0.0,0.0,0.0,0.0,0.0,0.0,0.0,0.0,0.0,0.0,0.0,0.0,0.0,0.0,0.0,0.0,0.0,0.0,0.0,0.0,0.0,0.0,0.0,0.0,0.0,0.0,0.0,0.0,0.0,0.0,0.0,0.0,0.0,0.0,0.0,0.0,0.0,0.0,0.0,0.0,0.0,0.0,0.0,0.0,0.0,0.0,0.0,0.0,0.0,0.0,0.0,0.0,0.0,0.0,0.0,0.0,0.0,0.0,0.0,0.0,0.0,0.0,0.0,0.0,0.0,0.0,0.0,0.0,0.0,0.0,0.0,0.0,0.0,0.0,0.0,0.0,0.0,0.0,0.0,0.0,0.0,0.0,0.0,0.0,0.0,0.0,0.0,0.0,0.0,0.0,0.0,0.0,0.0,0.0,0.0,0.0,0.0,0.0,0.0,0.0,0.0,0.0,0.0,0.0,0.0,0.0,0.0,0.0,0.0,0.0,0.0,0.0,0.0,0.0,0.0,0.0,0.0,0.0,0.0,0.0,0.0,0.0,0.0,0.0,0.0,0.0,0.0,0.0,0.0,0.0,0.0,0.0,0.0,0.0,0.0,0.0,0.0,0.0,0.0,0.0,0.0,0.0,0.0,0.0,0.0,0.0,0.0,0.0,0.0,0.0,0.0,0.0,0.0,0.0,0.0,0.0,0.0,0.0,0.0,0.0,0.0,0.0,0.0,0.0,0.0,0.0,0.0,0.0,0.0,0.0,0.0,0.0,0.0,0.0,0.0,0.0,0.0,0.0,0.0,0.0,0.0,0.0,0.0,0.0,0.0,0.0,0.0,0.0,0.0,0.0,0.0,0.0,0.0,0.0,0.0,0.0,0.0,0.0,0.0,0.0,0.0,0.0,0.0,0.0,0.0,0.0,0.0,0.0,0.0,0.0,0.0,0.0,0.0,0.0,0.0,0.0,0.0,0.0,0.0,0.0,0.0,0.0,0.0,0.0,0.0,0.0,0.0,0.0,0.0,0.0,0.0,0.0,0.0,0.0,0.0,0.0,0.0,0.0,0.0,0.0,0.0,0.0,0.0,0.0,0.0,0.0,0.0,0.0,0.0,0.0,0.0,0.0,0.0,0.0,0.0,0.0,0.0,0.0,0.0,0.0,0.0,0.0,0.0,0.0,0.0,0.0,0.0,0.0,0.0,0.0,0.0,0.0,0.0,0.0,0.0,0.0,0.0,0.0,0.0,0.0,0.0,0.0,0.0,0.0,0.0,0.0,0.0,0.0,0.0,0.0,0.0,0.0,0.0,0.0,0.0,0.0,0.0,0.0,0.0,0.0,0.0,0.0,0.0,0.0,0.0,0.0,0.0,0.0,0.0,0.0,0.0,0.0,0.0,0.0,0.0,0.0,0.0,0.0,0.0,0.0,0.0,0.0,0.0,0.0,0.0,0.0,0.0,0.0,0.0,0.0,0.0,0.0,0.0,0.0,0.0,0.0,0.0,0.0,0.0,0.0,0.0,0.0,0.0,0.0,0.0,0.0,0.0,0.0,0.0,0.0,0.0,0.0,0.0,0.0,0.0,0.0,0.0,0.0,0.0,0.0,0.0,0.0,0.0,0.0,0.0,0.0,0.0,0.0,0.0,0.0,0.0,0.0,0.0,0.0,0.0,0.0,0.0,0.0,0.0,0.0,0.0,0.0,0.0,0.0,0.0,0.0,0.0,0.0,0.0,0.0,0.0,0.0,0.0,0.0,0.0,0.0,0.0,0.0,0.0,0.0,0.0,0.0,0.0,0.0,0.0,0.0,0.0,0.0,0.0,0.0,0.0,0.0,0.0,0.0,0.0,0.0,0.0,0.0,0.0,0.0,0.0,0.0,0.0,0.0,0.0,0.0,0.0,0.0,0.0,0.0,0.0,0.0,0.0,0.0,0.0,0.0,0.0,0.0,0.0,0.0,0.0,0.0,0.0,0.0,0.0,0.0,0.0,0.0,0.0,0.0,0.0,0.0,0.0,0.0,0.0,0.0,0.0,0.0,0.0,0.0,0.0,0.0,0.0,0.0,0.0,0.0,0.0,0.0,0.0,0.0,0.0,0.0,0.0,0.0,0.0,0.0,0.0,0.0,0.0,0.0,0.0,0.0,0.0,0.0,0.0,0.0,0.0,0.0,0.0,0.0,0.0,0.0,0.0,0.0,0.0,0.0,0.0,0.0,0.0,0.0,0.0,0.0,0.0,0.0,0.0,0.0,0.0,0.0,0.0,0.0,0.0,0.0,0.0,0.0,0.0,0.0,0.0,0.0,0.0,0.0,0.0,0.0,0.0,0.0,0.0,0.0,0.0,0.0,0.0,0.0,0.0,0.0,0.0,0.0,0.0,0.0,0.0,0.0,0.0,0.0,0.0,0.0,0.0,0.0,0.0,0.0,0.0,0.0,0.0,0.0,0.0,0.0,0.0,0.0,0.0,0.0,0.0,0.0,0.0,0.0,0.0,0.0,0.0,0.0,0.0,0.0,0.0,0.0,0.0,0.0,0.0,0.0,0.0,0.0,0.0,0.0,0.0,0.0,0.0,0.0,0.0,0.0,0.0,0.0,0.0,0.0,0.0,0.0,0.0,0.0,0.0,0.0,0.0,0.0,0.0,0.0,0.0,0.0,0.0,0.0,0.0,0.0,0.0,0.0,0.0,0.0,0.0,0.0,0.0,0.0,0.0,0.0,0.0,0.0,0.0,0.0,0.0,0.0,0.0,0.0,0.0,0.0,0.0,0.0,0.0,0.0,0.0,0.0,0.0,0.0,0.0,0.0,0.0,0.0,0.0,0.0,0.0,-0.3314,0.0,0.0,0.0,0.0,0.0,0.0,0.0,0.0,0.0,0.0,0.0,0.0,0.0,0.0,0.0,0.0,0.0,0.0,0.0,0.0,0.0,0.0,0.0,0.0,0.0,0.0,0.0,0.0,0.0,0.0,0.0,0.0,0.0,0.0,0.0,0.0,0.0,0.0,0.0,0.0,0.0,0.0,0.0,0.0,0.0,0.0,0.0,0.0,0.0,0.0,0.0,0.0,0.0,0.0,0.0,0.0,0.0,0.0,0.0,0.0,0.0,0.0,0.0,0.0,0.0,0.0,0.0,0.0,0.0,0.0,0.0,0.0,0.0,0.0,0.0,0.0,0.0,0.0,0.0,0.0,0.0,0.0,0.0,0.0,0.0,0.0,0.0,0.0,0.0,0.0,0.0,0.0,0.0,0.0,0.0,0.0,0.0,0.0,0.0,0.0,0.0,0.0,0.0,0.0,0.0,0.0,0.0,0.0,0.0,0.0,0.0,0.0,0.0,0.0,0.0,0.0,-0.2227,0.0,0.0,0.0,0.0,0.0,0.0,0.0,0.0,0.0,0.0,0.0,0.0,0.0,0.0,0.0,0.0,0.0,0.0,0.0,0.0,0.0,0.0,0.0,0.0,0.0,0.0,0.0,0.0,0.0,0.0,0.0,0.0,0.0,0.0,0.0,0.0,0.0,0.0,0.0,0.0,0.0,0.0,0.0,0.0,0.0,0.0,0.0,0.0,0.0,0.0,0.0,0.0,0.0,0.0,0.0,0.0,0.0,0.0,0.0,0.0,0.0,0.0,0.0,0.0,0.0,0.0,0.0,0.0,0.0,0.0,0.0,0.0,0.0,0.0,0.0,0.0,0.0,0.0,0.0,0.0,0.0,0.0,0.0,0.0,0.0,0.0,0.0,0.0,0.0,0.0,0.0,0.0,0.0,0.0,0.0,0.0,0.0,0.0,0.0,0.0,0.0,0.0,0.0,0.0,0.0,0.0,0.0,0.0,-0.1942,-0.1942,-0.1829,-0.1829,-0.1489,-0.0894,-0.0779,-0.114,-0.1757,0.0,0.0,0.0,0.0,0.0,0.0,0.0,0.0,0.0,0.0,0.0,0.0,0.0,0.0,0.0,0.0,0.0,0.0,0.0,0.0,0.0,0.0,0.0,0.0,0.0,0.0,0.0,0.0,0.0,0.0,0.0,0.0,0.0,0.0,0.0,0.0,0.0,0.0,0.0,0.4183,0.4202,0.4238,0.4279,0.2848,0.0,0.0,0.0,0.0,0.0,0.0,0.0,0.0,0.0,0.0,0.0,0.0,0.0,0.0,0.0,0.0,0.0,0.0,0.0,0.0,0.0,0.0,0.0,0.0,0.0,0.0,0.0,0.0,0.0,0.0,0.0,0.0,0.0,0.0,0.0,0.0,0.0,0.0,0.0,0.0,0.0,0.0,0.0,0.1496,0.0965,0.0,0.0,0.0,0.0,0.0,0.0,0.0,0.0,0.0,0.0,0.0,0.0,0.0,-0.0783,-0.014,-0.0783,-0.0823,-0.0292,-0.0934,-0.0905,-0.0292,-0.0292,-0.023,-0.0112,0.0531,0.0,-0.028,-0.0196,0.0,0.0,0.0,0.0,0.0,0.0,0.0,0.0,0.0,0.0,0.0,0.0,0.0,0.0,0.0,0.0,0.0,0.0,0.0,0.0,0.0,0.0,0.0,0.0,0.0,0.0,0.0,0.0,0.0,0.0,0.0,0.0,0.0,0.0,0.0,0.0,0.3342,0.4156,0.4621,0.4677,0.4755,0.4786,0.4033,0.3527,0.3193,0.2961,0.0,0.0,0.0,0.0,0.0,0.0,0.0,0.0,0.0,0.0,0.0,0.0,0.0,0.0,0.0,0.0,0.0,0.0,0.0,0.0,0.0,0.0,0.0,0.0,0.0,0.0,0.0,0.0,0.0,0.0,0.0,0.0,0.0,0.0,0.0,0.0,0.0,0.0,0.0,0.1466,0.1433,0.151,0.0562,-0.0055,0.0,0.0,0.0,0.0,0.0,0.0,0.0,0.0,0.0,-0.046,-0.0489,-0.032,0.0,-0.0326,-0.0328,0.0,-0.0332,-0.0302,0.0,0.0,0.0,0.003,0.0355,0.0293,0.0058,0.0902,0.0978,0.0699,0.0,0.0,0.0,0.0,0.0,0.2202,0.0,0.0,0.0,0.0,0.0,0.0,0.0,0.0,0.0,0.0,0.0,0.0,0.0,0.0,0.0,0.3708,0.0,0.0,0.0,0.0,0.0,0.0,0.0,0.0,0.0,0.0,0.0,0.0,0.4323,0.4728,0.4806,0.4918,0.4965,0.5033,0.5033,0.4658,0.4057,0.4032,0.3457,0.0,0.0,0.0,0.0,0.0,0.0,0.0,0.0,0.0,0.0,0.0,0.0,0.0,0.0,0.0,0.0,0.0,0.0,0.0,0.0,0.0,0.0,0.0,0.0,0.0,0.0,0.0,0.0,0.0,0.0,0.0,0.0,0.0,0.0,0.0,0.0,0.0,0.0,0.1456,0.1376,0.1683,0.1001,0.0387,0.0,0.0,0.0,0.0,0.0,0.0,0.086,0.0832,0.0581,0.003,0.0,0.0,0.0,0.0,0.0,0.0,0.0,0.0,0.0,0.0,0.0,0.0,0.0,0.0,0.0089,0.1176,0.1435,0.1174,0.1925,0.2315,0.2539,0.2759,0.2809,0.279,0.0,0.0,0.0,0.0,0.0,0.0,0.0,0.0,0.0,0.0,0.0,0.0,0.0,0.0,0.4089,0.4927,0.49,0.4549,0.0,0.0,0.0,0.0,0.0,0.0,0.0,0.0,0.0,0.4609,0.4684,0.4833,0.5076,0.5083,0.5199,0.5371,0.5371,0.5368,0.533,0.5572,0.4921,0.3741,0.0,0.0,0.0,0.0,0.0,0.0,0.0,0.0,0.0,0.0,0.0,0.0,0.0,0.0,0.0,0.0,0.0,0.0,0.0,0.0,0.0,0.0,0.0,0.0,0.0,0.0,0.0,0.0,0.0,0.0,0.0,0.0,0.0,0.0,0.0,0.0,0.0,0.0,0.0,0.1011,0.1513,0.0,0.0,0.0,0.0,0.0117,0.0088,0.0089,0.0061,0.0061,0.0031,0.0,0.0,0.0,0.0,0.0,0.0,0.0,0.0,0.0,0.0,0.0,0.0,0.0,0.0,0.0,0.0,0.0089,0.049,0.1174,0.1925,0.2676,0.3441,0.4276,0.45,0.4397,0.0,0.0,0.0,0.0,0.0,0.0,0.0,0.0,0.0,0.0,0.0,0.0,0.0,0.2971,0.3783,0.5176,0.5325,0.5097,0.4534,0.0,0.0,0.0,0.0,0.0,0.0,0.0,0.4327,0.4573,0.4741,0.4908,0.51,0.51,0.5213,0.5395,0.5395,0.5395,0.5404,0.5259,0.4895,0.4386,0.4296,0.3689,0.0,0.0,0.0,0.0,0.0,0.0,0.0,0.0,0.0,0.0,0.0,0.0,0.0,0.0,0.0,0.0,0.0,0.0,0.0,0.0,0.0,0.0,0.0,0.0,0.0,0.0,0.0,0.0,0.0,0.0,0.0,0.0,0.0,0.0,0.0,0.0,0.0,0.1004,0.0833,0.0,0.0,0.0681,0.0995,0.0716,0.1154,0.1222,0.0729,0.0698,0.0476,0.0,0.0,0.0,0.0,0.0,0.0,0.0,0.0,0.0,0.0,0.0,0.0,0.0,0.0,0.0,0.0,0.0,0.0429,0.122,0.2584,0.3266,0.3618,0.4413,0.4718,0.4735,0.0,0.0,0.0,0.0,0.0,0.0,0.0,0.0,0.0,0.0,0.0,0.1239,0.2116,0.2884,0.3787,0.4891,0.4993,0.499,0.4982,0.0,0.0,0.0,0.0,0.0,0.0,0.4263,0.4741,0.4716,0.4942,0.5118,0.5209,0.5209,0.5264,0.5395,0.5395,0.5395,0.5385,0.5206,0.4999,0.4774,0.4744,0.4366,0.3786,0.0,0.0,0.0,0.0,0.0,0.0,0.0,0.0,0.0,0.0,0.0,0.0,0.0,0.0,0.0,0.0,0.0,0.0,0.0,0.0,0.0,0.0,0.0,0.0,0.0,0.0,0.0,0.0,0.0,0.0,0.0,0.0,0.0,0.0,0.0,0.018,0.0667,0.0531,0.0286,0.0032,0.0667,0.0996,0.0761,0.1193,0.1231,0.0739,0.074,0.0505,0.0,0.0,0.0,0.0,0.0,0.0,0.0,0.0,0.0,0.0,0.0,0.0,0.0,0.0,0.0,0.0,0.0,0.0291,0.0888,0.2571,0.3378,0.3712,0.4523,0.4874,0.488,0.0,0.0,0.0,0.0,0.0,0.0,0.0,0.0,0.0,0.0,0.154,0.2275,0.1414,0.298,0.4138,0.4174,0.3929,0.4151,0.5004,0.3287,0.0,0.0,0.0,0.0,0.3632,0.448,0.4958,0.5083,0.5277,0.5382,0.5375,0.5382,0.5388,0.5388,0.5392,0.5399,0.5412,0.5562,0.5342,0.4992,0.5551,0.5435,0.48,0.0,0.0,0.0,0.0,0.0,0.0,0.0,0.0,0.0,0.0,0.0,0.0,0.0,0.0,0.0,0.0,0.0,0.0,0.0,0.0,0.0,0.0,0.0,0.0,0.0,0.0,0.0,0.0,0.0,0.0,0.0,0.0,0.0,0.0,0.0,0.0,0.0,0.063,0.0776,0.0068,0.0641,0.0785,0.007,0.0,0.0,0.0,0.0,0.0,0.0,0.0,0.0,0.0,0.0,0.0,0.0,0.0,0.0,0.0,0.0,0.0,0.0,0.0,0.0,0.0,0.0,0.0,0.0168,0.1831,0.2926,0.3707,0.4694,0.4967,0.4854,0.0,0.0,0.0,0.0,0.0,0.0,0.0,0.0,0.0,0.0,0.0424,0.0933,0.1454,0.1998,0.2616,0.334,0.3468,0.3704,0.4131,0.0,0.0,0.0,0.0,0.0,0.4394,0.4819,0.4955,0.4813,0.5067,0.5084,0.4911,0.5094,0.5196,0.5199,0.5344,0.5457,0.5532,0.5572,0.5576,0.5525,0.5378,0.5189,0.4995,0.0,0.0,0.0,0.0,0.0,0.0,0.0,0.0,0.0,0.0,0.0,0.0,0.0,0.0,0.0,0.0,0.0,0.0,0.0,0.0,0.0,0.0,0.0,0.0,0.0,0.0,0.0,0.0,0.0,0.0,0.0,0.0,0.0,0.0,0.0,0.0,0.0,0.0176,0.0214,0.0036,0.0178,0.0216,0.0,0.0,0.0,0.0,0.0,0.0,0.0,0.0,0.0,0.0,0.0,0.0,0.0,0.0,0.0,0.0,0.0,0.0,0.0,0.0,0.0,0.0,0.0,0.0,0.0104,0.1197,0.2159,0.303,0.3744,0.4267,0.4641,0.0,0.0,0.0,0.0,0.0,0.0,0.0,0.0,0.0,0.0,0.0396,0.0742,0.0907,0.1342,0.18,0.2319,0.2392,0.2801,0.3664,0.0,0.0,0.0,0.0,0.4247,0.484,0.5012,0.5077,0.5003,0.5145,0.5142,0.5006,0.5148,0.5226,0.5233,0.5423,0.5542,0.5599,0.5722,0.5823,0.5874,0.5578,0.5474,0.5423,0.504,0.4723,0.4486,0.4299,0.423,0.4224,0.4037,0.0,0.0,0.0,0.0,0.0,0.0,0.0,0.0,0.0,0.0,0.0,0.0,0.0,0.0,0.0,0.0,0.0,0.0,0.0,0.0,0.0,0.0,0.0,0.0,0.0,0.0,0.0,0.0,0.0,0.0,0.0,0.0,0.0,0.0,0.0,0.0,0.0,0.0,0.0,0.0,0.0,0.0,0.0,0.0,0.0,0.0,0.0,0.0,0.0,0.024,0.0666,0.0193,0.0228,0.0,0.0183,0.0,0.0,0.0,0.0,0.0,0.0,0.0,0.0,0.0,0.4482,0.4687,0.0,0.0,0.0,0.0,0.0,0.0,0.0,0.0,0.0,0.0,0.0,0.1042,0.0092,0.0855,0.1338,0.1173,0.1092,0.1767,0.0,0.0,0.0,0.3765,0.4361,0.4847,0.5093,0.5117,0.5216,0.5368,0.5385,0.5378,0.5344,0.5378,0.5385,0.5375,0.5528,0.5583,0.563,0.5891,0.5986,0.602,0.602,0.6006,0.5946,0.5586,0.5583,0.5742,0.5494,0.5814,0.6292,0.6053,0.0,0.0,0.0,0.0,0.0,0.0,0.0,0.0,0.0,0.0,0.0,0.0,0.0,0.0,0.0,0.0,0.0,0.0,0.0,0.0,0.0,0.0,0.0,0.0,0.0,0.0,0.0,0.0,0.0,0.0,0.0,0.0,0.0,0.0,0.0,0.0,0.0,0.004,0.0158,0.0,0.0,0.0,0.0,0.0,0.0,0.0,0.0,0.0,0.0126,0.07,0.1579,0.0631,0.0731,0.1547,0.0478,0.0,0.0,0.0,0.0072,0.0245,0.1119,0.2006,0.3031,0.4749,0.5176,0.0,0.0,0.0,0.0,0.0,0.0,0.0,0.0,0.0,0.0,0.0,0.0176,0.0244,0.0029,0.0183,0.028,0.0268,0.058,0.1479,0.0,0.0,0.4557,0.4649,0.4783,0.4924,0.5096,0.5254,0.527,0.5143,0.5334,0.5272,0.5009,0.5283,0.5327,0.5182,0.5368,0.5573,0.5766,0.582,0.5989,0.6255,0.6255,0.6142,0.5956,0.5671,0.5583,0.5606,0.546,0.563,0.5891,0.5743,0.575,0.5775,0.5332,0.0,0.0,0.0,0.0,0.0,0.0,0.0,0.0,0.0,0.0,0.0,0.0,0.0,0.0,0.0,0.0,0.0,0.0,0.0,0.0,0.0,0.0,0.0,0.0,0.0,0.0,0.0,0.0,0.0,0.0,0.0,0.0,0.0,0.0,0.0371,0.1252,0.0485,0.0,0.1255,0.044,0.0,0.0,0.0,0.0,0.0,0.0,0.0,0.1737,0.1543,0.1562,0.1705,0.0507,0.0,0.0,0.0,0.0402,0.115,0.2065,0.2903,0.3727,0.4946,0.5176,0.4911,0.0,0.0,0.0,0.0,0.0,0.0,0.0,0.0,0.0,0.0,0.0,0.0,0.0,0.0,0.0,0.0,0.0561,0.0,0.0,0.3314,0.4147,0.4351,0.4771,0.5094,0.5243,0.5354,0.5358,0.5247,0.5358,0.5317,0.5145,0.5324,0.5395,0.5365,0.5515,0.5705,0.5922,0.6,0.6156,0.63,0.63,0.6252,0.6129,0.602,0.5962,0.5951,0.5876,0.614,0.6535,0.6302,0.6337,0.6384,0.6019,0.5315,0.4488,0.0,0.0,0.0,0.0,0.0,0.0,0.0,0.0,0.0,0.0,0.0,0.0,0.0,0.0,0.0,0.0,0.0,0.0,0.0,0.0,0.0,0.0,0.0,0.0,0.0,0.0,0.0,0.0,0.0,0.0,0.0,0.0,0.0502,0.1652,0.062,0.0535,0.1663,0.1097,0.0534,0.0,0.0546,0.051,0.0,0.1215,0.2068,0.2597,0.258,0.2579,0.2507,0.1858,0.1254,0.0822,0.1336,0.2029,0.2804,0.3281,0.3595,0.3924,0.5002,0.5216,0.5015,0.0,0.0,0.0,0.0,0.0,0.0,0.0,0.0,0.0,0.0,0.0,0.0,0.0,0.0,0.0,0.0,0.0,0.0,0.0,0.2722,0.3709,0.3835,0.4688,0.5247,0.5436,0.544,0.5453,0.5481,0.5481,0.5467,0.544,0.544,0.5504,0.5596,0.5708,0.5861,0.6,0.6162,0.6272,0.63,0.63,0.63,0.6296,0.6265,0.6272,0.6296,0.6265,0.6539,0.6933,0.6754,0.6734,0.6737,0.6384,0.5888,0.5246,0.4321,0.4333,0.0,0.0,0.0,0.0,0.0,0.0,0.0,0.0,0.0,0.0974,0.044,0.013,0.0,0.0,0.0,0.0079,0.0294,0.0345,0.0352,0.0358,0.0354,0.0258,0.0041,0.0,0.0,0.0,0.0205,0.0248,0.0,0.0425,0.1104,0.2068,0.1226,0.1223,0.2387,0.2153,0.1591,0.0695,0.154,0.1557,0.0718,0.1925,0.2969,0.3787,0.3731,0.369,0.362,0.3242,0.2657,0.1955,0.2988,0.3732,0.4239,0.4431,0.4352,0.4212,0.5081,0.5284,0.5192,0.0,0.0,0.0,0.0,0.0,0.0,0.0,0.0,0.0,0.0,0.0,0.0,0.0,0.0,0.0,0.0,0.0,0.0,0.1281,0.2842,0.3828,0.3987,0.4866,0.544,0.5562,0.5562,0.5627,0.5752,0.5752,0.5688,0.5562,0.5562,0.5576,0.5589,0.5606,0.5769,0.5993,0.601,0.6135,0.63,0.63,0.63,0.6286,0.6108,0.6142,0.6282,0.6105,0.5911,0.5794,0.5905,0.5856,0.5766,0.5863,0.5734,0.5504,0.5067,0.0,0.3827,0.4141,0.3799,0.3299,0.3182,0.2747,0.2348,0.0,0.0,0.1299,0.1405,0.0647,0.0,0.0,0.0,0.0336,0.142,0.1583,0.1607,0.1611,0.1609,0.1187,0.0126,0.0,0.0,0.0,0.0962,0.114,0.0087,0.1977,0.3211,0.3239,0.3194,0.3676,0.4687,0.3833,0.332,0.3206,0.3299,0.3333,0.3213,0.4421,0.5041,0.5154,0.4987,0.4885,0.4821,0.3621,0.3046,0.3007,0.4089,0.4395,0.4282,0.5242,0.5454,0.5236,0.5355,0.5385,0.5371,0.0,0.0,0.0,0.0,0.0,0.0,0.0,0.0,0.0,0.0,0.0,0.0,0.0,0.0,0.0,0.0,0.0,0.0,0.0553,0.1661,0.264,0.3317,0.4152,0.4956,0.5708,0.5633,0.5657,0.58,0.58,0.5772,0.5711,0.5711,0.5759,0.5844,0.5844,0.5966,0.6166,0.6166,0.6242,0.63,0.63,0.6245,0.6108,0.5956,0.583,0.5777,0.5766,0.5637,0.0,0.0,0.5566,0.5586,0.559,0.5195,0.4721,0.4425,0.375,0.0,0.3302,0.3406,0.0,0.0,0.323,0.3407,0.3153,0.2651,0.2138,0.1786,0.0809,0.02,0.091,0.1004,0.1358,0.0,0.2698,0.2596,0.2716,0.2129,0.1499,0.101,0.0371,0.0,0.0,0.1092,0.132,0.0088,0.2225,0.3556,0.3527,0.3569,0.4124,0.5218,0.4767,0.4177,0.3613,0.417,0.4186,0.3614,0.4821,0.5403,0.5395,0.5848,0.594,0.5747,0.4531,0.4375,0.5002,0.5431,0.5477,0.5304,0.5748,0.5803,0.5606,0.5559,0.5474,0.5405,0.0,0.0,0.0,0.0,0.0,0.0,0.0,0.0,0.0,0.0,0.0,0.0,0.0,0.0,0.0,0.0,0.0,0.0,0.0,0.0821,0.1632,0.2423,0.3465,0.4431,0.5355,0.5552,0.5718,0.5864,0.5908,0.5905,0.5864,0.582,0.5884,0.599,0.5649,0.562,0.5828,0.555,0.5434,0.5428,0.5704,0.5683,0.5497,0.5599,0.5322,0.4997,0.5339,0.5213,0.0,0.0,0.4855,0.4734,0.4707,0.4301,0.3808,0.3556,0.3044,0.2536,0.2449,0.0,0.0,0.304,0.3619,0.4099,0.3706,0.3285,0.274,0.1926,0.1063,0.0711,0.1595,0.1872,0.0,0.3754,0.378,0.3696,0.3843,0.3115,0.2445,0.2138,0.1357,0.0859,0.0873,0.1713,0.1794,0.0582,0.3038,0.4417,0.4105,0.4417,0.4952,0.5849,0.5714,0.5313,0.4592,0.5272,0.5272,0.4594,0.5445,0.5847,0.5885,0.6492,0.66,0.6318,0.5523,0.5623,0.63,0.63,0.6169,0.5993,0.5993,0.5899,0.5793,0.5735,0.5613,0.5532,0.0,0.0,0.0,0.0,0.0,0.0,0.0,0.0,0.0,0.0,0.0,0.0,0.0,0.0,0.0,0.0,0.0,0.0,0.0,0.0824,0.1314,0.1358,0.3038,0.407,0.4259,0.5259,0.5871,0.5986,0.6173,0.6169,0.5983,0.5871,0.5884,0.5949,0.4776,0.4445,0.4686,0.3632,0.3202,0.3272,0.4185,0.4419,0.4324,0.4887,0.4584,0.3958,0.4807,0.0,0.0,0.0,0.3294,0.2652,0.2904,0.2953,0.0,0.2787,0.249,0.0,0.0,0.0,0.2473,0.3495,0.3995,0.4196,0.4192,0.3618,0.2815,0.1806,0.1557,0.1557,0.1603,0.2381,0.3435,0.4657,0.4947,0.5054,0.5056,0.5011,0.4585,0.3486,0.3161,0.2995,0.0,0.3349,0.303,0.1829,0.4999,0.6517,0.5403,0.6381,0.7007,0.7051,0.7048,0.7048,0.7007,0.7048,0.7048,0.7007,0.7051,0.7051,0.7048,0.6943,0.6756,0.6504,0.6464,0.6386,0.63,0.63,0.6169,0.5993,0.5993,0.5899,0.582,0.5925,0.5918,0.5789,0.0,0.0,0.0,0.0,0.0,0.0,0.0,0.0,0.0,0.0,0.0,0.0,0.0,0.0,0.0,0.0,0.0,0.0,0.0,0.0265,0.0746,0.1476,0.2451,0.3382,0.4197,0.5068,0.5303,0.4802,0.4997,0.4743,0.4079,0.4044,0.4046,0.4042,0.3644,0.3515,0.3623,0.3263,0.309,0.312,0.3439,0.3487,0.3365,0.3461,0.32,0.2772,0.0,0.0,0.0,0.0,0.0,0.0,0.2414,0.0,0.0,0.1054,0.0,0.0,0.0,0.0,0.2562,0.3303,0.4055,0.4668,0.4774,0.4086,0.329,0.2715,0.1904,0.1695,0.3058,0.3618,0.4305,0.5742,0.6012,0.6105,0.6248,0.5594,0.491,0.4433,0.3833,0.0,0.0,0.0,0.0,0.2928,0.5489,0.6605,0.5447,0.6473,0.7095,0.7095,0.7095,0.7095,0.7095,0.7095,0.7095,0.7095,0.7095,0.7048,0.6953,0.6906,0.6817,0.6617,0.6555,0.6484,0.6433,0.6337,0.6269,0.6183,0.6183,0.619,0.6149,0.6162,0.619,0.6129,0.0,0.0,0.0,0.0,0.0,0.0,0.0,0.0,0.0,0.0,0.0,0.0,0.0,0.0,0.0,0.0,0.0,0.0,0.0,0.0,0.0321,0.1012,0.1685,0.2561,0.3573,0.4204,0.4392,0.4134,0.4035,0.3703,0.3106,0.3041,0.3043,0.307,0.2659,0.251,0.2533,0.2173,0.198,0.2011,0.2333,0.2375,0.2265,0.2446,0.223,0.0,0.0,0.0,0.0,0.0,0.0,0.0,0.0,0.0,0.0,0.0,0.0,0.0,0.0,0.11,0.2439,0.3151,0.4214,0.5051,0.5037,0.4534,0.3862,0.3128,0.254,0.2607,0.3887,0.4431,0.5021,0.6075,0.623,0.6356,0.6715,0.6093,0.5583,0.56,0.509,0.0,0.0,0.0,0.0,0.4195,0.5978,0.6782,0.6027,0.6694,0.7095,0.7095,0.7095,0.7095,0.7095,0.7095,0.7095,0.7095,0.7095,0.7048,0.696,0.696,0.6879,0.6776,0.6678,0.6603,0.6546,0.6497,0.6457,0.6453,0.6399,0.6375,0.6368,0.632,0.63,0.6286,0.0,0.0,0.0,0.0,0.0,0.0,0.0,0.0,0.0,0.0,0.0,0.0,0.0,0.0,0.0,0.0,0.0,0.0,0.0,0.0,0.0,0.0,0.0864,0.1697,0.2479,0.2787,0.3255,0.3893,0.3287,0.2969,0.2933,0.2821,0.2826,0.2898,0.1755,0.1338,0.1439,0.0436,0.0,0.0067,0.0909,0.1165,0.1126,0.183,0.0,0.0,0.0,0.0,0.0,0.0,0.0,0.0,0.0,0.0,0.0,0.0,0.0,0.0,0.0,0.0874,0.206,0.3152,0.4404,0.5291,0.4967,0.489,0.4488,0.3069,0.3509,0.4161,0.0,0.0,0.563,0.5786,0.5827,0.5993,0.6484,0.6545,0.6614,0.0,0.0,0.0,0.0,0.0,0.0,0.5591,0.0,0.7112,0.7119,0.7112,0.7109,0.7109,0.7098,0.7095,0.7095,0.7095,0.7095,0.7095,0.7105,0.7102,0.7095,0.7105,0.7031,0.6896,0.6889,0.6848,0.6712,0.6705,0.6702,0.6685,0.6539,0.6525,0.6508,0.6371,0.6317,0.631,0.0,0.0,0.0,0.0,0.0,0.0,0.0,0.0,0.0,0.0,0.0,0.0,0.0,0.0,0.0,0.0,0.0,0.0,0.0,0.0,0.0,0.0,0.0,0.0,0.0,0.0,0.0,0.0,0.0,0.1416,0.0788,0.0751,0.0751,0.0788,0.0469,0.0349,0.0391,0.0127,0.0,0.0032,0.0,0.0326,0.0287,0.0,0.0,0.0,0.0,0.0,0.0,0.0,0.0,0.0,0.0,0.0,0.0,0.0,0.0,0.0,0.0,0.09,0.2073,0.3276,0.4376,0.5117,0.4925,0.4748,0.4416,0.3799,0.3727,0.3982,0.0,0.0,0.0,0.5911,0.6159,0.0,0.6905,0.6927,0.0,0.0,0.0,0.72,0.72,0.7339,0.0,0.0,0.7236,0.7363,0.7475,0.7373,0.7312,0.7312,0.7156,0.7095,0.7095,0.7095,0.7095,0.7098,0.7258,0.7251,0.7098,0.7258,0.7231,0.7038,0.693,0.6862,0.6861,0.6749,0.6702,0.6698,0.6658,0.6644,0.6637,0.6603,0.6515,0.6457,0.0,0.0,0.0,0.0,0.0,0.0,0.0,0.0,0.0,0.0,0.0,0.0,0.0,0.0,0.0,0.0,0.0,0.0,0.0,0.0,0.0,0.0,0.0,0.0,0.0,0.0,0.0,0.0,0.0,0.0,0.0,0.0,0.0,0.0,0.0,0.0,0.0,0.0,0.0,0.0,0.0,0.0,0.0,0.0,0.0,0.0,0.0,0.0,0.0,0.0,0.0,0.0,0.0,0.0,0.0,0.0,0.0,0.0,0.0,0.1286,0.2766,0.3424,0.4747,0.582,0.5583,0.5274,0.4968,0.4556,0.4347,0.0,0.0,0.0,0.0,0.0,0.0,0.0,0.6773,0.6905,0.7021,0.0,0.7319,0.0,0.7465,0.755,0.7628,0.0,0.7556,0.7482,0.7499,0.7417,0.7612,0.8031,0.745,0.7095,0.7095,0.7207,0.7241,0.7244,0.7397,0.7424,0.7343,0.7363,0.7322,0.7234,0.0,0.6977,0.697,0.6886,0.6895,0.6888,0.6824,0.68,0.6793,0.6725,0.6647,0.6573,0.0,0.0,0.0,0.0,0.0,0.0,0.0,0.0,0.0,0.0,0.0,0.0,0.0,0.0,0.0,0.0,0.0,0.0,0.0,0.0,0.0,0.0,0.0,0.0,0.0,0.0,0.0,0.0,0.0,0.0,0.0,0.0,0.0,0.0,0.0,0.0,0.0,0.0,0.0,0.0,0.0,0.0,0.0,0.0,0.0,0.0,0.0,0.0,0.0,0.0,0.0,0.0,0.0,0.0,0.0,0.0,0.0,0.0,0.0,0.1765,0.3614,0.3614,0.5249,0.6756,0.6368,0.5962,0.5603,0.5181,0.0,0.0,0.512,0.0,0.5267,0.5596,0.0,0.5857,0.6447,0.6647,0.6898,0.7395,0.7446,0.7468,0.7641,0.7658,0.7709,0.7831,0.7729,0.76,0.7465,0.7467,0.7817,0.8636,0.7819,0.7292,0.7095,0.7275,0.7353,0.7419,0.7526,0.76,0.7597,0.7482,0.7453,0.7409,0.0,0.0,0.7095,0.7095,0.7095,0.7085,0.696,0.6913,0.69,0.6807,0.6746,0.6729,0.0,0.0,0.0,0.0,0.0,0.0,0.0,0.0,0.0,0.0,0.0,0.0,0.0,0.0,0.0,0.0,0.0,0.0,0.0,0.0,0.0,0.0,0.0,0.0,0.0,0.0,0.0,0.0,0.0,0.0,0.0,0.0,0.0,0.0,0.0,0.0,0.0,0.0,0.0,0.0,0.0,0.0,0.0,0.0,0.0,0.0,0.0,0.0,0.0,0.0,0.0,0.0,0.0,0.0,0.0,0.0,0.0,0.0,0.0,0.1741,0.3614,0.3614,0.5087,0.6468,0.6142,0.5609,0.0,0.0,0.0,0.503,0.531,0.5354,0.0,0.5884,0.0,0.0,0.0,0.0,0.7054,0.0,0.0,0.0,0.0,0.0,0.0,0.0,0.0,0.7901,0.7877,0.7692,0.7523,0.7411,0.837,0.8333,0.7095,0.7122,0.7244,0.7419,0.7526,0.76,0.7604,0.7692,0.76,0.7415,0.0,0.0,0.7095,0.7095,0.7095,0.7095,0.7068,0.7058,0.7055,0.7031,0.6947,0.6846,0.0,0.0,0.0,0.0,0.0,0.0,0.0,0.0,0.0,0.0,0.0,0.0,0.0,0.0,0.0,0.0,0.0,0.0,0.0,0.0,0.0,0.0,0.0,0.0,0.0,0.0,0.0,0.0,0.0,0.0,0.0,0.0,0.0,0.0,0.0,0.0,0.0,0.0,0.0,0.0,0.0,0.0,0.0,0.0,0.0,0.0,0.0,0.0,0.0,0.0,0.0,0.0,0.0,0.0,0.0,0.0,0.0,0.0,0.0,0.1773,0.3576,0.3494,0.5017,0.6412,0.5996,0.0,0.0,0.0,0.0,0.5098,0.5354,0.0,0.0,0.0,0.0,0.0,0.0,0.0,0.0,0.0,0.0,0.0,0.0,0.0,0.0,0.0,0.0,0.0,0.7821,0.8847,0.9079,0.8281,0.9614,0.93,0.7143,0.7328,0.7489,0.7492,0.7719,0.7828,0.7828,0.7818,0.7733,0.7597,0.7522,0.0,0.7373,0.7292,0.7613,0.8131,0.8047,0.8013,0.8013,0.8013,0.8011,0.7859,0.0,0.0,0.0,0.0,0.0,0.0,0.0,0.0,0.0,0.0,0.0,0.0,0.0,0.0,0.0,0.0,0.0,0.0,0.0,0.0,0.0,0.0,0.0,0.0,0.0,0.0,0.0,0.0,0.0,0.0,0.0,0.0,0.0,0.0,0.0,0.0,0.0,0.0,0.0,0.0,0.0,0.0,0.0,0.0,0.0,0.0,0.0,0.0,0.0,0.0,0.0,0.0,0.0,0.0,0.0,0.0,0.0,0.0,0.0,0.1741,0.357,0.3441,0.4942,0.6358,0.5898,0.5549,0.0,0.0,0.0,0.0,0.0,0.0,0.0,0.0,0.0,0.0,0.0,0.0,0.0,0.0,0.0,0.0,0.0,0.0,0.0,0.0,0.0,0.0,0.8077,1.0003,1.0701,0.9804,1.0781,1.0094,0.7586,0.771,0.7709,0.7604,0.8153,0.8252,0.7985,0.8206,0.808,0.7804,0.7692,0.0,0.0,0.7862,0.8522,0.9499,0.9398,0.9411,0.9438,0.931,0.9305,0.9205,0.0,0.0,0.0,0.0,0.0,0.0,0.0,0.0,0.0,0.0,0.0,0.0,0.0,0.0,0.0,0.0,0.0,0.0,0.0,0.0,0.0,0.0,0.0,0.0,0.0,0.0,0.0,0.0,0.0,0.0,0.0,0.0,0.0,0.0,0.0,0.0,0.0,0.0,0.0,0.0,0.0,0.0,0.0,0.0,0.0,0.0,0.0,0.0,0.0,0.0,0.0,0.0,0.0,0.0,0.0,0.0,0.0,0.0,0.0,0.1749,0.3559,0.3423,0.4874,0.6235,0.5874,0.0,0.0,0.0,0.51,0.5147,0.0,0.0,0.0,0.0,0.0,0.0,0.0,0.0,0.0,0.0,0.0,0.0,0.0,0.0,0.0,0.0,0.0,0.0,0.0,1.0673,1.1293,1.1288,1.1314,1.0575,0.9095,0.8127,0.7611,0.76,0.8989,0.9061,0.8038,0.9247,0.9055,0.7811,0.0,0.0,0.0,0.9204,0.994,1.0895,1.0919,1.1035,1.1207,1.067,1.0654,1.0839,0.0,0.0,0.0,0.0,0.0,0.0,0.0,0.0,0.0,0.0,0.0,0.0,0.0,0.0,0.0,0.0,0.0,0.0,0.0,0.0,0.0,0.0,0.0,0.0,0.0,0.0,0.0,0.0,0.0,0.0,0.0,0.0,0.0,0.0,0.0,0.0,0.0,0.0,0.0,0.0,0.0,0.0,0.0,0.0,0.0,0.0,0.0,0.0,0.0,0.0,0.0,0.0,0.0,0.0,0.0,0.0,0.0,0.0,0.0,0.1744,0.3557,0.3282,0.4685,0.6064,0.585,0.0,0.0,0.525,0.527,0.532,0.5385,0.0,0.0,0.0,0.0,0.0,0.0,0.0,0.0,0.0,0.0,0.0,0.0,0.0,0.0,0.0,0.0,0.0,0.0,1.212,1.2794,1.2835,1.2836,1.2154,1.0646,1.033,1.0149,1.0081,1.0752,1.0794,1.0337,1.0096,0.9665,0.9104,0.0,0.0,0.0,1.0012,1.0975,1.1999,1.1887,1.1887,1.1948,1.171,1.1699,1.1728,0.0,0.0,0.0,0.0,0.0,0.0257,0.003,0.0,0.0,0.0,0.0,0.0,0.0,0.0,0.0,0.0,0.0,0.0,0.0,0.0,0.0,0.0,0.0,0.0,0.0,0.0,0.0,0.0,0.0,0.0,0.0,0.0,0.0,0.0,0.0,0.0,0.0,0.0,0.0,0.0,0.0,0.0,0.0,0.0,0.0,0.0,0.0,0.0,0.0,0.0,0.0,0.0,0.0,0.0,0.0,0.0,0.0,0.008,0.0373,0.1956,0.3537,0.3562,0.4777,0.5932,0.0,0.0,0.5143,0.5361,0.5395,0.5395,0.5395,0.0,0.0,0.0,0.0,0.0,0.0,0.0,0.0,0.0,0.0,0.0,0.0,0.0,0.0,0.0,0.0,0.0,0.0,1.3666,1.4337,1.4337,1.3951,1.3255,1.2164,1.1992,1.1834,1.1706,1.2219,1.2285,1.1896,1.1361,1.0921,1.0525,0.0,0.0,0.0,1.1217,1.2126,1.3155,1.3003,1.3016,1.3071,1.2912,1.29,1.2826,0.0,0.0,0.0,0.0,0.0,0.0,0.0117,0.0,0.0,0.0,0.0,0.0,0.0,0.0,0.0,0.0,0.0,0.0,0.0,0.0,0.0,0.0,0.0,0.0,0.0,0.0,0.4491,0.4491,0.4491,0.0,0.0,0.0,0.0,0.0,0.0,0.0,0.0,0.0,0.0,0.0,0.0,0.0,0.0,0.0,0.0,0.0,0.0,0.0,0.0,0.0,0.0,0.0,0.0,0.0,0.0,0.0,0.0,0.0227,0.1286,0.2471,0.3601,0.4464,0.5255,0.5803,0.0,0.0,0.5143,0.5361,0.5395,0.5395,0.5395,0.0,0.0,0.0,0.0,0.0,0.0,0.0,0.0,0.0,0.0,0.0,0.0,0.0,0.0,0.0,0.0,0.0,0.0,1.5092,1.5778,1.5778,1.4243,1.3496,1.3695,1.2507,1.1834,1.1706,1.3177,1.3199,1.1945,1.3247,1.3151,0.0,0.0,0.0,0.0,1.2967,1.355,1.4472,1.4472,1.4696,1.4883,1.4302,1.4269,1.4432,0.0,0.0,0.0,0.0,0.0,0.0,0.0,0.0313,0.0,0.0,0.0,0.0179,0.0686,0.0739,0.0764,0.0764,0.0,0.0,0.0,0.0,0.0,0.0,0.0,0.0,0.0,0.0,0.4491,0.4491,0.4491,0.4377,0.4125,0.0,0.0,0.0,0.0,0.0,0.0,0.0,0.0,0.0,0.0,0.0,0.0,0.0,0.0,0.0,0.0,0.0,0.0,0.0,0.0,0.0,0.0,0.0,0.0,0.0,0.0,0.0,0.1043,0.2128,0.321,0.3916,0.4723,0.5369,0.5511,0.0,0.5057,0.5344,0.5395,0.5395,0.5395,0.0,0.0,0.0,0.0,0.0,0.0,0.0,0.0,0.0,0.0,0.0,0.0,0.0,0.0,0.0,0.0,0.0,0.0,1.471,1.5531,1.5531,1.5202,1.488,1.4598,1.4581,1.4426,1.426,1.4911,1.4902,1.4296,1.404,0.0,0.0,0.0,0.0,0.0,1.3461,1.3952,1.4222,1.4222,1.4282,1.4342,1.4155,1.4142,1.4208,0.0,0.0,0.0,0.0,0.0,0.0,0.0,0.1118,0.0727,0.0448,0.0428,0.058,0.1056,0.1104,0.1217,0.1494,0.0,0.0,0.0,0.0,0.0,0.0,0.0,0.0,0.0,0.4491,0.4491,0.4491,0.4491,0.4491,0.4491,0.3707,0.3093,0.0,0.0,0.0,0.0,0.0,0.0,0.0,0.0,0.0,0.0,0.0,0.0,0.0,0.0,0.0,0.0,0.0,0.0,0.0,0.0,0.0,0.0,0.0,0.0,0.0,0.0,0.2268,0.3089,0.4138,0.4709,0.0,0.0,0.0,0.5003,0.5334,0.5395,0.5395,0.5395,0.0,0.0,0.0,0.0,0.0,0.0,0.0,0.0,0.0,0.0,0.0,0.0,0.0,0.0,0.0,0.0,0.0,0.0,0.0,1.5184,1.507,1.5458,1.5438,1.5015,1.5431,1.5578,1.5398,1.5578,1.5571,1.5398,1.4655,0.0,0.0,0.0,0.0,0.0,1.3897,1.4088,1.4088,1.4088,1.4088,1.4088,1.4088,1.4088,1.4088,0.0,0.0,0.0,0.0,0.0,0.0,0.0,0.0,0.1952,0.1256,0.1146,0.1131,0.1254,0.1223,0.147,0.2214,0.0,0.0,0.0,0.0,0.0,0.0,0.0,0.0,0.4491,0.4491,0.4491,0.4491,0.4501,0.4505,0.4508,0.3814,0.3449,0.3276,0.1899,0.1228,0.109,0.0308,0.0,0.0,0.0,0.0,0.0,0.0,0.0,0.0,0.0,0.0,0.0,0.0,0.0,0.0,0.0,0.0,0.0,0.0,0.0,0.0,0.0,0.0,0.0,0.0,0.0,0.0,0.0,0.0,0.0,0.0,0.0,0.0,0.0,0.0,0.0,0.0,0.0,0.0,0.0,0.0,0.0,0.0,0.0,0.0,0.0,0.0,0.0,0.0,0.0,0.0,0.0,0.0,1.4823,1.4496,1.5037,1.5197,1.4948,1.5211,1.5357,1.5337,1.5357,1.5351,1.5324,1.5122,0.0,0.0,0.0,0.0,0.0,1.4202,1.4088,1.4088,1.4088,1.4088,1.4088,1.4088,1.4088,1.4088,0.0,0.0,0.0,0.0,0.0,0.0,0.0,0.0,0.0,0.0,0.1452,0.154,0.2733,0.2298,0.2238,0.0,0.0,0.0,0.0,0.0,0.0,0.0,0.0,0.0,0.4491,0.4491,0.4491,0.4491,0.4607,0.4665,0.464,0.4578,0.4174,0.3521,0.3166,0.2421,0.1338,0.0391,0.0,0.0,0.0,0.0,0.0,0.0,0.0,0.0,0.0,0.0,0.0,0.0,0.0,0.0,0.0,0.0,0.0,0.0,0.1369,0.0,0.0,0.0,0.0,0.0,0.0,0.0,0.0,0.0,0.0,0.0,0.0,0.0,0.0,0.0,0.0,0.0,0.0,0.0,0.0,0.0,0.0,0.0,0.0,0.0,0.0,0.0,0.0,0.0,0.0,0.0,0.0,0.0,1.4767,1.4208,1.4543,1.4589,1.4295,1.4847,1.495,1.473,1.4957,1.4943,1.473,1.489,0.0,0.0,0.0,0.0,1.4182,1.4115,1.4088,1.4088,1.4088,1.4088,1.4088,1.4088,1.4088,1.4088,0.0,0.0,0.0,0.0,0.0,0.0,0.0,0.0,0.0,0.0,0.0,0.0,0.0,0.0,0.0,0.0,0.0,0.0,0.0,0.0,0.0,0.0,0.0,0.4491,0.4491,0.4491,0.4491,0.4491,0.4573,0.4651,0.4691,0.4704,0.451,0.4077,0.3547,0.2758,0.1728,0.0531,0.0,0.0,0.0,0.0,0.0,0.0,0.0,0.0,0.0,0.0,0.0,0.0,0.0,0.0,0.0,0.0,0.0,0.0,0.1898,0.0,0.0,0.0,0.0,0.0,0.0,0.0,0.0,0.0,0.0,0.0,0.0,0.0,0.0,0.0,0.0,0.0,0.0,0.0,0.0,0.0,0.0,0.0,0.0,0.0,0.0,0.0,0.0,0.0,0.0,0.0,0.0,0.0,1.4459,1.4095,1.4242,1.4249,1.4088,1.4536,1.4676,1.4479,1.4683,1.4676,1.4522,1.4549,0.0,0.0,0.0,0.0,1.4088,1.4088,1.4088,1.4088,1.4088,1.4088,1.4088,1.4088,1.4088,1.4088,0.0,0.0,0.0,0.0,0.0,0.0,0.0,0.0,0.0,0.0,0.0,0.0,0.0,0.0,0.0,0.0,0.0,0.0,0.0,0.0,0.0,0.0,0.0,0.4491,0.4491,0.4598,0.4653,0.4653,0.4838,0.4904,0.4896,0.4812,0.4752,0.4658,0.3667,0.2988,0.2482,0.1229,0.0587,0.0419,0.0112,0.0,0.0,0.0,0.0,0.0,0.0,0.0,0.0,0.0168,0.0084,0.0028,0.014,0.0,0.0,0.0,0.0,0.0,0.0,0.0,0.0,0.0,0.0,0.0,0.0,0.0,0.0,0.0,0.0,0.0,0.0,0.0,0.0,0.0,0.0,0.0,0.0,0.0,0.0,0.0,0.0,0.0,0.0,0.0,0.0,0.0,0.0,0.0,0.0,0.0,0.0,1.4088,1.4088,1.4088,1.4088,1.4335,1.4456,1.4456,1.4456,1.4456,1.4442,1.4202,1.4088,0.0,0.0,0.0,1.4088,1.4088,1.4088,1.4088,1.4088,1.4088,1.4088,1.4088,1.4088,1.4088,0.0,0.0,0.0,0.0,0.0,0.0,0.0,0.0,0.0,0.0,0.0,0.0,0.0,0.0,0.0,0.0,0.0,0.0,0.0,0.0,0.0,0.4491,0.4491,0.4491,0.4491,0.5054,0.5351,0.5351,0.6372,0.6502,0.5805,0.6018,0.5597,0.4694,0.4406,0.4232,0.4125,0.3901,0.332,0.2402,0.0,0.0,0.0,0.0,0.0,0.0,0.0,0.0,0.0,0.0923,0.0504,0.0112,0.0727,0.0,0.0,0.0,0.0,0.0,0.4322,0.4493,0.0,0.0,0.0,0.0,0.0,0.0,0.0,0.0,0.0,0.0,0.0,0.0,0.0,0.0,0.0,0.0,0.0,0.0,0.0,0.0,0.0,0.0,0.0,0.0,0.0,0.0,0.0,0.0,0.0,0.0,0.0,1.4095,1.4088,1.4088,1.4088,1.4128,1.4155,1.4155,1.4155,1.4155,1.4155,1.4108,1.4088,0.0,0.0,1.4088,1.4088,1.4088,1.4088,1.4088,1.4088,1.4088,1.4088,1.4088,1.4088,1.4088,0.0,0.0,0.0,0.0,0.0,0.0,0.0,0.0,0.0,0.0,0.0,0.0,0.0,0.0,0.0,0.0,0.0,0.0,0.0,0.0,0.4491,0.4491,0.4842,0.4869,0.4519,0.555,0.59,0.5515,0.6444,0.6573,0.5873,0.5603,0.5151,0.46,0.4521,0.4507,0.4491,0.4491,0.3987,0.3067,0.0,0.0,0.0,0.0,0.0,0.0,0.0,0.0,0.0,0.0,0.1146,0.1174,0.1118,0.0,0.0,0.0,0.0,0.0,0.4491,0.4655,0.4779,0.0,0.0,0.0,0.0,0.0,0.0,0.0,0.0,0.0,0.0,0.0,0.0,0.0,0.0,0.0,0.0,0.0,0.0,0.0,0.0,0.0,0.0,0.0,0.0,0.0,0.0,0.0,0.0,0.0,0.0,0.0,1.4088,1.4088,1.4088,1.4088,1.4088,1.4088,1.4088,1.4088,1.4088,1.4088,1.4088,1.4088,0.0,1.4088,1.4088,1.4088,1.4088,1.4088,1.4088,1.4088,1.4088,1.4088,1.4088,1.3997,0.0,0.0,0.0,0.0,0.0,0.0,0.0,0.0,0.0,0.0,0.0,0.0,0.0,0.0,0.0,0.0,0.0,0.0,0.0,0.0,0.4491,0.4491,0.5136,0.5191,0.4519,0.6041,0.6502,0.576,0.6742,0.6925,0.6344,0.5225,0.4728,0.4719,0.4567,0.4504,0.4491,0.4491,0.4153,0.3566,0.0,0.0,0.0,0.0,0.0,0.0,0.0,0.0,0.0,0.0,0.0,0.0,0.0,0.0,0.0,0.0,0.4015,0.4491,0.4491,0.4604,0.468,0.0,0.0,0.0,0.0,0.0,0.0,0.0,0.0,0.0,0.0,0.0,0.0,0.0,0.0,0.0,0.0,0.0,0.0,0.0,0.0,0.0,0.0,0.0,0.0,0.0,0.0,0.0,0.0,0.0,0.0,0.0,1.4088,1.4088,1.4088,1.4015,1.4015,1.4088,1.4088,1.4088,1.4088,1.4088,1.4088,1.4088,1.4088,1.4088,1.4088,1.4088,1.4088,1.4088,1.4088,1.4088,1.4088,1.4088,1.4088,1.3955,0.0,0.0,0.0,0.0,0.0,0.0,0.0,0.0,0.0,0.0,0.0,0.0,0.0,0.0,0.0,0.0,0.0,0.0,0.0,0.0,0.4491,0.4491,0.5136,0.5191,0.4519,0.6556,0.7262,0.6529,0.8184,0.8673,0.7989,0.58,0.502,0.5389,0.4775,0.4489,0.4491,0.4491,0.446,0.4405,0.4405,0.0,0.0,0.0,0.0,0.0,0.0,0.0,0.0,0.0,0.0,0.0,0.0,0.0,0.0,0.0,0.446,0.4491,0.4491,0.4604,0.4657,0.4542,0.0,0.0,0.0,0.0,0.0,0.0,0.0,0.0,0.0,0.0,0.0,0.0,0.0,0.0,0.0,0.0,0.0,0.0,0.0,0.0,0.0,0.0,0.0,0.0,0.0,0.0,0.0,0.0,0.0,0.0,0.0,1.4088,1.4088,1.3773,1.3773,1.4088,1.4088,1.4088,1.4088,1.4088,1.4088,1.4088,1.4088,1.4088,1.4088,1.4088,1.4088,1.4088,1.4088,1.4088,1.4088,1.4088,1.4088,1.4088,0.0,0.0,0.0,0.0,0.0,0.0,0.0,0.0,0.0,0.0,0.0,0.0,0.0,0.0,0.0,0.0,0.0,0.0,0.0,0.4491,0.4491,0.4491,0.5136,0.5191,0.4519,0.615,0.7101,0.7289,0.7958,0.8133,0.7868,0.6546,0.5541,0.4858,0.4615,0.4503,0.4491,0.4491,0.4491,0.4491,0.4491,0.4491,0.0,0.0,0.0,0.0,0.0,0.0,0.0,0.0,0.0,0.0,0.0,0.0,0.0,0.0,0.0,0.4491,0.4491,0.4604,0.4677,0.4648,0.0,0.0,0.0,0.0,0.0,0.0,0.0,0.0,0.0,0.0,0.0,0.0,0.0,0.0,0.0,0.0,0.0,0.0,0.0,0.0,0.0,0.0,0.0,0.0,0.0,0.0,0.0,0.0,0.0,0.0,0.0,1.3901,1.4088,1.3753,1.366,1.3808,1.3627,1.354,1.354,1.354,1.3641,1.3808,1.3808,1.3915,1.4088,1.4088,1.4088,1.4088,1.4088,1.4088,1.4088,1.4088,1.4088,1.3997,0.0,0.0,0.0,0.0,0.0,0.0,0.0,0.0,0.0,0.0,0.0,0.0,0.0,0.0,0.0,0.0,0.0,0.0,0.4491,0.4491,0.4491,0.4491,0.4948,0.5058,0.4814,0.555,0.6285,0.7015,0.7417,0.7744,0.8049,0.7524,0.6645,0.5477,0.4802,0.4508,0.4491,0.4491,0.4491,0.4491,0.4491,0.4549,0.0,0.0,0.0,0.0,0.0,0.0,0.0,0.0,0.0,0.0,0.0,0.0,0.0,0.0,0.0,0.4491,0.4491,0.4566,0.4648,0.0,0.0,0.0,0.0,0.0,0.0,0.0,0.0,0.0,0.0,0.0,0.0,0.0,0.0,0.0,0.0,0.0,0.0,0.0,0.0,0.0,0.0,0.0,0.0,0.0,0.0,0.0,0.0,0.0,0.0,0.0,0.0,1.3567,1.3808,1.3507,1.336,1.3353,1.3066,1.2863,1.2724,1.3048,1.3114,1.3007,1.3338,1.358,1.3814,1.3908,1.4001,1.4088,1.4088,1.4088,1.4088,1.4088,1.4088,1.3997,0.0,0.0,0.0,0.0,0.0,0.0,0.0,0.0,0.0,0.0,0.0,0.0,0.0,0.0,0.0,0.0,0.0,0.0,0.4491,0.4491,0.4491,0.4491,0.4491,0.4814,0.5487,0.4842,0.4842,0.5515,0.6779,0.7871,0.8804,0.8791,0.8413,0.7607,0.5473,0.4512,0.4491,0.4491,0.4491,0.4491,0.4491,0.4675,0.4904,0.0,0.0,0.0,0.0,0.0,0.0,0.0,0.0,0.0,0.0,0.0,0.0,0.0,0.4519,0.4519,0.4519,0.4519,0.0,0.0,0.0,0.0,0.0,0.0,0.0,0.0,0.0,0.0,0.0,0.0,0.0,0.0,0.0,0.0,0.0,0.0,0.0,0.0,0.0,0.0,0.0,0.0,0.0,0.0,0.0,0.0,0.0,0.0,0.0,0.0,0.0,0.0,1.3213,1.2945,1.2784,1.2784,1.2445,1.2075,1.1736,1.2711,1.2632,1.1782,1.2757,1.3206,1.3233,1.3487,1.3814,1.4082,1.4088,1.4088,1.4088,1.4088,1.4088,1.4088,0.0,0.0,0.0,0.0,0.0,0.0,0.0,0.0,0.0,0.0,0.0,0.0,0.0,0.0,0.0,0.0,0.0,0.0,0.4491,0.4491,0.4491,0.4491,0.4491,0.4598,0.4787,0.5058,0.5546,0.6285,0.7176,0.8017,0.8804,0.8798,0.841,0.7675,0.702,0.5919,0.4491,0.4491,0.4491,0.4491,0.4491,0.4631,0.4819,0.0,0.0,0.0,0.0,0.0,0.0,0.0,0.0,0.0,0.0,0.0,0.0,0.4491,0.4842,0.5191,0.5191,0.0,0.0,0.0,0.0,0.0,0.0,0.0,0.0,0.0,0.0,0.0,0.0,0.0,0.0,0.0,0.0,0.0,0.0,0.0,0.0,0.0,0.0,0.0,0.0,0.0,0.0,0.0,0.0,0.0,0.0,0.0,0.0,0.0,0.0,0.0,1.3206,1.2945,1.2784,1.2784,1.2445,1.2243,1.2106,1.1714,1.1859,1.2447,1.1981,1.2335,1.3233,1.3487,1.3653,1.3753,1.4008,1.4088,1.4088,1.4088,1.4088,1.4088,0.0,0.0,0.0,0.0,0.0,0.0,0.0,0.0,0.0,0.0,0.0,0.0,0.0,0.0,0.0,0.0,0.0,0.0,0.0,0.4491,0.4491,0.4491,0.4491,0.4625,0.4893,0.5296,0.6005,0.7047,0.7391,0.799,0.8804,0.8804,0.8399,0.7689,0.7603,0.6821,0.5482,0.479,0.4491,0.4491,0.4491,0.461,0.4778,0.0,0.0,0.0,0.0,0.0,0.0,0.0,0.0,0.0,0.0,0.0,0.0,0.4814,0.5191,0.5569,0.5846,0.0,0.0,0.0,0.0,0.0,0.0,0.0,0.0,0.0,0.0,0.0,0.0,0.0,0.0,0.0,0.0,0.0,0.0,0.0,0.0,0.0,0.0,0.0,0.0,0.0,0.0,0.0,0.0,0.0,0.0,0.0,0.0,0.0,0.0,0.0,1.2846,1.2665,1.2603,1.2603,1.2385,1.2305,1.2268,1.1657,1.1633,1.1986,1.1721,1.2158,1.3039,1.3213,1.3427,1.362,1.3841,1.3981,1.4088,1.4088,1.4088,1.4088,0.0,0.0,0.0,0.0,0.0,0.0,0.0,0.0,0.0,0.0,0.0,0.0,0.0,0.0,0.0,0.0,0.0,0.0,0.0,0.0,0.4491,0.4491,0.457,0.4869,0.5483,0.5624,0.6357,0.7696,0.7519,0.7898,0.8804,0.8804,0.8441,0.7806,0.7601,0.7366,0.7002,0.5373,0.4625,0.4491,0.4491,0.461,0.4781,0.4771,0.0,0.0,0.0,0.0,0.0,0.0,0.0,0.0,0.0,0.0,0.4708,0.5324,0.5597,0.5842,0.0,0.0,0.0,0.0,0.0,0.0,0.0,0.0,0.0,0.0,0.0,0.0,0.0,0.0,0.0,0.0,0.0,0.0,0.0,0.0,0.0,0.0,0.0,0.0,0.0,0.0,0.0,0.0,0.0,0.0,0.0,0.0,0.0,0.0,0.0,0.0,1.2225,1.2245,1.2245,0.0,1.2251,1.2245,1.2225,1.2134,1.1619,1.0828,1.1835,1.2452,1.275,1.2804,1.3093,1.3527,1.358,1.3808,1.4048,1.4048,1.4062,1.4088,0.0,0.0,0.0,0.0,0.0,0.0,0.0,0.0,0.0,0.0,0.0,0.0,0.0,0.0,0.0,0.0,0.0,0.0,0.0,0.0,0.4491,0.4491,0.5003,0.5351,0.5487,0.6627,0.7396,0.7696,0.7664,0.8043,0.8804,0.8804,0.8705,0.8564,0.8506,0.7983,0.7062,0.6411,0.55,0.4491,0.4491,0.459,0.4723,0.46,0.4624,0.0,0.0,0.0,0.0,0.0,0.0,0.0,0.4491,0.4869,0.5328,0.546,0.633,0.7257,0.0,0.0,0.0,0.0,0.0,0.0,0.0,0.0,0.0,0.0,0.0,0.0,0.0,0.0,0.0,0.0,0.0,0.0,0.0,0.0,0.0,0.0,0.0,0.0,0.0,0.0,0.0,0.0,0.0,0.0,0.0,0.0,0.0,0.0,0.0,1.185,1.1617,1.1844,1.1844,0.0,1.185,1.1844,1.1582,1.1053,1.0707,1.0538,1.1788,1.2338,1.2432,1.2913,1.3046,1.3025,1.342,1.364,1.37,1.37,1.3888,1.4088,0.0,0.0,0.0,0.0,0.0,0.0,0.0,0.0,0.0,0.0,0.0,0.0,0.0,0.0,0.0,0.0,0.0,0.0,0.0,0.0,0.4976,0.4976,0.5328,0.5678,0.6009,0.7122,0.7883,0.8235,0.8235,0.8427,0.8804,0.8804,0.8804,0.8804,0.8804,0.8479,0.7908,0.7726,0.6686,0.5167,0.5167,0.4949,0.46,0.4522,0.4586,0.467,0.4545,0.0,0.0,0.0,0.0,0.0,0.0,0.0,0.6346,0.6678,0.7209,0.7777,0.0,0.0,0.0,0.0,0.0,0.0,0.0,0.0,0.0,0.0,0.0,0.0,0.0,0.0,0.0,0.0,0.0,0.0,0.0,0.0,0.0,0.0,0.0,0.0,0.0,0.0,0.0,0.0,0.0,0.0,0.0,0.0,0.0,0.0,1.1577,1.1583,1.1389,1.1583,1.1577,1.1395,1.1583,1.1503,1.1202,1.1166,1.1137,1.115,1.1952,1.2305,1.2325,1.2645,1.2766,1.2817,1.3093,1.3307,1.3413,1.3553,1.37,1.3895,0.0,0.0,0.0,0.0,0.0,0.0,0.0,0.0,0.0,0.0,0.0,0.0,0.0,0.0,0.0,0.0,0.0,0.0,0.0,0.0,0.0,0.5678,0.5678,0.6036,0.6777,0.7503,0.8182,0.8804,0.8804,0.8804,0.8804,0.8804,0.8804,0.8804,0.8804,0.8804,0.8804,0.8804,0.7685,0.5891,0.5837,0.53,0.4491,0.4491,0.4586,0.4674,0.4586,0.4634,0.4874,0.5756,0.0,0.0,0.0,0.0,0.7396,0.7946,0.8003,0.8023,0.0,0.0,0.0,0.0,0.0,0.0,0.0,0.0,0.0,0.0,0.0,0.0,0.0,0.0,0.0,0.0,0.0,0.0,0.0,0.0,0.0,0.0,0.0,0.0,0.0,0.0,0.0,0.0,0.0,0.0,0.0,0.0,1.1295,1.1242,1.1323,1.1295,1.1242,1.1323,1.1323,1.1242,1.1242,1.1176,1.1009,1.1531,1.1779,1.1846,1.2098,1.2258,1.2305,1.2358,1.2529,1.2717,1.2764,1.2971,1.324,1.344,1.3593,1.3713,0.0,0.0,0.0,0.0,0.0,0.0,0.0,0.0,0.0,0.0,0.0,0.0,0.0,0.0,0.0,0.0,0.0,0.0,0.0,0.0,0.0,0.6421,0.6453,0.6804,0.753,0.8262,0.8699,0.8804,0.8804,0.8804,0.0,0.0,0.8804,0.8804,0.8804,0.8804,0.8804,0.8804,0.7685,0.5891,0.5647,0.5136,0.4491,0.4491,0.4586,0.4694,0.4743,0.4822,0.5008,0.5891,0.6186,0.0,0.0,0.0,0.0,0.0,0.8187,0.0,0.0,0.0,0.0,0.0,0.0,0.0,0.0,0.0,0.0,0.0,0.0,0.0,0.0,0.0,0.0,0.0,0.0,0.0,0.0,0.0,0.0,0.0,0.0,0.0,0.0,0.0,0.0,0.0,0.0,0.0,0.0,1.0915,1.0935,1.0713,1.0922,1.0929,1.0713,1.0922,1.0922,1.0707,1.0707,1.0821,1.0995,1.1076,1.1249,1.1469,1.1797,1.2107,1.2318,1.2616,1.2596,1.2385,1.2683,1.2971,1.3213,1.3253,1.3587,1.4035,0.0,0.0,0.0,0.0,0.0,0.0,0.0,0.0,0.0,0.0,0.0,0.0,0.0,0.0,0.0,0.0,0.0,0.0,0.0,0.0,0.0,0.7208,0.7208,0.7369,0.7696,0.8427,0.8804,0.8804,0.8804,0.0,0.0,0.8804,0.8804,0.0,0.0,0.8804,0.8804,0.8804,0.807,0.6875,0.6335,0.5683,0.5042,0.4724,0.4684,0.4819,0.4843,0.5232,0.5868,0.6743,0.7355,0.0,0.0,0.0,0.0,0.0,0.0,0.0,0.0,0.0,0.0,0.0,0.0,0.0,0.0,0.0,0.0,0.0,0.0,0.0,0.0,0.0,0.0,0.0,0.0,0.0,0.0,0.0,0.0,0.0,0.0,0.0,0.0,0.0,0.0,0.0,0.0,0.0,1.0606,1.0713,1.0727,1.0593,1.0713,1.072,1.0593,1.072,1.072,1.0593,1.0593,1.066,1.0787,1.0787,1.0909,1.1209,1.1705,1.198,1.2084,1.2415,1.2418,1.2318,1.2445,1.2579,1.2719,1.2893,1.3227,1.3621,0.0,0.0,0.0,0.0,0.0,0.0,0.0,0.0,0.0,0.0,0.0,0.0,0.0,0.0,0.0,0.0,0.0,0.0,0.0,0.0,0.0,0.0,0.0,0.7777,0.7963,0.8507,0.8804,0.8804,0.0,0.0,0.8811,0.9035,0.9035,0.0,0.8804,0.8804,0.0,0.0,0.0,0.0,0.0,0.0,0.0,0.0,0.0,0.5426,0.5498,0.0,0.0,0.0,0.0,0.0,0.0,0.0,0.0,0.0,0.0,0.0,0.0,0.0,0.0,0.0,0.0,0.0,0.0,0.0,0.0,0.0,0.0,0.0,0.0,0.0,0.0,0.0,0.0,0.0,0.0,0.0,0.0,0.0,0.0,0.0,0.0,0.0,0.0,0.0,0.0,0.0,1.0586,1.0593,1.0593,1.0593,1.0593,1.0593,1.0593,1.0593,1.0593,1.0593,1.0593,1.0593,1.0593,1.0593,1.0713,1.0941,1.1457,1.1765,1.1926,1.2104,1.2238,1.2305,1.2305,1.2345,1.2445,1.2703,1.2985,1.3253,0.0,0.0,0.0,0.0,0.0,0.0,0.0,0.0,0.0,0.0,0.0,0.0,0.0,0.0,0.0,0.0,0.0,0.0,0.0,0.0,0.0,0.0,0.0,0.0,0.8725,0.8785,0.8804,0.0,0.0,0.0,0.8804,0.971,0.9666,0.8804,0.8804,0.8804,0.8804,0.0,0.0,0.0,0.0,0.0,0.0,0.0,0.0,0.0,0.0,0.0,0.0,0.0,0.0,0.0,0.0,0.0,0.0,0.0,0.0,0.0,0.0,0.0,0.0,0.0,0.0,0.0,0.0,0.0,0.0,0.0,0.0,0.0,0.0,0.0,0.0,0.0,0.0,0.0,0.0,0.0,0.0,0.0,0.0,0.0,0.0,0.0,0.0,0.0,0.0,0.0,1.0579,1.0593,1.0593,1.0593,1.0593,1.0593,1.0593,1.0593,1.0593,1.0593,1.0593,1.0593,1.0593,1.0593,1.06,1.0633,1.0909,1.1356,1.1906,1.1926,1.2051,1.2305,1.2305,1.2478,1.2764,1.2777,1.2985,1.3253,0.0,0.0,0.0,0.0,0.0,0.0,0.0,0.0,0.0,0.0,0.0,0.0,0.0,0.6199,0.6502,0.7235,0.0,0.0,0.0,0.0,0.0,0.0,0.0,0.0,0.0,0.8804,0.0,0.0,0.0,0.8804,0.8811,0.9133,0.9106,0.8804,0.8804,0.8804,0.8804,0.8804,0.0,0.0,0.0,0.0,0.0,0.0,0.0,0.0,0.0,0.0,0.0,0.0,0.0,0.0,0.0,0.0,0.0,0.0,0.0,0.0,0.0,0.0,0.0,0.0,0.0,0.0,0.0,0.0,0.0,0.0,0.0,0.0,0.0,0.0,0.0,0.0,0.0,0.0,0.0,0.0,0.0,0.0,0.0,0.0,0.0,0.0,0.0,0.0,0.0,0.0,1.0261,1.0274,1.0187,1.0037,1.018,1.0274,1.0274,1.0492,1.0593,1.0593,1.0593,1.0593,1.0593,1.0593,1.0593,1.0606,1.0868,1.1216,1.1617,1.1991,1.2204,1.2305,1.2305,1.2365,1.2496,1.2496,1.269,1.2965,0.0,0.0,0.0,0.0,0.0,0.0,0.0,0.0,0.0,0.0,0.0,0.0,0.0,0.0,0.7295,0.8118,0.8565,0.8844,0.8918,0.0,0.0,0.0,0.0,0.0,0.0,0.0,0.0,0.0,0.0,0.0,0.0,0.891,0.8804,0.8804,0.8804,0.8804,0.0,0.0,0.0,0.8752,0.0,0.0,0.8175,0.0,0.0,0.0,0.0,0.0,0.0,0.0,0.0,0.0,0.0,0.0,0.0,0.0,0.0,0.0,0.0,0.0,0.0,0.0,0.0,0.0,0.0,0.0,0.0,0.0,0.0,0.0,0.0,0.0,0.0,0.0,0.0,0.0,0.0,0.0,0.0,0.0,0.0,0.0,0.0,0.0,0.0,0.0,0.0,0.0,1.0094,1.0083,1.0027,0.9833,1.0013,1.0083,1.0083,1.0445,1.0593,1.0593,1.0593,1.0593,1.0593,1.0593,1.0593,1.0606,1.0868,1.1156,1.1429,1.1957,1.2218,1.2305,1.2305,1.2305,1.2305,1.2305,1.2425,1.265,0.0,0.0,0.0,0.0,0.0,0.0,0.0,0.0,0.0,0.675,0.0,0.0,0.0,0.0,0.0,0.9101,0.8958,0.8911,0.9184,0.8938,0.0,0.0,0.0,0.0,0.0,0.0,0.0,0.0,0.0,0.0,0.0,0.0,0.8831,0.8831,0.8811,0.8804,0.8804,0.0,0.8804,0.8804,0.0,0.8958,0.9204,0.0,0.0,0.0,0.9708,0.9873,0.0,0.0,0.0,0.0,0.0,0.0,0.0,0.0,0.0,0.0,0.0,0.0,0.0,0.0,0.0,0.0,0.0,0.0,0.0,0.0,0.0,0.0,0.0,0.0,0.0,0.0,0.0,0.0,0.0,0.0,0.0,0.0,0.0,0.0,0.0,0.0,0.0,0.0,0.0,0.9457,1.0074,1.0057,1.008,1.0057,1.007,1.01,1.01,1.0439,1.0593,1.0593,1.0593,1.0593,1.0593,1.0593,1.0593,1.0613,1.0875,1.1169,1.1415,1.175,1.2074,1.2305,1.2305,1.2305,1.2305,1.2305,1.2305,1.2345,0.0,0.0,0.0,0.0,0.0,0.0,0.0,0.0,0.8427,0.0,0.0,0.0,0.8893,0.9043,0.9154,0.9196,0.9138,0.9038,0.8911,0.8851,0.8804,0.8804,0.9263,0.951,0.0,0.0,0.0,0.0,0.0,0.0,1.0517,0.0,0.0,0.0,0.9008,0.8804,0.8804,0.8804,0.0,0.0,0.9004,0.9018,0.0,0.0,0.0,0.0,0.0,0.9873,0.0,0.0,1.0472,1.0432,0.0,0.0,0.0,0.0,0.0,0.0,0.933,0.0,0.0,0.0,0.0,0.0,0.0,0.0,0.0,0.0,0.0,0.0,0.0,0.0,0.0,0.0,0.0,0.0,0.0,0.0,0.0,0.0,0.0,0.0,0.0,0.0,0.0,0.0,0.9212,0.9185,0.9773,0.9399,0.9237,0.9451,0.9693,0.98,0.98,1.0338,1.0593,1.0593,1.0593,1.0593,1.0593,1.0593,1.0593,1.062,1.1089,1.1315,1.1415,1.175,1.2074,1.2305,1.2305,1.2305,1.2305,1.2305,1.2305,1.2345,0.0,0.0,0.0,0.0,0.0,0.0,0.0,0.0,0.0,0.0,0.0,0.0,0.9384,0.9686,0.9793,0.959,0.9464,0.9406,0.9359,0.9098,0.9092,0.9407,0.9661,1.0029,1.0507,0.0,0.0,0.0,0.0,0.0,0.0,0.0,0.0,0.0,0.0,0.0,0.0,0.0,0.0,0.0,0.9322,0.0,0.0,0.9939,1.0265,0.0,0.0,0.0,1.081,1.0859,1.076,0.0,0.0,0.0,0.0,0.0,0.0,0.0,0.0,0.0,0.0,0.0,0.0,0.0,0.0,0.8871,0.0,0.0,0.0,0.0,0.0,0.0,0.0,0.0,0.0,0.0,0.0,0.0,0.0,0.0,0.0,0.0,0.0,0.0,0.0,0.0,0.9252,0.9111,0.9479,0.9144,0.9038,0.9211,0.9526,0.9715,0.9715,1.0298,1.0593,1.0593,1.0593,1.0593,1.0593,1.0593,1.066,1.0787,1.1096,1.1383,1.1623,1.1832,1.2074,1.2305,1.2305,1.2305,1.2305,1.2305,1.2378,1.2549,0.0,0.0,0.0,0.0,0.0,0.0,0.0,0.0,0.0,0.0,0.892,0.9424,0.9746,1.0007,1.0154,1.009,0.988,0.9826,1.0053,0.955,0.9556,1.0203,1.0109,1.0501,1.1522,1.169,0.0,0.0,0.0,0.0,0.0,0.0,0.0,0.0,0.0,0.0,0.0,0.0,0.0,0.9397,0.9754,1.0247,0.0,0.0,1.1781,0.0,1.2068,1.1911,1.1751,1.1458,1.1083,0.0,0.0,0.0,0.0,0.0,1.0405,0.0,0.0,0.0,0.0,0.0,0.0,0.0,0.9031,0.9051,0.9138,0.0,0.0,0.0,0.0,0.0,0.0,0.0,0.0,0.0,0.0,0.0,0.0,0.0,0.0,0.0,0.0,0.0,0.9304,0.9688,0.9437,0.9264,0.9171,0.9191,0.9198,0.9164,0.9512,0.9715,0.9715,1.0298,1.0593,1.0593,1.0593,1.0593,1.0593,1.0593,1.0766,1.1106,1.1048,1.1404,1.2001,1.1962,1.2064,1.2305,1.2305,1.2305,1.2305,1.2305,1.2509,1.2737,0.0,0.0,0.0,0.0,0.0,0.0,0.0,0.0,0.0,0.9413,0.9711,1.006,1.0385,1.0472,1.0381,1.011,1.0037,0.996,0.978,0.9659,0.9657,0.9822,1.088,1.1584,1.1815,1.2987,1.3659,0.0,0.0,0.0,0.0,0.0,0.0,0.0,0.0,0.0,0.0,0.0,0.0,1.0413,1.0488,0.0,1.1382,1.1677,1.1878,1.2043,1.236,1.2192,1.1788,0.0,1.1627,1.1547,0.0,0.0,0.0,0.0,0.0,0.0,0.0,0.0,0.0,0.0,0.0,0.0,0.9593,0.9344,0.9198,0.0,0.0,0.0,0.0,0.0,0.0,0.0,0.0,0.0,0.0,0.0,0.0,0.0,0.0,0.0,0.0,0.0,0.9112,0.9675,0.9846,0.9604,0.8904,0.9084,0.9104,0.8898,0.9406,0.9715,0.9715,1.0298,1.0593,1.0593,1.0593,1.0593,1.0593,1.0593,1.0985,1.1616,1.1429,1.1778,1.2548,1.2305,1.2251,1.2305,1.2305,1.2305,1.2305,1.2305,1.2338,1.2425,0.0,0.0,0.0,0.0,0.0,0.0,0.0,0.0,0.0,0.988,1.0154,1.0425,1.0579,1.0593,1.0533,1.0347,1.0341,1.0274,1.0157,0.998,1.0248,1.0996,1.1579,1.2348,1.333,1.4087,1.4463,0.0,0.0,0.0,0.0,0.0,0.0,0.0,0.0,0.0,0.0,0.0,1.1688,1.2195,1.1555,0.0,1.226,1.2797,1.3131,1.3394,1.3612,1.3403,1.2931,1.2535,1.253,0.0,0.0,1.2545,1.2243,0.0,1.1155,1.0774,0.0,0.0,0.0,1.0187,0.0,0.0,0.0,0.9955,0.9672,0.0,0.0,0.0,0.0,0.0,0.0,0.0,0.0,0.0,0.0,0.0,0.0,0.0,0.0,0.0,0.0,0.0,0.9118,0.9439,0.9837,0.9764,0.9038,0.9131,0.9211,0.9245,0.9939,1.0176,0.99,1.0753,1.0982,1.0593,1.0593,1.0593,1.0624,1.1014,1.1619,1.2352,1.2617,1.3218,1.3936,1.3818,1.373,1.3694,1.32,1.2989,1.2989,1.2989,1.2799,1.2583,0.0,0.0,0.0,0.0,0.0,0.0,0.0,0.0,0.0,1.0174,1.0392,1.0506,1.0506,1.0459,0.0,0.0,1.0629,1.0719,0.0,0.0,1.0913,1.2334,1.2212,1.287,1.4514,1.4807,1.4902,1.4902,0.0,0.0,0.0,0.0,0.0,0.0,0.0,0.0,0.0,0.0,0.0,1.3694,0.0,1.2722,1.3351,1.4064,1.4551,1.4795,1.4704,1.4475,1.4103,1.354,0.0,1.387,1.3937,1.3721,0.0,0.0,0.0,0.0,0.0,0.0,0.0,0.0,0.0,1.1098,0.0,0.0,0.0,1.0857,0.0,0.0,0.0,0.0,0.0,0.0,0.0,0.0,0.0,0.0,0.0,0.0,0.0,0.0,0.0,0.0,0.9191,0.9131,0.967,0.977,0.9244,0.9264,0.9411,0.9708,1.0516,1.0697,1.0114,1.1216,1.1406,1.0593,1.0593,1.0593,1.0624,1.1437,1.226,1.3076,1.3793,1.4555,1.5345,1.5236,1.5305,1.5376,1.4378,1.3882,1.3709,1.3709,1.3299,1.2697,0.8804,0.8804,0.0,0.0,0.0,0.0,0.0,0.0,0.0,1.0539,1.0307,1.0167,0.0,0.0,0.0,0.0,0.0,0.0,1.2132,0.0,0.0,1.2364,1.2706,1.3139,1.3722,1.4792,1.5342,1.5342,0.0,0.0,0.0,0.0,0.0,0.0,1.406,0.0,0.0,0.0,1.2922,0.0,1.3864,1.4189,0.0,1.507,1.5068,1.474,1.4404,1.4227,1.4267,0.0,1.471,1.48,0.0,1.5253,0.0,0.0,0.0,0.0,0.0,0.0,0.0,0.0,1.2702,0.0,0.0,0.0,1.2331,1.2373,0.0,0.0,0.0,0.0,0.0,0.0,0.0,0.0,0.0,0.0,0.0,0.0,0.0,0.0,0.0,0.0,0.0,0.8878,0.9399,0.9593,0.9231,0.9492,0.9653,0.9715,1.0697,1.0892,1.012,1.1216,1.1406,1.0593,1.0593,1.0593,1.0624,1.1437,1.2437,1.3556,1.3941,1.4738,1.5792,1.5373,1.5685,1.6358,1.5411,1.4486,1.3709,1.3709,1.3119,1.2351,0.8804,0.8804,0.0,0.0,0.0,0.0,0.0,0.0,0.0,1.0593,1.0486,0.0,0.0,0.0,0.0,0.0,0.0,1.1342,0.0,0.0,0.0,1.3393,1.3617,1.3984,1.4619,1.5139,1.541,1.541,1.541,0.0,0.0,0.0,0.0,0.0,1.4764,0.0,1.4563,0.0,0.0,0.0,0.0,0.0,0.0,1.5439,1.5303,1.5137,1.4963,1.5054,1.5321,0.0,1.592,0.0,0.0,0.0,0.0,0.0,0.0,0.0,0.0,0.0,0.0,0.0,0.0,0.0,0.0,0.0,1.2936,0.0,0.0,0.0,0.0,0.0,0.0,0.0,0.0,0.0,0.0,0.0,0.0,0.0,0.0,0.0,0.0,0.0,0.0,0.0,0.0,0.9626,0.9506,0.9452,0.9579,0.9927,1.0682,1.0864,1.0399,1.1341,1.1406,1.0593,1.0593,1.0593,1.0656,1.1934,1.3064,1.4053,1.5138,1.6192,1.7109,1.6902,1.7044,1.7335,1.6717,1.6033,1.5332,1.4772,1.3954,1.3025,0.0,0.0,0.0,0.0,0.0,0.0,0.0,0.0,0.0,0.0,0.0,0.0,1.0771,1.0726,0.0,0.0,0.0,1.2059,0.0,0.0,1.3345,0.0,0.0,0.0,0.0,0.0,0.0,0.0,0.0,0.0,0.0,0.0,0.0,0.0,0.0,1.5241,1.5319,0.0,0.0,1.6257,1.7001,1.6729,1.588,1.5527,1.541,1.541,1.541,1.5615,1.5948,1.6162,1.667,0.0,1.748,0.0,0.0,0.0,0.0,0.0,1.5237,0.0,0.0,0.0,0.0,0.0,0.0,0.0,0.0,0.0,0.0,0.0,0.0,0.0,0.0,0.0,0.0,0.0,0.0,0.0,0.0,0.0,0.0,0.0,0.0,0.0,0.0,0.0,0.943,0.0,0.9559,0.9404,0.9564,1.007,1.0791,1.0973,1.0586,1.1406,1.1406,1.0593,1.0593,1.0713,1.0989,1.2366,1.3584,1.4705,1.6096,1.7184,1.8008,1.8008,1.8008,1.7978,1.7676,1.7312,1.68,1.5504,1.4443,1.3564,0.9144,0.8971,0.0,0.0,0.0,0.0,0.0,0.0,0.0,0.0,0.0,0.0,0.0,0.0,0.0,0.0,0.0,1.3525,1.4644,0.0,1.4326,0.0,0.0,1.525,0.0,0.0,0.0,0.0,0.0,0.0,0.0,0.0,0.0,0.0,0.0,1.5415,1.6384,1.5319,1.5501,1.6428,1.5759,1.5469,1.543,0.0,1.541,1.541,1.541,0.0,0.0,1.6395,1.6697,0.0,0.0,0.0,0.0,0.0,0.0,0.0,0.0,0.0,0.0,1.6721,0.0,0.0,0.0,0.0,1.5323,0.0,0.0,0.0,0.0,0.0,0.0,0.0,0.0,0.0,0.0,0.0,0.0,0.0,0.0,0.0,0.0,0.0,0.0,0.9777,0.9187,0.0,0.9211,0.9519,0.9806,1.0077,1.1195,1.1384,1.0624,1.1406,1.1406,1.0593,1.0593,1.1021,1.1803,1.2604,1.3896,1.5514,1.6329,1.7184,1.8008,1.8008,1.8008,1.8008,1.7998,1.7964,1.7677,1.5386,1.4159,1.3564,0.0,0.0,0.0,0.0,0.0,0.0,0.0,1.0842,0.0,0.0,0.0,0.0,0.0,0.0,1.1689,0.0,0.0,1.3479,1.4728,1.4907,0.0,0.0,0.0,1.6088,0.0,0.0,0.0,0.0,0.0,0.0,0.0,0.0,0.0,0.0,0.0,1.5975,0.0,0.0,0.0,0.0,0.0,1.6168,1.6512,0.0,0.0,1.541,1.541,1.5761,0.0,1.6599,1.7077,1.7594,1.792,1.8008,1.8008,1.8008,1.8008,0.0,0.0,0.0,1.7695,1.7266,0.0,0.0,0.0,0.0,0.0,0.0,0.0,0.0,0.0,0.0,0.0,0.0,0.0,0.0,0.0,0.0,0.0,0.0,0.0,0.0,0.0,0.0,0.0,1.0101,0.9458,0.9111,0.0,0.9519,0.9639,0.9511,1.0269,1.053,1.0267,1.0767,1.1139,1.1375,1.1375,1.181,1.2604,1.3425,1.4422,1.5547,1.636,1.7184,1.7988,1.7705,1.7764,1.7949,1.735,1.7477,1.7818,1.6423,1.5783,1.5403,0.996,0.0,0.0,0.0,0.0,0.0,0.0,0.0,0.0,0.0,1.1344,0.0,1.2361,0.0,1.2676,0.0,1.3895,1.4195,1.5205,1.5488,0.0,1.5644,1.6317,0.0,0.0,0.0,0.0,0.0,0.0,1.587,0.0,0.0,0.0,0.0,0.0,0.0,0.0,0.0,1.7559,0.0,0.0,1.6248,0.0,0.0,1.5644,1.5644,0.0,1.6006,1.6543,1.6824,1.7324,1.7812,1.7959,1.8008,1.8008,1.8008,1.8008,1.8008,1.8008,1.8008,0.0,0.0,1.7523,0.0,1.7031,0.0,0.0,0.0,0.0,0.0,0.0,0.0,0.0,0.0,0.0,0.0,0.0,0.0,0.0,0.0,0.0,0.0,0.0,0.0,1.0353,1.0818,0.9833,0.9257,0.0,0.0,0.9753,0.9531,1.002,1.0274,1.0274,1.0767,1.1288,1.1803,1.2081,1.2729,1.3691,1.4036,1.4912,1.6206,1.6565,1.7184,1.7978,1.7559,1.7627,1.7939,1.7236,1.7393,1.7886,1.6766,1.6234,1.593,0.0,0.0,0.0,0.0,1.0717,0.0,0.0,0.0,1.1331,0.0,1.2028,1.2279,1.3498,1.394,1.4335,1.4788,1.5156,0.0,1.6036,1.6085,0.0,0.0,1.6484,1.6297,1.5459,0.0,0.0,0.0,0.0,0.0,0.0,0.0,0.0,0.0,1.6114,0.0,1.8211,1.7469,1.7327,1.7413,1.5989,1.5733,1.6185,1.6124,0.0,1.6153,1.6134,1.6134,1.629,1.7132,1.7393,1.749,1.7881,1.8008,1.8008,1.8008,1.8008,1.8008,1.8008,1.8008,1.8008,1.8008,0.0,0.0,0.0,0.0,1.6755,0.0,0.0,0.0,0.0,0.0,0.0,0.0,0.0,0.0,0.0,0.0,0.0,0.0,0.0,0.0,0.0,1.1898,1.1153,1.1812,1.0287,0.0,0.0,0.0,0.0,1.0094,1.0432,1.0586,1.0573,1.1399,1.1834,1.1865,1.2665,1.3713,1.4918,1.4475,1.538,1.7295,1.6853,1.7155,1.7949,1.7529,1.7598,1.7939,1.7539,1.7637,1.7847,1.649,1.5721,1.534,1.2142,1.2682,1.2945,0.0,1.2242,1.2324,0.0,0.0,0.0,0.0,1.2721,1.2594,1.3889,1.3859,1.4151,1.5177,1.5068,0.0,0.0,0.0,0.0,1.5596,1.6287,1.6465,1.5938,1.6768,0.0,1.6365,0.0,0.0,1.5919,0.0,0.0,0.0,0.0,0.0,1.744,1.7022,1.6818,1.674,1.6137,1.6507,0.0,0.0,1.6758,1.7034,1.668,1.6768,1.7112,1.7305,1.7588,1.7871,1.7978,1.8008,1.8008,1.8008,1.8008,1.8008,1.8008,1.8008,1.8008,1.8008,1.793,1.7852,0.0,0.0,0.0,0.0,0.0,0.0,0.0,0.0,0.0,0.0,0.0,0.0,0.0,0.0,0.0,0.0,0.0,0.0,0.0,1.2439,1.1896,1.1482,1.102,0.0,0.0,0.0,0.0,0.9813,1.0325,1.0486,1.0234,1.126,1.2104,1.2696,1.3515,1.4387,1.5271,1.5156,1.5592,1.6427,1.631,1.676,1.751,1.708,1.7158,1.7529,1.7422,1.7637,1.7964,1.7591,1.7381,1.7192,1.3515,0.0,0.0,1.5167,0.0,0.0,1.4371,0.0,0.0,1.446,1.3912,0.0,1.4645,1.4521,1.4582,1.5098,1.5088,0.0,0.0,0.0,0.0,1.5693,1.5986,1.6035,1.5811,1.6486,0.0,1.6445,0.0,0.0,1.6095,0.0,0.0,0.0,0.0,1.7299,0.0,1.7165,1.6971,1.7,1.6357,0.0,0.0,1.7172,1.7285,1.7627,1.735,1.7334,1.7445,1.7598,1.7812,1.8008,1.8008,1.8008,1.8008,1.8008,1.8008,1.8008,1.8008,1.8008,1.8008,1.8008,1.8008,1.8008,1.8008,1.8008,1.7939,0.0,0.0,0.0,0.0,0.0,0.0,0.0,0.0,0.0,0.0,0.0,0.0,0.0,0.0,0.0,1.3013,1.2821,1.2475,1.1845,0.0,0.0,0.0,0.0,0.0,1.0104,1.0546,1.064,1.0314,1.1769,1.2663,1.3009,1.4174,1.5057,1.5693,1.5498,1.5752,1.6357,1.6357,1.6748,1.7363,1.7119,1.7275,1.7656,1.7656,1.7803,1.8008,1.8008,1.8008,1.7959,0.0,0.0,0.0,0.0,0.0,0.0,0.0,1.458,0.0,1.5326,0.0,1.4967,1.5362,1.541,1.5264,1.4902,0.0,1.5694,1.5987,1.5713,1.5694,1.5987,1.5615,1.541,1.541,1.587,0.0,0.0,0.0,0.0,0.0,0.0,0.0,0.0,0.0,0.0,0.0,1.7491,1.7326,0.0,1.6635,1.6721,1.7425,1.7451,1.7695,1.8008,1.8008,1.7773,1.7519,1.7881,1.8008,1.8008,1.8008,1.8008,1.8008,1.8008,1.8008,1.8008,1.8008,1.8008,1.8008,1.8008,1.8008,1.8008,1.8008,1.8008,1.8008,1.8008,1.7715,0.0,0.0,0.0,0.0,0.0,0.0,0.0,0.0,0.0,0.0,0.0,0.0,0.0,0.0,0.0,0.0,0.0,0.0,0.0,0.0,0.0,0.0,0.0,1.0841,0.0,1.0646,0.0,1.3245,1.3075,1.4656,1.5615,1.5997,1.5644,1.5888,1.6619,1.6677,1.6982,1.7383,1.7383,1.7627,1.8008,1.7949,1.7959,1.8008,1.8008,1.8047,1.8135,0.0,0.0,0.0,0.0,0.0,1.7432,1.6887,1.5336,1.4638,1.5821,1.499,1.4593,1.5332,1.541,1.5381,1.5312,1.5909,0.0,0.0,0.0,0.0,1.5557,1.5449,1.541,1.541,1.587,1.625,0.0,0.0,0.0,0.0,0.0,0.0,0.0,0.0,0.0,1.7563,1.7017,0.0,1.6906,1.7096,1.7246,1.7422,1.7773,1.7949,1.8008,1.8008,1.7959,1.791,1.7988,1.8008,1.8008,1.8008,1.8008,1.8008,1.8008,1.8008,1.8008,1.8008,1.8008,1.8008,1.8008,1.8008,1.8008,1.8008,1.8008,1.8008,1.8008,1.7949,1.7793,1.7451,0.0,0.0,0.0,0.0,0.0,0.0,0.0,0.0,0.0,0.0,0.0,0.0,0.0,0.0,0.0,0.0,0.0,0.0,0.0,0.0,0.0,0.0,0.0,0.0,0.0,0.0,1.3352,1.4726,1.5449,1.5537,1.585,1.6065,1.6232,1.6572,1.6982,1.7383,1.7383,1.7627,1.7978,1.7627,1.7705,1.8008,1.8008,1.8198,1.8451,0.0,0.0,0.0,0.0,0.0,0.0,0.0,1.6304,0.0,1.6342,1.5712,1.5324,1.5712,1.5547,1.5555,1.595,1.6293,1.651,1.6557,1.6856,1.6726,1.6007,1.6201,0.0,1.541,1.587,1.631,1.6697,0.0,0.0,0.0,0.0,0.0,0.0,0.0,1.7705,0.0,0.0,0.0,1.7393,1.7383,1.7797,1.8403,1.8606,1.8944,1.9299,1.8854,1.8654,1.863,1.8134,1.8008,1.8008,1.8008,1.8008,1.8008,1.8008,1.8008,1.8008,1.8008,1.8008,1.8008,1.8008,1.8008,1.8008,1.8008,1.8008,1.8008,1.8008,1.8008,1.7881,1.7461,1.7031,0.0,0.0,0.0,0.0,0.0,0.0,0.0,0.0,0.0,0.0,0.0,0.0,0.0,0.0,0.0,1.3475,1.2473,0.0,0.0,0.0,0.0,0.0,0.0,0.0,0.0,1.4198,1.5003,1.5527,1.5782,1.5997,1.6095,1.6134,1.6777,1.7187,1.7435,1.7617,1.7832,1.7988,1.7793,1.7832,1.8037,1.8217,1.8432,1.8607,0.0,1.8057,0.0,0.0,1.8203,0.0,1.7705,1.7207,1.6775,1.659,1.6201,1.5958,1.5958,1.5615,1.569,1.6436,1.6652,1.6978,1.755,1.7706,1.7428,1.6696,1.6941,1.6667,1.5703,1.6035,1.6426,0.0,0.0,0.0,0.0,0.0,0.0,0.0,0.0,0.0,0.0,0.0,1.7705,1.7978,1.7879,1.8415,1.9299,1.9497,2.0009,2.0526,1.9814,1.9464,1.921,1.8496,1.8134,1.8008,1.8008,1.8008,1.8008,1.8008,1.8008,1.8008,1.8008,1.8008,1.8008,1.8008,1.8008,1.8008,1.8008,1.8008,1.8008,1.8008,1.8008,1.7881,1.7461,1.7178,0.0,0.0,0.0,0.0,0.0,0.0,0.0,0.0,0.0,0.0,0.0,0.0,0.0,0.0,0.0,1.3915,1.3295,1.241,0.0,0.0,0.0,1.1407,1.1869,0.0,1.4104,0.0,1.5316,1.5732,1.6095,1.6193,1.629,1.6418,1.7178,1.7519,1.7539,1.7871,1.8008,1.8008,1.8008,1.8008,1.8057,1.8451,1.8656,1.8802,0.0,0.0,0.0,0.0,0.0,0.0,0.0,1.7842,1.7041,1.6261,1.5742,1.5469,1.5469,1.5439,1.569,1.6436,1.7118,1.7523,1.7605,1.8002,1.7915,1.7179,1.6889,1.6682,1.658,1.6619,1.6885,0.0,0.0,0.0,0.0,0.0,0.0,0.0,0.0,0.0,0.0,1.7969,1.7978,1.8076,1.8803,1.9201,1.9398,2.0171,2.0526,2.059,2.0526,1.9977,1.9299,1.921,1.8654,1.8008,1.8008,1.8008,1.8008,1.8008,1.8008,1.8008,1.8008,1.8008,1.8008,1.8008,1.8008,1.8008,1.8008,1.8008,1.8008,1.8008,1.8008,1.7881,1.7461,1.7656,1.7603,0.0,0.0,0.0,0.0,0.0,0.0,0.0,0.0,0.0,0.0,0.0,0.0,0.0,0.0,1.4109,1.4079,1.2962,1.2164,1.1819,0.0,1.1881,1.2173,1.3899,0.0,1.4746,1.5611,1.6056,1.6105,1.6484,1.6885,1.7285,1.7744,1.7949,1.7959,1.7988,1.8008,1.8008,1.8008,1.8008,1.8057,1.8451,1.8887,1.9287,0.0,0.0,0.0,0.0,0.0,0.0,0.0,1.7598,1.7103,1.6212,1.5938,1.5703,1.5439,1.541,1.5882,1.7062,1.744,1.8114,1.9381,1.9143,1.8765,1.8367,1.7968,1.7451,1.6707,1.6992,1.7207,0.0,0.0,0.0,0.0,0.0,0.0,0.0,0.0,1.8008,1.8008,1.8008,1.8008,1.8042,1.8371,1.9144,2.0107,2.0462,2.1227,2.1959,2.0974,2.0365,1.9911,1.8888,1.8303,1.8008,1.8008,1.8008,1.8008,1.8008,1.8008,1.8008,1.8008,1.8008,1.8008,1.8008,1.8008,1.8008,1.8008,1.8008,1.8008,1.8008,1.8008,1.7959,1.7793,1.7686,1.7607,0.0,0.0,0.0,0.0,0.0,0.0,0.0,0.0,0.0,0.0,0.0,0.0,0.0,0.0,0.0,1.4884,1.3557,1.2679,1.2543,0.0,1.2575,1.2687,1.4157,1.5247,1.5883,1.6268,1.6602,1.6897,1.7041,1.7353,1.7773,1.7939,1.8008,1.8008,1.8008,1.8008,1.8008,1.8008,1.8164,1.8403,1.8867,1.9297,1.9727,1.9732,0.0,1.8978,0.0,1.8529,1.8096,1.7803,1.7646,1.7256,1.6408,1.629,1.6045,1.5478,1.541,1.6077,1.7723,1.7857,1.8629,2.0431,1.9892,1.9348,1.8951,1.8564,0.0,1.7109,1.7412,1.7568,1.7568,1.8405,0.0,0.0,0.0,0.0,0.0,1.8395,1.8008,1.8008,1.8008,1.8008,1.8008,1.8269,1.9266,2.0623,2.0878,2.1865,2.2914,2.1491,2.0814,2.0365,1.8877,1.8202,1.8008,1.8008,1.8008,1.8042,1.8303,1.8371,1.8371,1.8371,1.8371,1.8337,1.8076,1.8008,1.8008,1.8008,1.8008,1.8008,1.8008,1.8008,1.8008,1.8008,1.7764,1.7717,1.8108,0.0,0.0,0.0,0.0,0.0,0.0,0.0,0.0,0.0,0.0,0.0,0.0,0.0,0.0,1.5381,1.3987,0.0,0.0,0.0,0.0,0.0,1.479,1.581,1.6543,1.6765,1.709,1.7393,1.751,1.7734,1.8008,1.8008,1.8008,1.8008,1.8008,1.8008,1.8018,1.8144,1.8344,1.8666,1.9268,1.9658,1.998,2.0769,2.0195,1.9893,1.9893,1.9163,1.8588,1.8588,1.8237,1.7695,1.6804,1.6697,1.6356,1.5478,1.541,1.6238,1.831,1.8498,1.8988,2.0121,1.9954,1.9405,0.0,0.0,1.7998,1.7988,1.7998,1.8008,1.8008,0.0,0.0,1.9299,0.0,1.9299,1.9276,1.8395,1.8008,1.8008,1.8008,1.8008,1.8076,1.8944,1.9824,2.0687,2.1565,2.2384,2.2975,2.2199,2.1333,2.0462,1.9595,1.8721,1.8008,1.8008,1.8008,1.8168,1.9044,1.9266,1.9266,1.9266,1.9266,1.9077,1.8202,1.8008,1.8008,1.8008,1.8008,1.8008,1.8008,1.8008,1.8008,1.8008,1.8008,1.8121,1.853,0.0,0.0,0.0,0.0,0.0,0.0,0.0,0.0,0.0,0.0,0.0,0.0,0.0,0.0,0.0,0.0,0.0,1.4843,1.4421,0.0,1.4861,1.6078,1.6473,1.6114,1.6995,1.7373,1.7393,1.7812,1.8008,1.8008,1.8008,1.8008,1.8008,1.8008,1.8008,1.8047,1.8432,1.8598,1.8705,1.9553,1.9912,1.998,2.0356,1.9775,1.9394,1.9056,1.8549,1.7974,1.7399,1.748,1.7158,1.5956,1.6094,1.6055,1.5478,1.541,1.6238,0.0,1.8509,1.9149,0.0,2.0118,1.9527,1.9068,1.8382,1.8008,1.8008,1.8008,1.8303,1.8888,0.0,0.0,0.0,2.0462,1.989,1.9276,1.8395,1.8008,1.8008,1.8008,1.8008,1.8008,1.8303,1.9299,2.0623,2.091,2.1896,2.2964,2.1844,2.1247,2.0831,1.9688,1.9283,1.9295,1.9295,1.9124,1.8821,1.8496,1.9276,2.0042,1.9464,1.9716,2.0216,2.0279,1.9596,1.8959,1.9335,1.8672,1.8168,1.8754,1.8395,1.8008,1.8008,1.8496,1.8936,1.9077,0.0,0.0,0.0,0.0,0.0,0.0,0.0,0.0,0.0,1.541,0.0,0.0,0.0,0.0,0.0,0.0,0.0,0.0,1.4971,0.0,1.4901,1.6087,1.6629,1.6533,1.7393,1.7812,1.7812,1.7949,1.8008,1.8008,1.8008,1.8008,1.8008,1.8008,1.8008,1.8047,1.8432,1.8783,1.915,1.9707,2.0098,2.0419,2.072,1.9829,1.915,1.8676,1.8256,1.7832,1.7262,1.7441,1.7207,1.6024,1.6289,1.6359,1.5723,1.6088,0.0,1.867,1.8949,1.9549,2.0788,2.0339,1.9683,1.8834,1.8303,1.8008,1.8008,0.0,0.0,1.9299,2.0171,2.0719,2.091,2.0365,1.9661,1.8787,1.8236,1.8008,1.8008,1.8008,1.8008,1.8042,1.8361,1.9332,2.0623,2.0942,2.1928,2.2976,2.2095,2.1506,2.1118,2.0586,2.0309,2.0312,2.0647,2.0696,2.0435,1.9671,2.0236,2.0974,2.043,2.0655,2.1085,2.1102,2.0599,2.0146,2.031,1.9255,1.8473,1.936,1.8967,1.8596,1.8921,1.9431,1.989,2.0236,0.0,2.0403,0.0,0.0,0.0,0.0,0.0,0.0,0.0,1.5654,0.0,0.0,0.0,0.0,0.0,0.0,0.0,1.5355,1.5368,0.0,1.5364,1.6254,1.6697,1.6716,1.7564,1.8008,1.8008,1.8008,1.8008,1.8008,1.8008,1.8008,1.8008,1.8008,1.8105,1.8256,1.8721,1.9141,1.957,2.0,2.037,2.0605,2.1574,2.0188,0.0,0.0,1.8237,0.0,1.793,1.7949,1.7656,1.6765,1.7041,1.7024,1.6222,1.7246,1.8362,1.9257,0.0,0.0,0.0,2.059,1.9814,1.8076,1.8076,1.8076,1.8076,1.8944,1.9398,1.9398,2.0204,2.0139,1.9299,1.9299,1.8811,1.8008,1.8008,1.8008,1.8008,1.8008,1.8008,1.8076,1.8944,1.9814,2.0687,2.1553,2.2384,2.3049,2.2838,2.2101,2.1375,2.2048,2.1697,2.108,2.2045,2.2551,2.2711,2.2096,2.1937,2.1982,2.1956,2.1963,2.1796,2.1065,2.1257,2.1487,2.1038,1.9817,1.9034,1.9902,1.9714,1.9628,2.0462,2.0655,2.0942,2.1784,2.1456,2.1181,2.1437,0.0,0.0,0.0,0.0,0.0,0.0,1.6165,1.6287,0.0,0.0,0.0,0.0,0.0,1.5704,1.6085,1.5635,1.5635,1.6134,1.6523,1.6726,1.6794,1.7594,1.8027,1.8057,1.8057,1.8057,1.8057,1.8057,1.8037,1.8008,1.8008,1.8252,1.8646,1.9121,1.9541,1.9971,2.0449,2.0605,2.0605,0.0,0.0,1.8617,1.8232,1.8076,1.7793,1.7096,1.7314,1.7217,1.6369,1.6339,1.6457,1.6562,1.742,1.8461,1.9669,2.0456,2.0807,2.0621,2.059,1.9814,1.8076,1.863,1.8977,1.8977,1.9846,2.0301,2.0301,2.0494,2.0139,1.9299,1.9299,1.8811,1.8008,1.8008,1.8008,1.8008,1.8008,1.8008,1.8076,1.8944,1.9814,2.0687,2.1553,2.2384,2.3112,2.3139,2.2555,2.1876,2.284,2.2778,2.2406,2.3398,2.3986,2.4022,2.2561,2.2464,2.2757,2.2555,2.2657,2.2991,2.3641,2.3713,2.3356,2.2457,2.1475,2.0985,2.1847,2.1101,2.0365,2.0558,2.1132,2.1659,2.1877,2.1964,2.1827,2.134,0.0,0.0,0.0,1.7861,1.7379,1.6645,1.6779,1.7138,0.0,0.0,0.0,0.0,0.0,1.6674,1.6115,1.5635,1.5751,1.6562,1.6648,1.7028,1.7672,1.791,1.8174,1.8451,1.8451,1.8451,1.8451,1.8451,1.8266,1.8008,1.8008,1.8252,1.8646,1.9121,1.9541,1.9971,2.0449,2.0605,2.0605,2.097,1.9844,1.8928,1.8144,1.8008,1.7793,1.7129,1.7227,1.7103,1.6212,1.6447,1.6689,1.6697,1.8187,1.9471,2.0165,2.1008,2.1445,2.1215,2.1207,2.059,1.9243,1.965,1.9879,1.9879,2.0751,2.1207,2.1207,2.1207,2.0526,1.9299,1.9299,1.9044,1.8596,1.8178,1.8202,1.8563,1.8168,1.8008,1.811,1.9365,2.0171,2.0784,2.2277,2.3146,2.3585,2.4149,2.3734,2.3144,2.4425,2.4213,2.3618,2.4864,2.5036,2.4713,2.429,2.3847,2.3467,2.3347,2.3214,2.3308,2.4217,2.4157,2.3685,2.3093,2.2291,2.1856,2.2492,2.1841,2.129,2.1667,2.2125,2.2372,2.2116,2.1993,2.1777,2.1391,2.0747,0.0,1.9456,1.925,1.891,1.8228,1.8346,1.863,1.9052,0.0,0.0,1.8767,1.8073,1.7079,1.5801,1.5732,1.6138,1.7012,1.7396,1.7725,1.8008,1.8395,1.8853,1.9267,1.9041,1.9051,1.9243,1.8809,1.8471,1.8276,1.8516,1.8838,1.9212,1.9482,1.9834,2.0244,2.0517,2.0605,2.0605,2.1942,2.0752,1.9594,1.8307,1.8103,1.7878,1.7288,1.7246,1.7076,1.6474,1.7028,1.7437,1.7316,1.9338,2.0735,2.0771,2.1585,2.2032,2.1908,2.1908,2.1522,2.0655,2.0719,2.0814,2.0814,2.1522,2.1908,2.1908,2.1784,2.0942,1.9497,1.9497,1.9497,1.9464,1.8596,1.863,1.9233,1.8361,1.8076,1.8337,1.9944,2.0687,2.1031,2.3193,2.4004,2.4142,2.5209,2.5016,2.4453,2.5977,2.5483,2.4465,2.599,2.5762,2.5146,2.6197,2.538,2.4117,2.4117,2.3703,2.3358,2.3879,2.3761,2.3523,2.3523,2.2884,2.2397,2.2669,2.2392,2.2292,2.2975,2.3108,2.2945,2.2481,2.197,2.1644,2.1732,0.0,2.0664,2.1098,2.0805,2.0391,1.9872,1.9865,2.0042,2.0394,2.0023,0.0,0.0,1.9235,1.7721,1.6026,1.6258,1.6779,1.7569,1.8343,1.8561,1.8334,1.9081,1.9811,2.0525,2.0062,1.9993,2.026,1.9409,1.8895,1.8724,1.9131,1.9531,1.9912,2.0062,2.0404,2.0828,2.0972,2.1049,2.1011,2.2639,2.1417,2.0063,1.8731,1.8529,1.8026,1.6541,1.6592,1.702,1.7636,1.7832,1.8427,1.9832,2.0649,2.1268,2.1643,2.2445,2.2641,2.1939,2.1908,2.1522,2.0655,2.1302,2.169,2.169,2.1815,2.1908,2.1908,2.1164,2.0655,2.0398,2.0398,2.0398,2.0365,1.9497,1.9177,1.9233,1.8361,1.8438,1.9177,2.0204,2.1037,2.1874,2.3424,2.4004,2.4142,2.5209,2.5016,2.4453,2.5977,2.5483,2.4465,2.599,2.6047,2.5598,2.6298,2.5624,2.4695,2.4695,2.4293,2.3891,2.3979,2.4279,2.4581,2.4581,2.4112,2.3689,2.3753,2.3312,2.2944,2.3078,2.3108,2.3083,2.2995,2.2518,2.2347,2.2782,0.0,2.192,2.1779,2.1055,2.0268,1.9456,1.9657,2.0028,2.0522,2.1362,2.1607,2.1093,2.0842,2.0084,1.8733,1.805,1.7946,1.8417,1.8921,1.9391,1.9784,1.992,2.0846,2.2468,2.239,2.1931,2.1182,2.1037,2.0297,1.9189,1.9258,1.9531,1.9987,2.0862,2.1416,2.1886,2.2739,2.3036,2.2925,2.248,2.1761,2.0877,1.9503,1.8881,1.8291,1.7427,1.695,1.7069,1.8127,1.8283,1.8826,2.008,2.1043,2.1677,2.1885,2.2641,2.2944,2.2567,2.2549,2.2384,2.1959,2.2341,2.2549,2.2549,2.2549,2.2549,2.2549,2.2144,2.171,2.1302,2.1302,2.1302,2.127,2.0398,2.0268,2.0655,1.9781,1.9628,2.0096,2.127,2.1975,2.2516,2.4231,2.4858,2.4971,2.5808,2.5825,2.5541,2.6261,2.5791,2.5148,2.6174,2.6097,2.5711,2.6323,2.5686,2.4662,2.4048,2.3697,2.3572,2.3916,2.4406,2.4713,2.4443,2.4406,2.4268,2.3622,2.3296,2.3108,2.3108,2.3108,2.3007,2.2706,2.2443,0.0,0.0,2.2443,2.2204,2.1942,2.1565,2.0942,2.0074,2.0579,2.1047,2.1279,2.2183,2.2571,2.2247,2.1825,2.131,2.0729,2.0087,1.9719,1.9672,2.0639,2.1029,2.0795,2.1554,2.2537,2.3653,2.3351,2.2866,2.219,2.1647,2.0702,1.9639,1.992,2.0088,2.0378,2.135,2.2044,2.2607,2.3581,2.4123,2.4245,2.2601,2.2175,2.1563,2.0171,1.9337,1.8714,1.8409,1.7656,1.7603,1.8957,1.9169,1.9574,2.0523,2.1566,2.2199,2.2199,2.2732,2.3108,2.3108,2.3108,2.3108,2.3108,2.3108,2.3108,2.3108,2.3108,2.3108,2.3108,2.3108,2.2793,2.2199,2.2199,2.2199,2.2125,2.129,2.1259,2.1858,2.1099,2.0888,2.119,2.2401,2.3014,2.3369,2.4992,2.5598,2.5674,2.6285,2.6499,2.6499,2.6499,2.6109,2.5699,2.6311,2.6009,2.5523,2.6135,2.5573,2.455,2.3409,2.3296,2.3609,2.4079,2.4506,2.4675,2.4293,2.4418,2.4311,2.3308,2.3108,2.3108,2.3108,2.3108,2.297,2.2543,0.0,0.0,0.0,2.2498,2.2412,2.22,2.1846,2.1333,2.0655,2.1005,2.1302,2.1302,2.2249,2.2823,2.2823,2.2414,2.2199,2.2199,2.1637,2.1263,2.1081,2.216,2.2477,2.2102,2.3166,2.4078,2.481,2.4389,2.3915,2.3333,2.257,2.1513,2.0419,2.0795,2.0994,2.1238,2.2157,2.3042,2.3886,2.4838,2.548,2.5712,2.3879,2.2997,2.1865,2.0579,1.9906,1.9298,1.8606,1.8428,1.8998,2.0754,2.1003,2.1482,2.2729,2.295,2.3017,2.3017,2.3078,2.3108,2.3108,2.3108,2.3108,2.3108,2.3108,2.3108,2.3108,2.3108,2.3108,2.3108,2.3108,2.3078,2.3017,2.3017,2.3017,2.2975,2.2168,2.1846,2.1882,2.1508,2.1801,2.2618,2.3206,2.3928,2.4723,2.5352,2.5598,2.5674,2.6285,2.6499,2.6499,2.6499,2.6109,2.5699,2.6311,2.5737,2.4983,2.5511,2.5259,2.455,2.3409,2.3873,2.4675,2.4713,2.4763,2.4775,2.4738,2.4393,2.3891,2.3233,2.3108,2.3108,2.3108,2.3108,2.3095,2.3045,0.0,0.0,2.3045,2.3045,2.3027,2.3005,2.1635,2.0655,2.059,1.9922,1.9497,1.9497,2.1037,2.2002,2.2002,2.2641,2.3017,2.3017,2.2255,2.2068,2.2526,2.2638,2.3159,2.4087,2.4203,2.4973,2.6355,2.6283,2.574,2.4838,2.4767,2.3652,2.1834,2.1866,2.2224,2.2805,2.3743,2.502,2.6467,2.7459,2.784,2.7754,2.3025,2.2611,2.1934,2.0785,2.0039,1.9674,1.9839,1.9303,1.9592,2.1631,2.1741,2.2,2.2992,2.3108,2.3108,2.3108,2.3108,2.3108,2.3108,2.3108,2.3108,2.3108,2.3446,2.3665,2.3665,2.3665,2.3665,2.3665,2.3283,2.3283,2.3665,2.3665,2.3853,2.4148,2.382,2.3693,2.3705,2.3567,2.3685,2.4037,2.46,2.5021,2.536,2.5946,2.6172,2.6197,2.6411,2.6499,2.6499,2.6499,2.6348,2.6197,2.6424,2.621,2.5799,2.5636,2.546,2.5146,2.4349,2.4211,2.4305,2.4305,2.4305,2.4305,2.4305,2.4155,2.3841,2.3221,2.3396,2.3521,2.317,2.3396,2.3552,2.3158,0.0,2.3233,2.3615,2.3665,2.3561,2.3364,2.2808,2.185,2.0421,2.0489,2.0226,1.9353,2.091,2.1908,2.1908,2.2659,2.3108,2.3108,2.2793,2.293,2.3496,2.3828,2.439,2.5105,2.5484,2.5952,2.6499,2.6499,2.5943,2.5004,2.5004,2.4217,2.2947,2.3279,2.3177,2.2956,2.496,2.5892,2.6306,2.7975,2.8837,2.8987,2.231,2.211,2.1722,2.0726,2.0208,2.0186,2.0836,2.047,2.0695,2.2338,2.2395,2.2476,2.3047,2.3108,2.3108,2.3108,2.3108,2.3108,2.3108,2.3108,2.3108,2.3108,2.369,2.4004,2.4004,2.4004,2.4004,2.4004,2.3396,2.3396,2.4004,2.4004,2.4293,2.4788,2.4788,2.4788,2.48,2.4996,2.5059,2.5109,2.5649,2.5862,2.5946,2.6336,2.6499,2.6499,2.6499,2.6499,2.6499,2.6499,2.6499,2.6499,2.6499,2.626,2.5862,2.5473,2.5234,2.5021,2.4657,2.4293,2.4042,2.4217,2.4255,2.4217,2.4042,2.413,2.4092,2.3496,2.3866,2.413,2.371,2.396,2.413,2.3697,2.3634,2.3772,2.4205,2.4255,2.4158,2.3952,2.3679,2.2723,2.0704,2.0926,2.0614,1.9191,2.0862,2.2135,2.2527,2.2892,2.3195,2.3371,2.3371,2.3722,2.4494,2.4707,2.5172,2.5908,2.6298,2.6499,2.6499,2.6499,2.6129,2.5488,2.5658,2.5158,2.4262,2.4803,2.472,2.4376,2.5978,2.6801,2.7207,2.8433,2.9289,2.9702,2.2063,2.1697,2.1216,2.037,2.0468,2.088,2.1405,2.1958,2.2481,2.3032,2.3108,2.3108,2.3108,2.3108,2.3108,2.3108,2.3108,2.3108,2.3108,2.3108,2.3108,2.3108,2.369,2.4004,2.4004,2.4004,2.4004,2.4004,2.3396,2.3409,2.4004,2.4004,2.4305,2.48,2.48,2.48,2.4838,2.5385,2.5598,2.5649,2.626,2.6499,2.6499,2.6499,2.6499,2.6499,2.6499,2.6499,2.6499,2.6499,2.6499,2.6499,2.6499,2.5711,2.48,2.48,2.4443,2.4004,2.4004,2.4004,2.4142,2.4669,2.4775,2.4637,2.4117,2.4418,2.4625,2.4117,2.4443,2.48,2.4788,2.4788,2.48,2.4788,2.4788,2.4788,2.48,2.48,2.48,2.48,2.4034,2.2968,2.1552,2.1071,2.0224,1.8742,2.0749,2.2576,2.3923,2.3421,2.3384,2.3979,2.4004,2.4519,2.5586,2.5084,2.5372,2.6499,2.6499,2.6499,2.6499,2.6499,2.6499,2.6524,2.7077,2.6744,2.585,2.6387,2.6962,2.743,2.6854,2.7907,2.9716,2.9101,2.9289,2.9792,2.2298,2.1798,2.1312,2.0652,2.063,2.088,2.1405,2.1958,2.2481,2.3032,2.3108,2.3108,2.3108,2.3108,2.3108,2.3108,2.3108,2.3108,2.3108,2.3108,2.3283,2.3715,2.4268,2.4745,2.5109,2.5121,2.5121,2.5121,2.4582,2.4594,2.5121,2.5121,2.5423,2.5996,2.5996,2.5996,2.6009,2.6172,2.6235,2.6248,2.6424,2.6499,2.6499,2.6499,2.6499,2.6499,2.6499,2.6499,2.6499,2.6499,2.6499,2.6499,2.6499,2.5996,2.5435,2.585,2.5573,2.5121,2.5121,2.4858,2.4418,2.376,2.3609,2.3672,2.3941,2.4117,2.4305,2.4531,2.4996,2.5259,2.4863,2.5121,2.5247,2.485,2.4788,2.4913,2.531,2.536,2.5523,2.5925,2.5747,2.5025,2.3599,2.3328,2.2662,2.1216,2.2309,2.3341,2.3967,2.4205,2.4186,2.4004,2.4381,2.4908,2.5586,2.5435,2.5737,2.6499,2.6499,2.6499,2.6499,2.6499,2.6499,2.6524,2.7077,2.7126,2.6926,2.7854,2.7895,2.7463,2.8464,2.8733,2.8615,2.881,2.9289,2.9729,2.227,2.1807,2.1359,2.0887,2.0924,2.1207,2.1732,2.2284,2.2732,2.3058,2.3108,2.3108,2.3108,2.3108,2.3108,2.3108,2.3308,2.3346,2.312,2.3321,2.3697,2.4305,2.4644,2.5059,2.5586,2.5598,2.5598,2.5598,2.5039,2.5084,2.5598,2.5598,2.59,2.6499,2.6499,2.6499,2.6499,2.6499,2.6499,2.6499,2.6499,2.6499,2.6499,2.6499,2.6499,2.6499,2.6499,2.6499,2.6499,2.6499,2.6499,2.6499,2.6499,2.6097,2.5661,2.6047,2.5607,2.5008,2.5234,2.4895,2.4381,2.3885,2.3609,2.3597,2.4192,2.4481,2.472,2.5059,2.5561,2.5871,2.5523,2.5724,2.5837,2.5523,2.5473,2.5586,2.5921,2.5971,2.6097,2.6449,2.6499,2.5928,2.4438,2.4478,2.4224,2.3364,2.3591,2.4026,2.4612,2.4757,2.4757,2.4632,2.4958,2.5385,2.5971,2.6151,2.6474,2.6813,2.66,2.6725,2.714,2.6927,2.6939,2.7178,2.7695,2.7934,2.7996,2.89,2.8721,2.8003,2.8824,2.8845,2.8417,2.8524,2.9114,2.9741,2.2156,2.1739,2.1418,2.1164,2.1334,2.1681,2.2234,2.2757,2.3108,2.3108,2.3108,2.3108,2.3108,2.3108,2.3108,2.3108,2.3665,2.3803,2.3283,2.3778,2.4318,2.4838,2.4863,2.5146,2.5661,2.5674,2.5674,2.5674,2.5197,2.5209,2.5674,2.5674,2.595,2.6499,2.6499,2.6499,2.6499,2.6499,2.6499,2.6499,2.6499,2.6499,2.6499,2.6499,2.6499,2.6499,2.6499,2.6499,2.6499,2.6499,2.6499,2.6499,2.6499,2.6135,2.5674,2.5674,2.4983,2.4318,2.4738,2.4519,2.4268,2.4833,2.4594,2.433,2.4782,2.5259,2.5624,2.5724,2.6197,2.6587,2.6637,2.66,2.6562,2.6562,2.6524,2.6499,2.6499,2.6499,2.6499,2.6499,2.6499,2.5952,2.4647,2.4882,2.5111,2.5111,2.4681,2.4759,2.5565,2.5197,2.5159,2.5586,2.5649,2.5984,2.6562,2.7065,2.7281,2.7268,2.6851,2.7165,2.8084,2.7582,2.7632,2.8134,2.865,2.8888,2.8938,2.9553,2.9453,2.885,2.8436,2.8536,2.8838,2.836,2.8863,2.9792,2.2884,2.2131,2.16,2.1965,2.1731,2.1681,2.2234,2.2757,2.3108,2.3108,2.3108,2.3108,2.3108,2.3108,2.3108,2.3108,2.3665,2.413,2.4399,2.4537,2.4883,2.541,2.5423,2.5686,2.6298,2.6298,2.6298,2.6298,2.6197,2.6197,2.6298,2.6298,2.6373,2.6499,2.6499,2.6499,2.6499,2.6499,2.6499,2.6499,2.6499,2.6499,2.6499,2.6499,2.6499,2.6499,2.6499,2.6499,2.6499,2.6499,2.6499,2.6499,2.6499,2.6411,2.6298,2.6298,2.6147,2.5883,2.5523,2.5335,2.5385,2.5996,2.6047,2.5871,2.5498,2.5523,2.585,2.6741,2.7052,2.7231,2.767,2.7394,2.714,2.714,2.6776,2.6499,2.6499,2.6499,2.6499,2.6499,2.6499,2.6368,2.6058,2.6136,2.6164,2.6164,2.6052,2.5893,2.5624,2.5946,2.5984,2.5598,2.6072,2.6575,2.714,2.7218,2.7281,2.7281,2.7595,2.7871,2.8109,2.7984,2.7996,2.8134,2.865,2.8888,2.8938,2.9553,2.9453,2.8925,2.9302,2.9214,2.8875,2.8762,2.9189,2.9792,2.2769,2.2071,2.1656,2.2221,2.1857,2.1757,2.2556,2.292,2.3108,2.3108,2.3108,2.3108,2.3108,2.3358,2.3622,2.3885,2.4443,2.477,2.4788,2.5059,2.531,2.5586,2.5598,2.5862,2.6487,2.6499,2.6499,2.6499,2.6499,2.6499,2.6499,2.6499,2.6499,2.6499,2.6499,2.6499,2.6499,2.6499,2.6499,2.6499,2.6499,2.6499,2.6499,2.6499,2.6499,2.6499,2.6499,2.6499,2.6499,2.6499,2.6499,2.6499,2.6499,2.6499,2.6499,2.6499,2.6298,2.6072,2.6047,2.6047,2.6185,2.6751,2.709,2.7168,2.6854,2.6791,2.6954,2.7557,2.767,2.7758,2.8059,2.7871,2.7595,2.7318,2.7291,2.719,2.6927,2.6889,2.6889,2.6889,2.665,2.6499,2.6499,2.6499,2.6499,2.6499,2.6499,2.6361,2.6059,2.6336,2.6361,2.6047,2.6587,2.7027,2.7281,2.7808,2.8059,2.8059,2.8097,2.8386,2.89,2.8624,2.8649,2.8925,2.9214,2.934,2.934,2.9365,2.9164,2.89,2.8976,2.8963,2.8888,2.8888,2.9289,2.9792,2.2506,2.2008,2.1807,2.2347,2.1995,2.197,2.2945,2.3108,2.3108,2.3108,2.3108,2.3108,2.3108,2.3653,2.4255,2.4863,2.5347,2.546,2.5121,2.5498,2.5737,2.5737,2.5737,2.5996,2.6487,2.6499,2.6499,2.6499,2.6499,2.6499,2.6499,2.6499,2.6499,2.6499,2.6499,2.6499,2.6499,2.6499,2.6499,2.6499,2.6499,2.6499,2.6499,2.6499,2.6499,2.6499,2.6499,2.6499,2.6499,2.6499,2.6499,2.6499,2.6499,2.6499,2.6499,2.6499,2.6223,2.5988,2.6499,2.67,2.6901,2.7419,2.7908,2.8273,2.8373,2.8247,2.8134,2.8235,2.8247,2.8285,2.8373,2.831,2.8097,2.7645,2.7871,2.7946,2.7494,2.7379,2.7281,2.7281,2.6839,2.6499,2.6499,2.6499,2.6537,2.6625,2.6549,2.6537,2.6625,2.6549,2.6537,2.6637,2.7077,2.7369,2.7557,2.8473,2.8938,2.9026,2.8612,2.8888,2.9779,2.9289,2.934,2.9792,2.9792,2.9792,2.9754,2.9277,2.8976,2.8863,2.8536,2.8612,2.89,2.9001,2.9377,2.9792,2.3007,2.2543,2.2343,2.2895,2.2543,2.241,2.3007,2.3108,2.3108,2.3108,2.3108,2.3108,2.3108,2.3653,2.4406,2.5398,2.5548,2.5774,2.6248,2.6336,2.6373,2.6373,2.6373,2.6411,2.6499,2.6499,2.6499,2.6499,2.6499,2.6499,2.6499,2.6499,2.6499,2.6499,2.6499,2.6499,2.6499,2.6499,2.6499,2.6499,2.6499,2.6499,2.6499,2.6499,2.6499,2.6499,2.6499,2.6499,2.6499,2.6499,2.6499,2.6499,2.6499,2.6499,2.6499,2.6499,2.6776,2.7067,2.719,2.7519,2.8009,2.8561,2.8725,2.8913,2.9453,2.8812,2.8235,2.8687,2.8775,2.8925,2.9465,2.9151,2.8762,2.8712,2.8373,2.8084,2.8009,2.7582,2.7281,2.7281,2.6839,2.6499,2.6499,2.6499,2.6688,2.7165,2.6763,2.67,2.7178,2.6751,2.6713,2.719,2.7278,2.7745,2.8662,2.8813,2.9176,2.9679,2.9591,2.9641,2.9792,2.9716,2.9716,2.9792,2.9792,2.9792,2.9779,2.9704,2.9377,2.8938,2.9402,2.9302,2.895,2.949,2.9729,2.9792,2.2706,2.2443,2.2355,2.2606,2.2443,2.2468,2.302,2.3108,2.3108,2.3108,2.3108,2.3108,2.3108,2.3898,2.4895,2.6021,2.6109,2.6413,2.7116,2.6748,2.6679,2.7162,2.6748,2.6499,2.6499,2.6939,2.6939,2.6499,2.6499,2.6714,2.7162,2.6714,2.6499,2.6499,2.6499,2.6499,2.6499,2.6499,2.6499,2.6499,2.6499,2.6499,2.6499,2.6499,2.6499,2.6499,2.6499,2.6499,2.6499,2.6499,2.6499,2.6499,2.6499,2.6499,2.6549,2.6864,2.7128,2.7392,2.7657,2.8147,2.8587,2.8838,2.9126,2.9478,2.9729,2.9402,2.9114,2.9365,2.9415,2.949,2.9741,2.9578,2.9302,2.8938,2.9001,2.8825,2.8197,2.7896,2.7507,2.6927,2.6637,2.6499,2.6499,2.6776,2.6927,2.6864,2.7203,2.7253,2.6876,2.7216,2.7344,2.7281,2.7883,2.8436,2.8888,2.9252,2.9541,2.9792,2.9792,2.9792,2.9792,2.9792,2.9792,2.9792,2.9792,2.9792,2.9767,2.9453,2.9352,2.9402,2.934,2.9352,2.944,2.9691,2.9792,2.9792]}]]